[[{"header":{"parameterUnit":"m.s-1","parameterCategory":1,"la1":31.0,"la2":29.5877,"lo1":-88.7671,"lo2":-86.6584,"dy":0.0162,"dx":0.0185,"nx":115,"ny":88,"refTime":"2023-07-18T12:00:00:Z","depth":0,"parameterNumber":2,"parameterNumberName":"U-component_of_WINDS"},"data":[0.0,0.0,0.0,0.0,0.0,0.0,0.0,0.0,0.0,0.0,0.0,0.0,0.0,0.0,0.0,0.0,0.0,0.0,0.0,0.0,0.0,0.0,0.0,0.0,0.0,0.0,0.0,0.0,0.0,0.0,0.0,0.0,0.0,0.0,0.0,0.0,0.0,0.0,0.0,0.0,0.0,0.0,0.0,0.0,0.0,0.0,0.0,0.0,0.0,0.0,0.0,0.0,0.0,0.0,0.0,0.0,0.0,0.0,0.0,0.0,0.0,0.0,0.0,0.0,0.0,0.0,0.0,0.0,0.0,0.0,0.0,0.0,0.0,0.0,0.0,0.0,0.0,0.0,0.0,0.0,0.0,0.0,0.0,0.0,0.0,0.0,0.0,0.0,0.0,0.0,0.0,0.0,0.0,0.0,0.0,0.0,0.0,0.0,0.0,0.0,0.0,0.0,0.0,0.0,0.0,0.0,0.0,0.0,0.0,0.0,0.0,0.0,0.0,0.0,0.0,0.0,0.0,0.0,0.0,0.0,0.0,0.0,0.0,0.0,0.0,0.0,0.0,0.0,0.0,0.0,0.0,0.0,0.0,0.0,0.0,0.0,0.0,0.0,0.0,0.0,0.0,0.0,0.0,0.0,0.0,0.0,0.0,0.0,0.0,0.0,0.0,0.0,0.0,0.0,0.0,0.0,0.0,0.0,0.0,0.0,0.0,0.0,0.0,0.0,0.0,0.0,0.0,0.0,0.0,0.0,0.0,0.0,0.0,0.0,0.0,0.0,0.0,0.0,0.0,0.0,0.0,0.0,0.0,0.0,0.0,0.0,0.0,0.0,0.0,0.0,0.0,0.0,0.0,0.0,0.0,0.0,0.0,0.0,0.0,0.0,0.0,0.0,0.0,0.0,0.0,0.0,0.0,0.0,0.0,0.0,0.0,0.0,0.0,0.0,0.0,0.0,0.0,0.0,0.0,0.0,0.0,0.0,0.0,0.0,0.0,0.0,0.0,0.0,0.0,0.0,0.0,0.0,0.0,0.0,0.0,0.0,0.0,0.0,0.0,0.0,0.0,0.0,0.0,0.0,0.0,0.0,0.0,0.0,0.0,0.0,0.0,0.0,0.0,0.0,0.0,0.0,0.0,0.0,0.0,0.0,0.0,0.0,0.0,0.0,0.0,0.0,0.0,0.0,0.0,0.0,0.0,0.0,0.0,0.0,0.0,0.0,0.0,0.0,0.0,0.0,0.0,0.0,0.0,0.0,0.0,0.0,0.0,0.0,0.0,0.0,0.0,0.0,0.0,0.0,0.0,0.0,0.0,0.0,0.0,0.0,0.0,0.0,0.0,0.0,0.0,0.0,0.0,0.0,0.0,0.0,0.0,0.0,0.0,0.0,0.0,0.0,0.0,0.0,0.0,0.0,0.0,0.0,0.0,0.0,0.0,0.0,0.0,0.0,0.0,0.0,0.0,0.0,0.0,0.0,0.0,0.0,0.0,0.0,0.0,0.0,0.0,0.0,0.0,0.0,0.0,0.0,0.0,0.0,0.0,0.0,0.0,0.0,0.0,0.0,0.0,0.0,0.0,0.0,0.0,0.0,0.0,0.0,0.0,0.0,0.0,0.0,0.0,0.0,0.0,0.0,0.0,0.0,0.0,0.0,0.0,0.0,0.0,0.0,0.0,0.0,0.0,0.0,0.0,0.0,0.0,0.0,0.0,0.0,0.0,0.0,0.0,0.0,0.0,0.0,0.0,0.0,0.0,0.0,0.0,0.0,0.0,0.0,0.0,0.0,0.0,0.0,0.0,0.0,0.0,0.0,0.0,0.0,0.0,0.0,0.0,0.0,0.0,0.0,0.0,0.0,0.0,0.0,0.0,0.0,0.0,0.0,0.0,0.0,0.0,0.0,0.0,0.0,0.0,0.0,0.0,0.0,0.0,0.0,0.0,0.0,0.0,0.0,0.0,0.0,0.0,0.0,0.0,0.0,0.0,0.0,0.0,0.0,0.0,0.0,0.0,0.0,0.0,0.0,0.0,0.0,0.0,0.0,0.0,0.0,0.0,0.0,0.0,0.0,0.0,0.0,0.0,0.0,0.0,0.0,0.0,0.0,0.0,0.0,0.0,0.0,0.0,0.0,0.0,0.0,0.0,0.0,0.0,0.0,0.0,0.0,0.0,0.0,0.0,0.0,0.0,0.0,0.0,0.0,0.0,0.0,0.0,0.0,0.0,0.0,0.0,0.0,0.0,0.0,0.0,0.0,0.0,0.0,0.0,0.0,0.0,0.0,0.0,0.0,0.0,0.0,0.0,0.0,0.0,0.0,0.0,0.0,0.0,0.0,0.0,0.0,0.0,0.0,0.0,0.0,0.0,0.0,0.0,0.0,0.0,0.0,0.0,0.0,0.0,0.0,0.0,0.0,0.0,0.0,0.0,0.0,0.0,0.0,0.0,0.0,0.0,0.0,0.0,0.0,0.0,0.0,0.0,0.0,0.0,0.0,0.0,0.0,0.0,0.0,0.0,0.0,0.0,0.0,0.0,0.0,0.0,0.0,0.0,0.0,0.0,0.0,0.0,0.0,0.0,0.0,0.0,0.0,0.0,0.0,0.0,0.0,0.0,0.0,0.0,0.0,0.0,0.0,0.0,0.0,0.0,0.0,0.0,0.0,0.0,0.0,0.0,0.0,0.0,0.0,0.0,0.0,0.0,0.0,0.0,0.0,0.0,0.0,0.0,0.0,0.0,0.0,0.0,0.0,0.0,0.0,0.0,0.0,0.0,0.0,0.0,0.0,0.0,0.0,0.0,0.0,0.0,0.0,0.0,0.0,0.0,0.0,0.0,0.0,0.0,0.0,0.0,0.0,0.0,0.0,0.0,0.0,0.0,0.0,0.0,0.0,0.0,0.0,0.0,0.0,0.0,0.0,0.0,0.0,0.0,0.0,0.0,0.0,0.0,0.0,0.0,0.0,0.0,0.0,0.0,0.0,0.0,0.0,0.0,0.0,0.0,0.0,0.0,0.0,0.0,0.0,0.0,0.0,0.0,0.0,0.0,0.0,0.0,0.0,0.0,0.0,0.0,0.0,0.0,0.0,0.0,0.0,0.0,0.0,0.0,0.0,0.0,0.0,0.0,0.0,0.0,0.0,0.0,0.0,0.0,0.0,0.0,0.0,0.0,0.0,0.0,0.0,0.0,0.0,0.0,0.0,0.0,0.0,0.0,0.0,0.0,0.0,0.0,0.0,0.0,0.0,0.0,0.0,0.0,0.0,0.0,0.0,0.0,0.0,0.0,0.0,0.0,0.0,0.0,0.0,0.0,0.0,0.0,0.0,0.0,0.0,0.0,0.0,0.0,0.0,0.0,0.0,0.0,0.0,0.0,0.0,0.0,0.0,0.0,0.0,0.0,0.0,0.0,0.0,0.0,0.0,0.0,0.0,0.0,0.0,0.0,0.0,0.0,0.0,0.0,0.0,0.0,0.0,0.0,0.0,0.0,0.0,0.0,0.0,0.0,0.0,0.0,0.0,0.0,0.0,0.0,0.0,0.0,0.0,0.0,0.0,0.0,0.0,0.0,0.0,0.0,0.0,0.0,0.0,0.0,0.0,0.0,0.0,0.0,0.0,0.0,0.0,0.0,0.0,0.0,0.0,0.0,0.0,0.0,0.0,0.0,0.0,0.0,0.0,0.0,0.0,0.0,0.0,0.0,0.0,0.0,0.0,0.0,0.0,0.0,0.0,0.0,0.0,0.0,0.0,0.0,0.0,0.0,0.0,0.0,0.0,0.0,0.0,0.0,0.0,0.0,0.0,0.0,0.0,0.0,0.0,0.0,0.0,0.0,0.0,0.0,0.0,0.0,0.0,0.0,0.0,0.0,0.0,0.0,0.0,0.0,0.0,0.0,0.0,0.0,0.0,0.0,0.0,0.0,0.0,0.0,0.0,0.0,0.0,0.0,0.0,0.0,0.0,0.0,0.0,0.0,0.0,0.0,0.0,0.0,0.0,0.0,0.0,0.0,0.0,0.0,0.0,0.0,0.0,0.0,0.0,0.0,0.0,0.0,0.0,0.0,0.0,0.0,0.0,0.0,0.0,0.0,0.0,0.0,0.0,0.0,0.0,0.0,0.0,0.0,0.0,0.0,0.0,0.0,0.0,0.0,0.0,0.0,0.0,0.0,0.0,0.0,0.0,0.0,0.0,0.0,0.0,0.0,0.0,0.0,0.0,0.0,0.0,0.0,0.0,0.0,0.0,0.0,0.0,0.0,0.0,0.0,0.0,-2.3313,0.0,0.0,0.0,0.0,0.0,0.0,0.0,0.0,0.0,0.0,0.0,0.0,0.0,0.0,0.0,0.0,0.0,0.0,0.0,0.0,0.0,0.0,0.0,0.0,0.0,0.0,0.0,0.0,0.0,0.0,0.0,0.0,0.0,0.0,0.0,0.0,0.0,0.0,0.0,0.0,0.0,0.0,0.0,0.0,0.0,0.0,0.0,0.0,0.0,0.0,0.0,0.0,0.0,0.0,0.0,0.0,0.0,0.0,0.0,0.0,0.0,0.0,0.0,0.0,0.0,0.0,0.0,0.0,0.0,0.0,0.0,0.0,0.0,0.0,0.0,0.0,0.0,0.0,0.0,0.0,0.0,0.0,0.0,0.0,0.0,0.0,0.0,0.0,0.0,0.0,0.0,0.0,0.0,0.0,0.0,0.0,0.0,0.0,0.0,0.0,0.0,0.0,0.0,0.0,0.0,0.0,0.0,0.0,0.0,0.0,-2.3247,-2.3283,-2.3283,-2.3277,-2.3253,0.0,0.0,0.0,0.0,0.0,0.0,0.0,0.0,0.0,0.0,0.0,0.0,0.0,0.0,0.0,0.0,0.0,0.0,0.0,0.0,0.0,0.0,0.0,0.0,0.0,0.0,0.0,0.0,0.0,0.0,0.0,0.0,0.0,0.0,0.0,0.0,0.0,0.0,0.0,0.0,0.0,0.0,0.0,0.0,0.0,0.0,0.0,0.0,0.0,0.0,0.0,0.0,0.0,0.0,0.0,0.0,0.0,0.0,0.0,0.0,0.0,0.0,0.0,0.0,0.0,0.0,0.0,0.0,0.0,0.0,0.0,0.0,0.0,0.0,0.0,0.0,0.0,0.0,0.0,0.0,0.0,0.0,0.0,0.0,0.0,0.0,0.0,0.0,0.0,0.0,0.0,0.0,0.0,0.0,0.0,0.0,0.0,0.0,0.0,0.0,0.0,0.0,0.0,0.0,0.0,0.0,0.0,0.0,0.0,0.0,0.0,0.0,-2.3235,-2.3229,-2.318,0.0,0.0,0.0,0.0,0.0,0.0,0.0,0.0,0.0,0.0,0.0,0.0,0.0,0.0,0.0,0.0,0.0,0.0,0.0,0.0,0.0,0.0,0.0,0.0,0.0,0.0,0.0,0.0,0.0,0.0,0.0,0.0,0.0,0.0,0.0,0.0,0.0,0.0,0.0,0.0,0.0,0.0,0.0,0.0,0.0,0.0,0.0,0.0,0.0,0.0,0.0,0.0,0.0,0.0,0.0,0.0,0.0,0.0,0.0,0.0,0.0,0.0,0.0,0.0,0.0,0.0,0.0,0.0,0.0,0.0,0.0,0.0,0.0,0.0,0.0,0.0,0.0,0.0,0.0,0.0,0.0,0.0,0.0,0.0,0.0,0.0,0.0,0.0,0.0,0.0,0.0,0.0,0.0,0.0,0.0,0.0,0.0,0.0,0.0,0.0,0.0,0.0,0.0,0.0,0.0,0.0,0.0,0.0,0.0,0.0,-2.3119,-2.3119,-2.3132,0.0,-2.3102,0.0,0.0,0.0,0.0,0.0,0.0,0.0,0.0,0.0,0.0,0.0,0.0,0.0,0.0,0.0,0.0,0.0,0.0,0.0,0.0,0.0,0.0,0.0,0.0,0.0,0.0,0.0,0.0,0.0,0.0,0.0,0.0,0.0,0.0,0.0,0.0,0.0,0.0,0.0,0.0,0.0,0.0,0.0,0.0,0.0,0.0,0.0,0.0,0.0,0.0,0.0,0.0,0.0,0.0,0.0,0.0,0.0,0.0,0.0,0.0,0.0,0.0,0.0,0.0,0.0,0.0,0.0,0.0,0.0,0.0,0.0,0.0,0.0,0.0,0.0,0.0,0.0,0.0,0.0,0.0,0.0,0.0,0.0,0.0,0.0,0.0,0.0,0.0,0.0,0.0,0.0,0.0,0.0,0.0,0.0,0.0,0.0,0.0,0.0,0.0,0.0,0.0,0.0,0.0,0.0,0.0,0.0,0.0,0.0,0.0,-2.3107,-2.3107,-2.3107,-2.3107,0.0,0.0,0.0,0.0,0.0,0.0,0.0,0.0,0.0,0.0,0.0,0.0,0.0,0.0,0.0,0.0,0.0,0.0,0.0,0.0,0.0,0.0,0.0,0.0,0.0,0.0,0.0,0.0,0.0,0.0,0.0,0.0,0.0,0.0,0.0,0.0,0.0,0.0,0.0,0.0,0.0,0.0,0.0,0.0,0.0,0.0,0.0,0.0,0.0,0.0,0.0,0.0,0.0,0.0,0.0,0.0,0.0,0.0,0.0,0.0,0.0,0.0,0.0,0.0,0.0,0.0,0.0,0.0,0.0,0.0,0.0,0.0,0.0,0.0,0.0,0.0,0.0,0.0,0.0,0.0,0.0,0.0,0.0,0.0,0.0,0.0,0.0,0.0,0.0,0.0,0.0,0.0,0.0,0.0,0.0,0.0,0.0,0.0,0.0,0.0,0.0,0.0,0.0,0.0,0.0,0.0,0.0,0.0,0.0,0.0,-2.3107,-2.3107,-2.3107,-2.3107,-2.3107,-2.3107,0.0,0.0,0.0,0.0,0.0,0.0,0.0,0.0,0.0,0.0,0.0,0.0,0.0,0.0,0.0,0.0,0.0,0.0,0.0,0.0,0.0,0.0,0.0,0.0,0.0,0.0,0.0,0.0,0.0,0.0,0.0,0.0,0.0,0.0,0.0,0.0,0.0,0.0,0.0,0.0,0.0,0.0,0.0,0.0,0.0,0.0,0.0,0.0,0.0,0.0,0.0,0.0,0.0,0.0,0.0,0.0,0.0,0.0,0.0,0.0,0.0,0.0,0.0,0.0,0.0,0.0,0.0,0.0,0.0,0.0,0.0,0.0,0.0,0.0,0.0,0.0,0.0,0.0,0.0,0.0,0.0,0.0,0.0,0.0,0.0,0.0,0.0,0.0,0.0,0.0,0.0,0.0,0.0,0.0,0.0,0.0,0.0,0.0,0.0,0.0,0.0,0.0,0.0,0.0,0.0,0.0,0.0,0.0,-2.3107,-2.3107,-2.3107,-2.3107,-2.3107,-2.3107,0.0,0.0,0.0,0.0,0.0,0.0,0.0,0.0,0.0,0.0,0.0,0.0,0.0,0.0,0.0,0.0,0.0,0.0,0.0,0.0,0.0,0.0,0.0,0.0,0.0,0.0,0.0,0.0,0.0,0.0,0.0,0.0,0.0,0.0,0.0,0.0,0.0,0.0,0.0,0.0,0.0,0.0,0.0,0.0,0.0,0.0,0.0,0.0,0.0,0.0,0.0,0.0,0.0,0.0,0.0,0.0,0.0,0.0,0.0,0.0,0.0,0.0,0.0,0.0,0.0,0.0,0.0,0.0,0.0,0.0,0.0,0.0,0.0,0.0,0.0,0.0,0.0,0.0,0.0,0.0,0.0,0.0,0.0,0.0,0.0,0.0,0.0,0.0,0.0,0.0,0.0,0.0,0.0,0.0,0.0,0.0,0.0,0.0,0.0,0.0,0.0,0.0,0.0,0.0,0.0,0.0,0.0,0.0,0.0,-2.3107,-2.3107,-2.3107,-2.3107,-2.3107,-2.3065,0.0,0.0,0.0,0.0,0.0,0.0,0.0,0.0,0.0,0.0,0.0,0.0,0.0,0.0,0.0,0.0,0.0,0.0,0.0,0.0,0.0,0.0,0.0,0.0,0.0,0.0,0.0,0.0,0.0,0.0,0.0,0.0,0.0,0.0,0.0,0.0,0.0,0.0,0.0,0.0,0.0,0.0,0.0,0.0,0.0,0.0,0.0,0.0,0.0,0.0,0.0,0.0,0.0,0.0,0.0,0.0,0.0,0.0,0.0,0.0,0.0,0.0,0.0,0.0,0.0,0.0,0.0,0.0,0.0,0.0,0.0,0.0,0.0,0.0,0.0,0.0,0.0,0.0,0.0,0.0,0.0,0.0,0.0,0.0,0.0,0.0,0.0,0.0,0.0,0.0,0.0,0.0,0.0,0.0,0.0,0.0,0.0,0.0,0.0,0.0,0.0,0.0,0.0,0.0,0.0,0.0,0.0,0.0,0.0,-2.3107,0.0,-2.3095,-2.307,-2.307,-2.3045,0.0,0.0,0.0,0.0,0.0,0.0,0.0,0.0,0.0,0.0,0.0,0.0,0.0,0.0,0.0,0.0,0.0,0.0,0.0,0.0,0.0,0.0,0.0,0.0,0.0,0.0,0.0,0.0,0.0,0.0,0.0,0.0,0.0,0.0,0.0,0.0,0.0,0.0,0.0,0.0,0.0,0.0,0.0,0.0,0.0,0.0,0.0,0.0,0.0,0.0,0.0,0.0,0.0,0.0,0.0,0.0,0.0,0.0,0.0,0.0,0.0,0.0,0.0,0.0,0.0,0.0,0.0,0.0,0.0,0.0,0.0,0.0,0.0,0.0,0.0,0.0,0.0,0.0,0.0,0.0,0.0,0.0,0.0,0.0,0.0,0.0,0.0,0.0,0.0,0.0,0.0,0.0,0.0,0.0,0.0,0.0,0.0,0.0,0.0,0.0,0.0,0.0,0.0,0.0,0.0,0.0,0.0,0.0,-2.3125,-2.3125,-2.3125,-2.3122,-2.3025,-2.3042,-2.2987,0.0,0.0,0.0,0.0,0.0,0.0,0.0,0.0,0.0,0.0,0.0,0.0,0.0,0.0,0.0,0.0,0.0,0.0,0.0,0.0,0.0,0.0,0.0,0.0,0.0,0.0,0.0,0.0,0.0,0.0,0.0,0.0,0.0,0.0,0.0,0.0,0.0,0.0,0.0,0.0,0.0,0.0,0.0,0.0,0.0,0.0,0.0,0.0,0.0,0.0,0.0,0.0,0.0,0.0,0.0,0.0,0.0,0.0,0.0,0.0,0.0,0.0,0.0,0.0,0.0,0.0,0.0,0.0,0.0,0.0,0.0,0.0,0.0,0.0,0.0,0.0,0.0,0.0,0.0,0.0,0.0,0.0,0.0,0.0,0.0,0.0,0.0,0.0,0.0,0.0,0.0,0.0,0.0,0.0,0.0,0.0,0.0,0.0,0.0,0.0,0.0,0.0,0.0,0.0,0.0,0.0,0.0,0.0,0.0,-2.3855,-2.3816,-2.3776,-2.3763,-2.3763,-2.3476,0.0,0.0,0.0,0.0,0.0,0.0,0.0,0.0,0.0,0.0,0.0,0.0,0.0,0.0,0.0,0.0,0.0,0.0,0.0,0.0,0.0,0.0,0.0,0.0,0.0,0.0,0.0,0.0,0.0,0.0,0.0,0.0,0.0,0.0,0.0,0.0,0.0,0.0,0.0,0.0,0.0,0.0,0.0,0.0,0.0,0.0,0.0,0.0,0.0,0.0,0.0,0.0,0.0,0.0,0.0,0.0,0.0,0.0,0.0,0.0,0.0,0.0,0.0,0.0,0.0,0.0,0.0,0.0,0.0,0.0,0.0,0.0,0.0,0.0,0.0,0.0,0.0,0.0,0.0,0.0,0.0,0.0,0.0,0.0,0.0,0.0,0.0,0.0,0.0,0.0,0.0,0.0,0.0,0.0,0.0,0.0,0.0,0.0,0.0,0.0,0.0,0.0,0.0,0.0,0.0,0.0,0.0,0.0,0.0,-2.492,-2.4663,-2.451,-2.4465,-2.4465,-2.406,-2.3214,0.0,0.0,0.0,0.0,0.0,0.0,0.0,0.0,0.0,0.0,0.0,0.0,0.0,0.0,0.0,0.0,0.0,0.0,0.0,0.0,0.0,0.0,0.0,0.0,0.0,0.0,0.0,0.0,0.0,0.0,0.0,0.0,0.0,0.0,0.0,0.0,0.0,0.0,0.0,0.0,0.0,0.0,0.0,0.0,0.0,0.0,0.0,0.0,0.0,0.0,0.0,0.0,0.0,0.0,0.0,0.0,0.0,0.0,0.0,0.0,0.0,0.0,0.0,0.0,0.0,0.0,0.0,0.0,0.0,0.0,0.0,0.0,0.0,0.0,0.0,0.0,0.0,0.0,0.0,0.0,0.0,0.0,0.0,0.0,0.0,0.0,0.0,0.0,0.0,0.0,0.0,0.0,0.0,0.0,0.0,0.0,0.0,0.0,0.0,0.0,0.0,0.0,0.0,0.0,0.0,0.0,0.0,0.0,-2.6251,-2.5649,-2.5285,-2.5158,-2.5158,-2.4752,0.0,0.0,0.0,0.0,0.0,0.0,0.0,0.0,0.0,0.0,0.0,0.0,0.0,0.0,0.0,0.0,0.0,0.0,0.0,0.0,0.0,0.0,0.0,0.0,0.0,0.0,0.0,0.0,0.0,0.0,0.0,0.0,0.0,0.0,0.0,0.0,0.0,0.0,0.0,0.0,0.0,0.0,0.0,0.0,0.0,0.0,0.0,0.0,0.0,0.0,0.0,0.0,0.0,0.0,0.0,0.0,0.0,0.0,0.0,0.0,0.0,0.0,0.0,0.0,0.0,0.0,0.0,0.0,0.0,0.0,0.0,0.0,0.0,0.0,0.0,0.0,0.0,0.0,0.0,0.0,0.0,0.0,0.0,0.0,0.0,0.0,0.0,0.0,0.0,0.0,0.0,0.0,0.0,0.0,0.0,0.0,0.0,0.0,0.0,0.0,0.0,0.0,0.0,0.0,0.0,0.0,0.0,0.0,0.0,-2.6968,-2.6828,-2.6465,-2.588,-2.5846,-2.5486,0.0,0.0,0.0,0.0,0.0,0.0,0.0,0.0,0.0,0.0,0.0,0.0,0.0,0.0,0.0,0.0,0.0,0.0,0.0,0.0,0.0,0.0,0.0,0.0,0.0,0.0,0.0,0.0,0.0,0.0,0.0,0.0,0.0,0.0,0.0,0.0,0.0,0.0,0.0,0.0,0.0,0.0,0.0,0.0,0.0,0.0,0.0,0.0,0.0,0.0,0.0,0.0,0.0,0.0,0.0,0.0,0.0,0.0,0.0,0.0,0.0,0.0,0.0,0.0,0.0,0.0,0.0,0.0,0.0,0.0,0.0,0.0,0.0,0.0,0.0,0.0,0.0,0.0,0.0,0.0,0.0,0.0,0.0,0.0,0.0,0.0,0.0,0.0,0.0,0.0,0.0,0.0,0.0,0.0,0.0,0.0,0.0,0.0,0.0,0.0,0.0,0.0,0.0,0.0,0.0,0.0,0.0,0.0,-2.6863,-2.7315,-2.7315,-2.7075,-2.6609,-2.6609,-2.6247,0.0,0.0,0.0,0.0,0.0,0.0,0.0,0.0,0.0,0.0,0.0,0.0,0.0,0.0,0.0,0.0,0.0,0.0,0.0,0.0,0.0,0.0,0.0,0.0,0.0,0.0,0.0,0.0,0.0,0.0,0.0,0.0,0.0,0.0,0.0,0.0,0.0,0.0,0.0,0.0,0.0,0.0,0.0,0.0,0.0,0.0,0.0,0.0,0.0,0.0,0.0,0.0,0.0,0.0,0.0,0.0,0.0,0.0,0.0,0.0,0.0,0.0,0.0,0.0,0.0,0.0,0.0,0.0,0.0,0.0,0.0,0.0,0.0,0.0,0.0,0.0,0.0,0.0,0.0,0.0,0.0,0.0,0.0,0.0,0.0,0.0,0.0,0.0,0.0,0.0,0.0,0.0,0.0,0.0,0.0,0.0,0.0,0.0,0.0,0.0,0.0,0.0,0.0,0.0,0.0,0.0,0.0,0.0,-2.7315,-2.7315,-2.7315,-2.7315,-2.7315,-2.7315,-2.6954,0.0,0.0,0.0,0.0,0.0,0.0,0.0,0.0,0.0,0.0,0.0,0.0,0.0,0.0,0.0,0.0,0.0,0.0,0.0,0.0,0.0,0.0,0.0,0.0,0.0,0.0,0.0,0.0,0.0,0.0,0.0,0.0,0.0,0.0,0.0,0.0,0.0,0.0,0.0,0.0,0.0,0.0,0.0,0.0,0.0,0.0,0.0,0.0,0.0,0.0,0.0,0.0,0.0,0.0,0.0,0.0,0.0,0.0,0.0,0.0,0.0,0.0,0.0,0.0,0.0,0.0,0.0,0.0,0.0,0.0,0.0,0.0,0.0,0.0,0.0,0.0,0.0,0.0,0.0,0.0,0.0,0.0,0.0,0.0,0.0,0.0,0.0,0.0,0.0,0.0,0.0,0.0,0.0,0.0,0.0,0.0,0.0,0.0,0.0,0.0,0.0,0.0,0.0,0.0,0.0,0.0,0.0,0.0,-2.7315,-2.7315,-2.7315,-2.7315,-2.7315,-2.7315,-2.7213,0.0,0.0,0.0,0.0,0.0,0.0,0.0,0.0,0.0,0.0,0.0,0.0,0.0,0.0,0.0,0.0,0.0,0.0,0.0,0.0,0.0,0.0,0.0,0.0,0.0,0.0,0.0,0.0,0.0,0.0,0.0,0.0,0.0,0.0,0.0,0.0,0.0,0.0,0.0,0.0,0.0,0.0,0.0,0.0,0.0,0.0,0.0,0.0,-2.0287,0.0,0.0,0.0,0.0,0.0,0.0,0.0,0.0,0.0,0.0,0.0,0.0,0.0,0.0,0.0,0.0,0.0,0.0,0.0,0.0,0.0,0.0,0.0,0.0,0.0,0.0,0.0,0.0,0.0,0.0,0.0,0.0,0.0,0.0,0.0,0.0,0.0,0.0,0.0,0.0,0.0,0.0,0.0,0.0,0.0,0.0,0.0,0.0,0.0,0.0,0.0,0.0,0.0,0.0,0.0,0.0,0.0,0.0,0.0,-2.7315,-2.7315,-2.7315,-2.7315,-2.7315,-2.7315,-2.7315,0.0,0.0,0.0,0.0,0.0,0.0,0.0,0.0,0.0,0.0,0.0,0.0,0.0,0.0,0.0,0.0,0.0,0.0,0.0,0.0,0.0,0.0,0.0,0.0,0.0,0.0,0.0,0.0,0.0,0.0,0.0,0.0,0.0,0.0,0.0,0.0,0.0,0.0,0.0,0.0,0.0,0.0,0.0,0.0,0.0,0.0,0.0,0.0,0.0,0.0,0.0,0.0,0.0,0.0,0.0,0.0,0.0,0.0,0.0,0.0,0.0,0.0,0.0,0.0,0.0,0.0,0.0,0.0,0.0,0.0,0.0,0.0,0.0,0.0,0.0,0.0,0.0,0.0,0.0,0.0,0.0,0.0,0.0,0.0,0.0,0.0,0.0,0.0,0.0,0.0,0.0,0.0,0.0,0.0,0.0,0.0,0.0,0.0,0.0,0.0,0.0,0.0,0.0,0.0,0.0,0.0,0.0,-2.7315,-2.7315,-2.7315,-2.7315,-2.7315,-2.7315,-2.7315,-2.7315,-2.7297,0.0,0.0,0.0,0.0,0.0,0.0,0.0,0.0,0.0,0.0,0.0,0.0,0.0,0.0,0.0,0.0,0.0,0.0,0.0,0.0,0.0,0.0,0.0,0.0,0.0,0.0,0.0,0.0,0.0,0.0,0.0,0.0,0.0,0.0,0.0,0.0,0.0,0.0,-1.9735,-2.0102,0.0,0.0,0.0,0.0,0.0,0.0,0.0,0.0,-2.0183,0.0,0.0,0.0,0.0,0.0,0.0,0.0,0.0,0.0,0.0,0.0,0.0,0.0,0.0,0.0,0.0,0.0,0.0,0.0,0.0,0.0,0.0,0.0,0.0,0.0,0.0,0.0,0.0,0.0,0.0,0.0,0.0,0.0,0.0,0.0,0.0,0.0,0.0,0.0,0.0,0.0,0.0,0.0,0.0,0.0,0.0,0.0,0.0,0.0,0.0,0.0,0.0,0.0,0.0,0.0,0.0,-2.7315,-2.7315,-2.7315,-2.7315,-2.7315,-2.7315,-2.7315,-2.7315,-2.7315,-2.7246,0.0,0.0,0.0,0.0,0.0,0.0,0.0,0.0,0.0,0.0,0.0,0.0,0.0,0.0,0.0,0.0,0.0,0.0,0.0,0.0,0.0,0.0,0.0,0.0,0.0,0.0,0.0,0.0,0.0,0.0,0.0,0.0,0.0,0.0,0.0,0.0,0.0,0.0,0.0,-2.0294,-2.0321,0.0,0.0,0.0,0.0,0.0,0.0,0.0,0.0,-1.9957,0.0,0.0,0.0,0.0,0.0,0.0,0.0,0.0,0.0,0.0,0.0,0.0,0.0,0.0,0.0,0.0,0.0,0.0,0.0,0.0,0.0,0.0,0.0,0.0,0.0,0.0,0.0,0.0,0.0,0.0,0.0,0.0,0.0,0.0,0.0,0.0,0.0,0.0,0.0,0.0,0.0,0.0,0.0,0.0,0.0,0.0,0.0,0.0,0.0,0.0,0.0,0.0,0.0,0.0,0.0,-2.7247,-2.7315,-2.7315,-2.7315,-2.7315,-2.7315,-2.7315,-2.7315,-2.7092,0.0,0.0,0.0,0.0,0.0,0.0,0.0,0.0,0.0,0.0,0.0,0.0,0.0,0.0,0.0,0.0,0.0,0.0,0.0,0.0,0.0,0.0,0.0,0.0,0.0,0.0,0.0,0.0,0.0,0.0,0.0,0.0,0.0,0.0,0.0,0.0,0.0,0.0,0.0,0.0,-2.0354,-2.0287,-2.0287,0.0,0.0,0.0,0.0,0.0,0.0,-1.9993,-1.9884,0.0,0.0,0.0,0.0,0.0,0.0,0.0,0.0,0.0,0.0,0.0,0.0,0.0,0.0,0.0,0.0,0.0,0.0,0.0,0.0,0.0,0.0,0.0,0.0,0.0,0.0,0.0,0.0,0.0,0.0,0.0,0.0,0.0,0.0,0.0,0.0,0.0,0.0,0.0,0.0,0.0,0.0,0.0,0.0,0.0,0.0,0.0,0.0,0.0,0.0,0.0,0.0,0.0,0.0,0.0,-2.7297,-2.7315,-2.7315,-2.7315,-2.7315,-2.7315,-2.7315,-2.7315,-2.6919,0.0,0.0,0.0,0.0,0.0,0.0,0.0,0.0,0.0,0.0,0.0,0.0,0.0,0.0,0.0,0.0,0.0,0.0,0.0,0.0,0.0,0.0,0.0,0.0,0.0,0.0,0.0,0.0,0.0,0.0,0.0,0.0,0.0,0.0,0.0,0.0,0.0,0.0,0.0,0.0,0.0,-2.0287,-2.0287,-2.0287,0.0,0.0,0.0,0.0,-2.0083,-1.9922,0.0,0.0,0.0,0.0,0.0,0.0,0.0,0.0,0.0,0.0,0.0,0.0,0.0,0.0,0.0,0.0,0.0,0.0,0.0,0.0,0.0,0.0,0.0,0.0,0.0,0.0,0.0,0.0,0.0,0.0,0.0,0.0,0.0,0.0,0.0,0.0,0.0,0.0,0.0,0.0,0.0,0.0,0.0,0.0,0.0,0.0,0.0,0.0,0.0,0.0,0.0,0.0,0.0,0.0,0.0,0.0,-2.7315,-2.7315,-2.7315,-2.7315,-2.7315,-2.7315,-2.7315,-2.7315,-2.6919,0.0,0.0,0.0,0.0,0.0,0.0,0.0,0.0,0.0,0.0,0.0,0.0,0.0,0.0,0.0,0.0,0.0,0.0,0.0,0.0,0.0,0.0,0.0,0.0,0.0,0.0,0.0,0.0,0.0,0.0,0.0,0.0,0.0,0.0,0.0,0.0,0.0,0.0,0.0,0.0,0.0,-2.0287,-2.0287,-2.0287,-2.0287,0.0,0.0,0.0,-2.0023,-1.9884,0.0,0.0,0.0,0.0,0.0,0.0,0.0,0.0,0.0,0.0,0.0,0.0,0.0,0.0,0.0,0.0,0.0,0.0,0.0,0.0,0.0,0.0,0.0,0.0,0.0,0.0,0.0,0.0,0.0,0.0,0.0,0.0,0.0,0.0,0.0,0.0,0.0,0.0,0.0,0.0,0.0,0.0,0.0,0.0,0.0,0.0,0.0,0.0,0.0,0.0,0.0,0.0,0.0,0.0,0.0,-2.7315,-2.7315,-2.7315,-2.7315,-2.7315,-2.7315,-2.7315,-2.7315,-2.6868,-2.6264,0.0,0.0,0.0,0.0,0.0,0.0,0.0,0.0,0.0,0.0,0.0,0.0,0.0,0.0,0.0,0.0,0.0,0.0,0.0,0.0,0.0,0.0,0.0,0.0,0.0,0.0,0.0,0.0,0.0,0.0,0.0,0.0,0.0,0.0,0.0,0.0,0.0,0.0,0.0,0.0,0.0,0.0,-2.0287,-2.0287,0.0,0.0,0.0,-2.0023,-1.9902,0.0,0.0,0.0,0.0,0.0,0.0,0.0,0.0,0.0,0.0,0.0,0.0,0.0,0.0,0.0,0.0,0.0,0.0,0.0,0.0,0.0,0.0,0.0,0.0,0.0,0.0,0.0,0.0,0.0,0.0,0.0,0.0,0.0,0.0,0.0,0.0,0.0,0.0,0.0,0.0,0.0,0.0,0.0,0.0,0.0,0.0,0.0,0.0,0.0,0.0,0.0,0.0,0.0,0.0,0.0,0.0,0.0,-2.7315,-2.7315,-2.7315,-2.7315,-2.7315,-2.7211,-2.6988,-2.6419,0.0,0.0,0.0,0.0,0.0,0.0,0.0,0.0,0.0,0.0,0.0,0.0,0.0,0.0,0.0,0.0,0.0,0.0,0.0,0.0,0.0,0.0,0.0,0.0,0.0,0.0,0.0,-2.1664,0.0,0.0,0.0,0.0,0.0,0.0,0.0,0.0,0.0,0.0,0.0,0.0,0.0,0.0,-2.0287,-2.0287,-2.0287,-2.0252,0.0,0.0,-1.9952,-1.983,-1.9744,-1.9723,0.0,0.0,0.0,0.0,0.0,0.0,0.0,0.0,0.0,0.0,0.0,0.0,0.0,0.0,0.0,0.0,0.0,0.0,0.0,0.0,0.0,0.0,0.0,0.0,0.0,0.0,0.0,0.0,0.0,0.0,0.0,0.0,0.0,0.0,0.0,0.0,0.0,0.0,0.0,0.0,0.0,0.0,0.0,0.0,0.0,0.0,0.0,0.0,0.0,0.0,0.0,0.0,0.0,0.0,0.0,-2.7315,-2.7315,-2.7315,-2.7315,-2.7315,-2.6937,-2.623,-2.6111,-2.5404,0.0,0.0,0.0,0.0,0.0,0.0,0.0,0.0,0.0,0.0,0.0,0.0,0.0,0.0,0.0,0.0,0.0,0.0,0.0,0.0,0.0,0.0,0.0,0.0,0.0,0.0,0.0,0.0,0.0,0.0,0.0,0.0,0.0,0.0,0.0,0.0,0.0,0.0,0.0,0.0,0.0,-2.0287,-2.0287,-2.0287,-2.027,0.0,0.0,-1.997,-1.983,-1.9744,-1.9723,-1.9723,0.0,0.0,0.0,0.0,0.0,0.0,0.0,0.0,0.0,0.0,0.0,0.0,0.0,0.0,0.0,0.0,0.0,0.0,0.0,0.0,0.0,0.0,0.0,0.0,0.0,0.0,0.0,0.0,0.0,0.0,0.0,0.0,0.0,0.0,0.0,0.0,0.0,0.0,0.0,0.0,0.0,0.0,0.0,0.0,0.0,0.0,0.0,0.0,0.0,0.0,0.0,0.0,0.0,-2.7315,-2.7315,-2.7315,-2.7315,-2.7282,-2.6816,-2.6419,-2.6109,-2.518,-2.4405,0.0,0.0,0.0,0.0,0.0,0.0,0.0,0.0,0.0,0.0,0.0,0.0,0.0,0.0,0.0,0.0,0.0,0.0,0.0,0.0,0.0,0.0,0.0,0.0,0.0,0.0,0.0,0.0,-2.145,-2.1278,-2.1119,0.0,0.0,0.0,0.0,0.0,0.0,0.0,0.0,0.0,0.0,-2.0287,-2.0287,-2.0287,0.0,0.0,-2.0023,-1.9937,-1.9762,-1.9726,-1.9723,-1.9723,-1.9723,0.0,0.0,0.0,0.0,0.0,0.0,0.0,0.0,0.0,0.0,0.0,0.0,0.0,0.0,0.0,0.0,0.0,0.0,0.0,0.0,0.0,0.0,0.0,0.0,0.0,0.0,0.0,0.0,0.0,0.0,0.0,0.0,0.0,0.0,0.0,0.0,0.0,0.0,0.0,0.0,0.0,0.0,0.0,0.0,0.0,0.0,0.0,0.0,0.0,0.0,0.0,0.0,-2.7315,-2.7315,-2.7315,-2.7315,-2.7315,-2.6523,-2.599,-2.5732,-2.4491,-2.3698,0.0,0.0,0.0,0.0,0.0,0.0,0.0,0.0,0.0,0.0,0.0,0.0,0.0,0.0,0.0,0.0,0.0,0.0,0.0,0.0,0.0,0.0,0.0,0.0,0.0,0.0,0.0,0.0,-2.1388,-2.1199,-2.1103,0.0,0.0,0.0,0.0,0.0,0.0,0.0,0.0,0.0,0.0,-2.0287,-2.0287,-2.0287,-2.0235,-2.0041,-2.0005,-1.9919,-1.9726,-1.9723,-1.9723,-1.9723,0.0,0.0,0.0,0.0,0.0,0.0,0.0,0.0,0.0,0.0,0.0,0.0,0.0,0.0,0.0,0.0,0.0,0.0,0.0,0.0,0.0,0.0,0.0,0.0,0.0,0.0,0.0,0.0,0.0,0.0,0.0,0.0,0.0,0.0,0.0,0.0,0.0,0.0,0.0,0.0,0.0,0.0,0.0,0.0,0.0,0.0,0.0,0.0,0.0,0.0,0.0,0.0,0.0,0.0,-2.7315,-2.7315,-2.7315,-2.7297,-2.6523,-2.5781,-2.5057,-2.4215,-2.3474,-2.2767,0.0,0.0,0.0,0.0,0.0,0.0,0.0,0.0,0.0,0.0,0.0,0.0,0.0,0.0,0.0,0.0,0.0,0.0,0.0,0.0,0.0,0.0,0.0,0.0,0.0,0.0,-2.1589,-2.1294,-2.1119,0.0,0.0,0.0,0.0,0.0,0.0,0.0,0.0,0.0,0.0,-2.0287,-2.0287,-2.0287,-2.0287,-2.0235,-2.0023,-2.0005,-1.9935,-1.9726,-1.9723,-1.9723,0.0,0.0,0.0,0.0,0.0,0.0,0.0,0.0,0.0,0.0,0.0,0.0,0.0,0.0,0.0,0.0,0.0,0.0,0.0,0.0,0.0,0.0,0.0,0.0,0.0,0.0,0.0,-3.107,-3.103,0.0,0.0,0.0,0.0,0.0,0.0,0.0,0.0,0.0,0.0,0.0,-2.9316,-2.9283,0.0,0.0,0.0,0.0,0.0,0.0,0.0,0.0,0.0,0.0,0.0,0.0,-2.7315,-2.7315,-2.7315,-2.7315,-2.7282,-2.6506,-2.5747,-2.5023,-2.4215,-2.3457,-2.2733,0.0,0.0,0.0,0.0,0.0,0.0,0.0,0.0,0.0,0.0,0.0,0.0,0.0,0.0,0.0,0.0,0.0,0.0,0.0,0.0,0.0,0.0,0.0,0.0,0.0,-2.1559,0.0,0.0,0.0,0.0,0.0,0.0,0.0,0.0,0.0,0.0,0.0,-2.0287,-2.0287,-2.0287,-2.0287,-2.0287,-2.0287,-2.0235,0.0,0.0,0.0,0.0,0.0,0.0,0.0,0.0,0.0,0.0,0.0,0.0,0.0,0.0,-1.9045,-1.8841,-1.8803,-1.8726,-1.8556,0.0,0.0,0.0,0.0,0.0,0.0,0.0,0.0,0.0,0.0,0.0,0.0,0.0,0.0,0.0,0.0,-3.1708,0.0,0.0,0.0,0.0,0.0,0.0,0.0,0.0,-3.0506,-3.0352,-3.009,-3.009,-3.009,0.0,-2.9579,-2.8959,0.0,0.0,0.0,0.0,0.0,0.0,0.0,0.0,-2.7315,-2.7315,-2.7315,-2.7315,-2.728,-2.6523,-2.5749,-2.5005,-2.3974,-2.3198,-2.2716,-2.2712,-2.2712,0.0,0.0,0.0,0.0,0.0,0.0,0.0,0.0,0.0,0.0,0.0,0.0,0.0,0.0,0.0,0.0,0.0,0.0,0.0,0.0,0.0,0.0,0.0,-2.1449,0.0,0.0,0.0,0.0,0.0,0.0,0.0,0.0,0.0,-2.051,-2.0375,-2.0287,-2.0287,-2.0287,-2.0287,-2.0287,0.0,0.0,0.0,0.0,0.0,0.0,0.0,-1.9723,-1.9723,-1.9723,-1.9675,-1.9599,-1.9487,-1.9339,-1.9153,0.0,0.0,-1.8841,-1.8803,-1.8741,-1.8523,-1.8341,-1.8189,-1.8189,-1.8043,-1.7902,0.0,0.0,0.0,0.0,0.0,0.0,0.0,0.0,-3.3495,-3.3439,0.0,-3.3168,0.0,0.0,0.0,0.0,0.0,0.0,0.0,0.0,-3.1279,-3.0861,-3.0229,-3.0229,-3.0178,-3.0178,-3.0159,-3.0009,-2.9741,-2.8314,0.0,0.0,0.0,0.0,0.0,0.0,-2.7315,-2.7315,-2.7315,-2.7315,-2.7297,-2.6557,-2.5781,-2.5005,-2.3557,-2.275,-2.2699,-2.2712,-2.2712,-2.2712,-2.2712,0.0,0.0,0.0,0.0,0.0,0.0,0.0,0.0,0.0,0.0,0.0,0.0,0.0,0.0,0.0,0.0,0.0,0.0,0.0,0.0,-2.1509,0.0,0.0,0.0,0.0,0.0,0.0,0.0,0.0,0.0,0.0,-2.051,-2.039,-2.0287,-2.0287,0.0,0.0,0.0,0.0,-2.0218,-2.0041,-2.0005,-1.9919,-1.9726,-1.9708,-1.9723,-1.9723,0.0,0.0,-1.945,-1.9409,-1.9339,-1.9139,-1.9101,-1.9045,-1.8841,-1.8803,-1.8726,-1.8537,-1.8361,-1.8208,-1.8169,-1.8029,-1.7922,-3.7878,0.0,0.0,0.0,0.0,-3.5436,-3.5275,-3.5203,-3.5144,-3.5033,-3.49,-3.4247,0.0,0.0,0.0,0.0,0.0,0.0,-3.2399,-3.2089,-3.2054,-3.1949,-3.1756,-3.1739,-3.1756,-3.1721,-3.1159,-3.0829,-3.0677,-2.9717,-2.882,-2.8108,0.0,0.0,0.0,0.0,-2.7315,-2.7315,-2.7315,-2.7315,-2.7315,-2.7075,-2.6333,-2.504,-2.4026,-2.325,-2.2716,-2.2712,-2.2712,-2.2712,-2.2712,0.0,0.0,0.0,0.0,0.0,0.0,0.0,0.0,0.0,0.0,0.0,0.0,0.0,0.0,0.0,0.0,0.0,0.0,0.0,-2.165,-2.1495,-2.1371,0.0,0.0,0.0,0.0,0.0,0.0,0.0,0.0,0.0,-2.051,-2.039,-2.0287,0.0,0.0,-2.0287,-2.0287,-2.0287,-2.0235,-2.0083,0.0,0.0,0.0,-1.9726,-1.9723,-1.9723,-1.9723,-1.9669,-1.9541,-1.9468,-1.9358,-1.925,-1.9176,-1.9064,-1.8965,-1.8855,-1.8741,-1.8542,-1.8386,-1.8254,-1.8208,-1.8089,-1.7955,-3.9515,-3.8123,-3.7103,-3.6637,-3.651,-3.6125,-3.5924,-3.5864,-3.582,-3.5704,-3.5519,-3.502,-3.4707,-3.4574,-3.4059,0.0,0.0,0.0,-3.3476,-3.3301,-3.3301,-3.3143,-3.2862,-3.2845,-3.2704,-3.2388,-3.1897,-3.1618,-3.1532,-3.106,-3.0331,-2.9383,0.0,0.0,-2.773,-2.7454,-2.7315,-2.7315,-2.7315,-2.7315,-2.7315,-2.6988,-2.6368,-2.5471,-2.4695,-2.3922,-2.3181,-2.3129,-2.3009,-2.2716,-2.2712,-2.2712,0.0,0.0,0.0,0.0,0.0,0.0,0.0,0.0,0.0,0.0,0.0,-2.2254,0.0,0.0,0.0,0.0,-2.1783,-2.1694,-2.162,-2.1449,0.0,0.0,0.0,0.0,0.0,0.0,0.0,-2.081,-2.0677,-2.0544,-2.051,-2.0407,-2.0321,-2.0287,-2.0287,-2.0287,-2.0287,0.0,-2.0252,-2.0133,-2.0063,-1.999,-1.9848,-1.9762,-1.9726,-1.9708,-1.9723,-1.9687,-1.9611,-1.9538,-1.9446,-1.9321,-1.9232,-1.9153,-1.9017,-1.8941,-1.8812,-1.8615,-1.8431,-1.8299,-1.8234,-1.8115,-1.7982,-4.115,-4.0912,-3.8562,-3.7515,-3.7309,-3.6466,-3.6046,-3.5985,-3.6019,-3.5887,-3.5671,-3.5617,-3.5445,-3.5204,-3.5204,0.0,0.0,-3.5013,-3.4871,-3.4706,-3.4706,-3.4319,-3.3617,-3.3582,-3.3231,-3.2581,-3.2529,-3.2424,-3.2301,-3.2232,-3.1795,-3.0993,-2.9465,-2.8638,-2.8471,-2.7763,-2.7384,-2.7385,-2.7333,-2.7315,-2.7282,-2.6575,-2.6161,-2.6077,-2.5454,-2.4712,-2.3939,-2.3888,-2.3543,-2.2836,-2.2785,-2.275,-2.2699,0.0,0.0,0.0,0.0,0.0,0.0,0.0,0.0,0.0,0.0,0.0,0.0,0.0,0.0,0.0,-2.1679,0.0,-2.1604,-2.1419,0.0,0.0,0.0,-2.1087,-2.1087,-2.0909,-2.081,-2.081,0.0,0.0,0.0,0.0,-2.0356,-2.0304,-2.0287,-2.0287,-2.0287,-2.0287,-2.027,-2.015,-2.0115,-2.0028,-1.9884,-1.983,-1.9762,-1.9726,-1.9723,-1.9687,-1.9629,-1.9593,-1.9505,-1.9358,-1.9306,-1.9246,-1.9055,-1.9012,-1.8936,-1.875,-1.8528,-1.8338,-1.8299,-1.8161,-1.8042,-4.1662,-4.1058,-4.0372,-3.9686,-3.8948,-3.8166,-3.7742,-3.7647,-3.7612,-3.7512,-3.7306,-3.6694,-3.5982,-3.5204,-3.5204,-3.5153,-3.5084,-3.5031,-3.4924,-3.4763,-3.4725,-3.46,-3.4424,-3.4407,-3.432,-3.4126,-3.3547,-3.3231,-3.316,-3.2617,-3.2196,-3.1847,-3.094,-3.0106,-2.9399,-2.8604,-2.8208,-2.8127,-2.7591,-2.7315,-2.7282,-2.7109,-2.6713,-2.6109,-2.5954,-2.5473,-2.4749,-2.4715,-2.4336,-2.3595,-2.3543,-2.3271,-2.2716,-2.2712,0.0,0.0,0.0,0.0,0.0,0.0,0.0,0.0,0.0,-2.2223,-2.1996,0.0,-2.194,0.0,-2.1679,-2.1604,-2.1604,-2.1419,0.0,0.0,-2.1183,-2.1087,-2.1087,-2.0924,-2.081,-2.081,-2.076,-2.0644,-2.051,-2.0426,-2.0356,-2.0304,-2.0287,-2.0287,-2.0287,-2.0287,-2.0287,-2.0237,-2.0168,-2.0083,-2.0013,-1.9904,-1.978,-1.9726,-1.9723,-1.969,-1.9672,-1.9632,-1.9589,-1.9538,-1.9395,-1.9269,-1.9228,-1.9093,-1.8993,-1.8936,-1.875,-1.8542,-1.8358,-1.8279,-1.8187,-4.2561,-4.2139,-4.1741,-4.1252,-4.0656,-3.9405,-3.8816,-3.8716,-3.8354,-3.8106,-3.7897,-3.7379,-3.6808,-3.6274,-3.6256,-3.6221,-3.6114,-3.6095,-3.5968,-3.5821,-3.58,-3.5569,-3.5197,-3.5197,-3.5021,-3.4688,-3.425,-3.3845,-3.3476,-3.309,-3.2704,-3.2284,-3.1864,-3.1375,-3.0785,-2.9655,-2.8894,-2.8517,-2.7741,-2.7313,-2.7315,-2.7315,-2.7075,-2.6645,-2.6644,-2.6281,-2.5523,-2.5488,-2.5143,-2.4388,-2.4336,-2.4146,-2.3764,-2.3733,-2.3715,0.0,0.0,0.0,0.0,0.0,0.0,0.0,0.0,0.0,0.0,0.0,-2.194,0.0,-2.1679,0.0,-2.1604,-2.1695,-2.1795,-2.1795,-2.1955,-2.2065,-2.2047,-2.188,-2.1762,-2.1744,-2.1692,-2.1638,-2.1536,-2.1198,-2.0891,-2.0806,-2.0489,-2.0287,-2.0287,-2.0287,-2.0287,-2.0287,-2.0235,-2.0168,-2.0118,-1.999,-1.9866,-1.9762,-1.9762,-1.9726,-1.9708,-1.9687,-1.9647,-1.9593,-1.9501,-1.9395,-1.9306,-1.9209,-1.9111,-1.9012,-1.8917,-1.875,-1.8509,-1.8378,-1.8246,-4.3606,-4.346,-4.2745,-4.2419,-4.2241,-4.0571,-3.9743,-3.953,-3.8807,-3.843,-3.829,-3.7972,-3.7828,-3.7756,-3.7648,-3.754,-3.7429,-3.7411,-3.7317,-3.7147,-3.711,-3.6717,-3.5969,-3.5971,-3.5618,-3.5022,-3.4881,-3.4477,-3.381,-3.3704,-3.3266,-3.2564,-3.2546,-3.2441,-3.2179,-3.0818,-2.9651,-2.8713,-2.794,-2.748,-2.7346,-2.7315,-2.7315,-2.7315,-2.7315,-2.6971,-2.6301,-2.6264,-2.5902,-2.5195,-2.5129,-2.5109,-2.5023,-2.5005,-2.5005,0.0,-2.5005,0.0,0.0,0.0,0.0,0.0,0.0,0.0,0.0,-2.2283,-2.221,-2.2109,-2.1974,-2.1899,-2.1883,-2.2281,-2.2556,-2.2539,-2.2989,-2.3274,-2.3218,-2.308,-2.2972,-2.2898,-2.2898,-2.2862,-2.2723,-2.218,-2.1715,-2.1543,-2.0928,-2.0505,-2.0443,-2.0364,-2.0287,-2.0287,-2.0287,-2.0252,-2.0118,-2.0061,-1.9988,-1.9866,-1.9833,-1.9797,-1.9726,-1.9708,-1.9705,-1.9647,-1.9608,-1.9538,-1.9358,-1.9339,-1.9261,-1.9074,-1.9031,-1.8941,-1.8736,-1.8528,-1.8358,-4.4191,-4.3497,-4.3331,-4.3224,-4.3082,-4.2115,-4.1226,-4.0434,-4.0165,-4.0022,-3.9878,-3.9049,-3.867,-3.858,-3.7917,-3.7594,-3.7558,-3.7448,-3.7374,-3.7354,-3.7279,-3.7095,-3.6858,-3.6858,-3.6749,-3.6533,-3.5881,-3.5511,-3.5354,-3.4758,-3.4073,-3.3318,-3.3301,-3.2967,-3.2371,0.0,0.0,0.0,-2.8557,-2.8141,-2.7485,-2.7407,-2.7376,-2.7376,-2.7313,0.0,-2.7075,-2.7075,-2.6713,-2.5954,-2.5887,0.0,0.0,0.0,0.0,0.0,0.0,0.0,0.0,0.0,0.0,0.0,-2.4282,-2.4039,-2.3946,-2.3775,-2.3681,-2.3586,-2.3489,-2.3408,-2.3325,-2.3357,-2.3337,-2.3302,-2.3312,-2.3274,-2.3218,-2.3096,-2.2957,-2.2898,-2.2898,-2.2893,-2.2868,-2.2642,-2.2507,-2.2294,-2.1647,-2.1208,-2.1106,-2.0626,-2.0302,-2.0287,-2.0287,-2.0252,-2.0133,-2.0083,-2.0078,-1.9973,-1.9955,-1.9902,-1.9815,-1.9795,-1.9762,-1.969,-1.9614,-1.9593,-1.9553,-1.9465,-1.9372,-1.9265,-1.9153,-1.904,-1.8817,-1.8697,-1.8595,-4.4629,0.0,-4.3697,-4.3498,0.0,-4.299,-4.25,-4.1956,-4.1015,-4.0528,-4.0366,-3.986,-3.9624,-3.957,-3.9064,-3.883,-3.8848,-3.8699,-3.8409,-3.7997,-3.7959,-3.7687,-3.7203,-3.7203,-3.7164,-3.7126,-3.668,-3.6237,-3.5886,-3.5444,-3.4846,-3.4108,-3.3704,-3.3301,-3.295,-3.2564,-3.1583,-2.991,-2.9491,-2.8901,-2.8122,-2.8074,-2.7851,-2.7454,0.0,0.0,0.0,0.0,0.0,0.0,0.0,0.0,0.0,0.0,0.0,-2.6126,-2.6143,-2.6111,-2.6098,-2.597,-2.586,-2.5799,-2.5672,-2.5222,-2.4371,-2.4161,-2.4065,-2.4,-2.3951,-2.3868,-2.3818,-2.3995,-2.4137,-2.4101,-2.4304,-2.4406,-2.4315,-2.4225,-2.4135,-2.402,-2.3983,-2.3964,-2.3885,-2.3513,-2.3265,-2.3123,-2.249,-2.1825,-2.1378,-2.0738,-2.0287,-2.0287,-2.0287,-2.0272,-2.0202,-2.0202,-2.015,-2.0078,-2.0061,-2.0008,-1.9919,-1.9848,-1.9795,-1.9762,-1.9705,-1.9632,-1.9611,-1.9538,-1.9468,-1.9376,-1.9302,-1.9195,-1.9064,-1.8874,-1.8721,-4.5197,-4.4849,-4.4081,-4.3643,-4.3479,-4.3446,-4.3394,-4.3303,0.0,0.0,0.0,-4.0673,-4.06,-4.0526,-4.0252,-4.0123,-4.0123,-3.9991,-3.9556,-3.8873,-3.8836,-3.837,-3.7546,-3.7528,-3.7457,-3.7314,-3.7203,-3.6828,-3.6246,-3.6098,-3.5655,-3.4953,-3.4249,-3.3774,-3.3477,-3.2757,-3.2038,-3.1339,-3.0552,-2.975,-2.8971,-2.8798,-2.8397,-2.7753,-2.7539,-2.7423,-2.7423,-2.7345,-2.7315,-2.7315,-2.7315,-2.7315,-2.7315,-2.7315,-2.7315,-2.7315,-2.7315,-2.7315,-2.7315,-2.7168,-2.7071,-2.6975,-2.6825,-2.6117,-2.4727,-2.4562,-2.4497,-2.4415,-2.4348,-2.4297,-2.4264,-2.4653,-2.4907,-2.4906,-2.5318,-2.5549,-2.54,-2.5397,-2.5256,-2.5166,-2.5047,-2.5072,-2.4946,-2.4421,-2.3978,-2.3896,-2.3321,-2.2464,-2.1577,-2.0773,-2.0287,-2.0287,-2.0287,-2.0287,-2.0287,-2.0287,-2.0252,-2.015,-2.015,-2.0115,-2.0043,-1.9937,-1.9851,-1.9848,-1.978,-1.9708,-1.965,-1.9629,-1.9574,-1.945,-1.9431,-1.9413,-1.9335,-1.9082,-1.8879,-4.6314,-4.4886,-4.474,-4.4228,-4.3479,-4.3497,-4.3464,-4.3376,-4.2941,-4.2667,-4.2501,-4.1775,-4.1412,-4.1375,-4.0616,-4.0291,-4.0254,-4.0123,-3.9995,0.0,-3.9791,-3.9266,-3.8441,-3.8423,-3.8011,-3.7332,-3.7278,-3.7225,-3.7117,-3.6969,-3.6543,-3.5872,-3.5586,-3.4811,-3.3565,-3.2774,-3.2353,-3.2195,-3.144,-3.0651,-2.9918,-2.9169,-2.8753,-2.8596,-2.7892,-2.7481,-2.7481,-2.7423,-2.7376,-2.7393,-2.7346,-2.7315,-2.7315,-2.7315,-2.7315,-2.7315,-2.7315,-2.7315,-2.7315,-2.7168,-2.7055,-2.6926,-2.6792,-2.6556,-2.6303,-2.6201,-2.6115,-2.5995,-2.5841,-2.5818,-2.573,-2.5743,-2.5686,-2.5558,-2.5635,-2.5607,-2.5435,-2.5416,-2.5359,-2.5278,-2.5166,-2.5091,-2.5072,-2.4914,-2.4721,-2.4575,-2.3974,-2.3117,-2.1916,-2.0841,-2.035,-2.0287,-2.0287,-2.0287,-2.0287,-2.0287,-2.0272,-2.0287,-2.027,-2.0235,-2.0115,-2.0048,-2.001,-1.999,-1.9884,-1.978,-1.9777,-1.9708,-1.965,-1.9593,-1.9574,-1.9538,-1.9428,-1.9284,-1.9172,-4.7122,-4.6277,-4.5306,-4.4648,-4.4228,-4.3716,-4.3463,-4.3394,-4.3305,-4.316,-4.2957,-4.2594,-4.2356,-4.2283,-4.1845,-4.1663,-4.1644,-4.1511,-4.122,-4.0807,-4.0693,-4.0224,-3.9469,-3.934,-3.8891,-3.814,-3.8031,-3.778,-3.7371,-3.726,-3.7008,-3.669,-3.619,-3.5095,-3.3582,-3.3178,-3.2792,-3.2406,-3.2037,-3.1475,-3.0703,-3.0302,-2.9707,-2.8884,-2.8421,-2.7991,-2.7574,-2.7498,-2.7436,-2.7409,-2.736,-2.7329,-2.7315,-2.7315,-2.7315,-2.7315,-2.7315,-2.7315,-2.7315,-2.7168,-2.7054,-2.6975,-2.6876,-2.6759,-2.664,-2.6589,-2.6486,-2.6313,-2.6259,-2.6206,-2.6115,-2.6045,-2.5956,-2.5866,-2.5828,-2.5735,-2.5605,-2.5567,-2.5511,-2.5394,-2.5317,-2.5262,-2.522,-2.5107,-2.5029,-2.4902,-2.4323,-2.35,-2.2838,-2.176,-2.0843,-2.0464,-2.0321,-2.0287,-2.0287,-2.0287,-2.0287,-2.0287,-2.0287,-2.0287,-2.0202,-2.0168,-2.0098,-2.0061,-1.9973,-1.9919,-1.9902,-1.9815,-1.9759,-1.9708,-1.9669,-1.9614,-1.9523,-1.9446,-1.9284,-4.7767,-4.7453,-4.6077,-4.527,-4.4831,-4.3915,-4.348,-4.3429,-4.3411,-4.3341,-4.3178,-4.3123,-4.3068,-4.2957,-4.2918,-4.286,-4.2859,-4.2707,-4.2307,-4.1748,-4.1634,-4.1145,-4.0428,-4.0279,-3.9847,-3.913,-3.8823,-3.8339,-3.775,-3.7461,-3.7333,-3.7208,-3.6461,-3.5381,-3.4093,-3.3881,-3.3407,-3.2739,-3.2669,-3.2265,-3.151,-3.1282,-3.0615,-2.9527,-2.9199,-2.873,-2.7932,-2.7834,-2.7687,-2.7471,-2.7405,-2.7392,-2.7313,-2.7313,-2.733,-2.7315,-2.7315,-2.7315,-2.7299,-2.7168,-2.7087,-2.7024,-2.6975,-2.6876,-2.6742,-2.6708,-2.6589,-2.6417,-2.6365,-2.6312,-2.6222,-2.6134,-2.6046,-2.601,-2.597,-2.5881,-2.5772,-2.5719,-2.5645,-2.5492,-2.5435,-2.5359,-2.5301,-2.5204,-2.5127,-2.5008,-2.4476,-2.4064,-2.3746,-2.2778,-2.1809,-2.0924,-2.0481,-2.0337,-2.0321,-2.0289,-2.0287,-2.0287,-2.0287,-2.0287,-2.0287,-2.0202,-2.0168,-2.015,-2.0078,-2.0025,-2.0008,-1.9937,-1.9866,-1.9848,-1.9795,-1.9705,-1.9611,-1.952,-1.9372,-4.8318,-4.7656,-4.7362,-4.6388,-4.4849,-4.3985,-4.3566,-4.3497,-4.3497,-4.3464,-4.3359,-4.3233,-4.3178,-4.3142,-4.3104,-4.3067,-4.3049,-4.2878,-4.2729,-4.2638,-4.2541,-4.205,-4.1332,-4.1258,-4.0807,-3.9978,-3.9297,-3.8883,-3.8556,-3.7768,-3.7354,-3.7227,-3.65,-3.604,-3.5756,-3.5047,-3.4323,-3.3582,-3.3459,-3.3038,-3.23,-3.1563,-3.1141,-3.0984,-3.0301,-2.9599,-2.8827,-2.8712,-2.8351,-2.7659,-2.7561,-2.7467,-2.7392,-2.7392,-2.7378,-2.7315,-2.7315,-2.7315,-2.7299,-2.7151,-2.7085,-2.7086,-2.704,-2.6958,-2.6876,-2.6859,-2.6792,-2.6606,-2.6503,-2.6416,-2.6295,-2.6278,-2.6207,-2.6046,-2.6026,-2.5956,-2.5881,-2.5772,-2.5684,-2.5682,-2.5513,-2.5378,-2.5413,-2.532,-2.5224,-2.5146,-2.4918,-2.4586,-2.4074,-2.367,-2.2982,-2.1847,-2.0959,-2.0467,-2.0404,-2.0321,-2.0321,-2.0304,-2.0287,-2.0304,-2.0304,-2.0287,-2.0287,-2.0235,-2.0168,-2.0098,-2.008,-2.0028,-2.0005,-1.9955,-1.9884,-1.9759,-1.9647,-1.9593,-1.9483,-4.8706,-4.8318,-4.7821,-4.657,-4.5009,-4.4549,-4.4074,-4.3566,-4.3548,-4.3532,-4.3464,-4.341,-4.3322,-4.3196,-4.316,-4.316,-4.316,-4.3049,-4.2992,-4.2936,-4.2803,-4.2545,-4.2257,-4.2143,-4.1672,-4.0898,-4.0539,-3.9854,-3.8848,-3.7933,-3.7448,-3.7355,-3.7017,-3.6609,-3.6129,-3.5738,-3.5207,-3.4482,-3.39,-3.3459,-3.3107,-3.2335,-3.1685,-3.1246,-3.0896,-3.0387,-2.972,-2.9583,-2.9183,-2.8402,-2.8283,-2.8012,-2.7485,-2.7423,-2.7393,-2.7345,-2.733,-2.7315,-2.7315,-2.7233,-2.7201,-2.7103,-2.707,-2.7023,-2.6958,-2.6926,-2.6859,-2.6759,-2.664,-2.6537,-2.6434,-2.6399,-2.6347,-2.6207,-2.6155,-2.6118,-2.5972,-2.5917,-2.5848,-2.5826,-2.568,-2.557,-2.5567,-2.5435,-2.5336,-2.522,-2.5143,-2.489,-2.4617,-2.4191,-2.3661,-2.3025,-2.1992,-2.1009,-2.0615,-2.0443,-2.0409,-2.0424,-2.0373,-2.0371,-2.0371,-2.0321,-2.0287,-2.0287,-2.0252,-2.0202,-2.0218,-2.0115,-2.0045,-2.0028,-1.999,-1.9866,-1.9741,-1.9705,-1.9632,-4.889,-4.8761,-4.7967,-4.6899,-4.5703,-4.5445,-4.484,-4.4054,-4.3982,-4.3838,-4.3601,-4.3549,-4.3463,-4.3322,-4.3269,-4.3251,-4.3251,-4.3178,-4.3141,-4.3105,-4.2974,-4.2899,-4.2878,-4.2783,-4.2419,-4.184,-4.1533,-4.0686,-3.9299,-3.8401,-3.7916,-3.7806,-3.7573,-3.7127,-3.6575,-3.6485,-3.6094,-3.5368,-3.4677,-3.4147,-3.3705,-3.3107,-3.2369,-3.1633,-3.1545,-3.1177,-3.044,-3.0404,-3.002,-2.9218,-2.915,-2.8856,-2.8204,-2.7917,-2.7679,-2.7426,-2.7362,-2.7313,-2.7315,-2.7315,-2.7266,-2.7168,-2.7168,-2.712,-2.7056,-2.6991,-2.6942,-2.6926,-2.6792,-2.6657,-2.6537,-2.652,-2.6468,-2.6365,-2.6348,-2.626,-2.61,-2.6064,-2.6043,-2.5936,-2.5809,-2.5738,-2.5698,-2.5567,-2.5413,-2.5317,-2.5224,-2.5146,-2.5114,-2.4659,-2.4236,-2.3977,-2.2986,-2.2014,-2.1063,-2.0604,-2.0557,-2.0494,-2.0458,-2.0424,-2.0423,-2.0356,-2.0321,-2.0354,-2.0304,-2.0287,-2.027,-2.0185,-2.01,-2.0083,-2.0045,-1.9973,-1.9866,-1.9815,-1.9759,-4.889,-4.8779,-4.8019,-4.7613,-4.7416,-4.6601,-4.5737,-4.4932,-4.4914,-4.4507,-4.3863,-4.3669,-4.36,-4.3565,-4.3464,-4.3376,-4.3376,-4.3251,-4.3196,-4.3196,-4.3178,-4.3142,-4.3086,-4.3086,-4.2937,-4.2604,-4.2008,-4.1194,-4.0219,-3.9299,-3.885,-3.876,-3.8042,-3.7577,-3.7451,-3.7324,-3.6985,-3.6274,-3.5953,-3.5279,-3.4039,-3.3792,-3.3246,-3.244,-3.2318,-3.1932,-3.1265,-3.1142,-3.0808,-3.0072,-3.0037,-2.9953,-2.9697,-2.9103,-2.8361,-2.7613,-2.7461,-2.7412,-2.7417,-2.7453,-2.742,-2.7368,-2.7438,-2.7268,-2.7239,-2.7207,-2.7124,-2.7008,-2.6926,-2.6792,-2.6657,-2.6589,-2.6571,-2.6502,-2.6485,-2.6416,-2.6295,-2.6222,-2.6133,-2.6026,-2.5936,-2.5828,-2.5719,-2.564,-2.5527,-2.5416,-2.5336,-2.5294,-2.5278,-2.5195,-2.4869,-2.4363,-2.3893,-2.3425,-2.1982,-2.1175,-2.0716,-2.0527,-2.0544,-2.0494,-2.046,-2.0441,-2.0407,-2.0388,-2.0356,-2.0321,-2.0304,-2.027,-2.0202,-2.0152,-2.0133,-2.0063,-1.9973,-1.9884,-1.9812,-4.889,-4.8872,-4.8593,-4.8167,-4.7632,-4.7316,-4.6672,-4.5791,-4.5292,-4.4888,-4.4506,-4.3976,-4.3736,-4.3719,-4.3688,-4.3603,-4.3464,-4.3376,-4.3323,-4.3304,-4.3233,-4.3196,-4.3178,-4.3178,-4.3105,-4.2957,-4.2702,-4.2066,-4.1123,-4.0237,-3.9516,-3.9049,-3.8635,-3.8204,-3.7757,-3.7577,-3.738,-3.7094,-3.6559,-3.5936,-3.5315,-3.4357,-3.3615,-3.3282,-3.2737,-3.2316,-3.1967,-3.1967,-3.1616,-3.0843,-3.0808,-3.0564,-3.0058,-2.9694,-2.9368,-2.901,-2.8943,-2.8893,-2.8846,-2.883,-2.8779,-2.8713,-2.8713,-2.8421,-2.8043,-2.7873,-2.7652,-2.7226,-2.7007,-2.6909,-2.6859,-2.6759,-2.664,-2.6572,-2.6571,-2.652,-2.6451,-2.6381,-2.6329,-2.6189,-2.6081,-2.5936,-2.5844,-2.5733,-2.5642,-2.557,-2.5454,-2.5394,-2.5355,-2.5352,-2.5166,-2.4872,-2.4454,-2.3954,-2.346,-2.2149,-2.1324,-2.0867,-2.0677,-2.066,-2.0609,-2.0526,-2.0492,-2.0475,-2.0426,-2.0407,-2.039,-2.0321,-2.0254,-2.0254,-2.0202,-2.015,-2.008,-1.9993,-1.9922,-4.889,-4.889,-4.889,-4.8593,-4.811,-4.8091,-4.7575,-4.6745,-4.617,-4.5749,-4.5366,-4.4593,-4.4206,-4.4169,-4.3933,-4.3738,-4.3583,-4.348,-4.3464,-4.3429,-4.334,-4.3286,-4.3269,-4.3251,-4.3196,-4.3123,-4.3104,-4.2722,-4.2048,-4.1159,-4.0436,-3.995,-3.9318,-3.8707,-3.8187,-3.7846,-3.7667,-3.7524,-3.7023,-3.6649,-3.6239,-3.5243,-3.4356,-3.3843,-3.3244,-3.2787,-3.2474,-3.2457,-3.2211,-3.1702,-3.1597,-3.1247,-3.0546,-3.0373,-3.0168,-2.9893,-2.9824,-2.9809,-2.9743,-2.9726,-2.9676,-2.9608,-2.9557,-2.9316,-2.8866,-2.8748,-2.8405,-2.7994,-2.7808,-2.7775,-2.7673,-2.7419,-2.7029,-2.6776,-2.6657,-2.6606,-2.6554,-2.652,-2.6434,-2.6295,-2.6189,-2.6046,-2.5954,-2.5864,-2.5809,-2.5775,-2.5659,-2.5549,-2.5492,-2.5454,-2.5394,-2.5339,-2.4935,-2.4495,-2.4053,-2.3151,-2.2141,-2.1616,-2.125,-2.1106,-2.0804,-2.069,-2.0577,-2.0561,-2.0527,-2.0492,-2.0441,-2.0388,-2.0354,-2.0339,-2.0287,-2.0235,-2.0168,-2.0133,-2.0045,-4.889,-4.889,-4.889,-4.8872,-4.8779,-4.8779,-4.8407,-4.7757,-4.759,-4.7072,-4.6387,-4.5523,-4.5064,-4.4899,-4.4295,-4.3859,-4.3771,-4.3651,-4.3565,-4.3496,-4.3497,-4.3445,-4.3412,-4.3394,-4.3323,-4.3214,-4.3123,-4.3086,-4.2941,-4.2084,-4.1539,-4.125,-3.9986,-3.9247,-3.9049,-3.8331,-3.7882,-3.7721,-3.7596,-3.7256,-3.6542,-3.6274,-3.5526,-3.4248,-3.3911,-3.3469,-3.2694,-3.2558,-3.2472,-3.2437,-3.2352,-3.1984,-3.1335,-3.1212,-3.0846,-3.0254,-3.0029,-2.9944,-2.993,-2.9966,-3.0053,-3.0037,-2.9865,-2.9901,-2.9711,-2.9592,-2.9437,-2.9248,-2.9214,-2.9265,-2.9076,-2.8545,-2.7794,-2.7045,-2.6843,-2.6691,-2.6623,-2.6606,-2.6537,-2.6382,-2.6295,-2.6224,-2.6064,-2.5992,-2.5972,-2.5899,-2.5862,-2.5807,-2.5698,-2.5663,-2.5607,-2.5473,-2.5271,-2.5013,-2.4585,-2.4113,-2.3203,-2.2431,-2.2077,-2.179,-2.1283,-2.1027,-2.0835,-2.0787,-2.0594,-2.056,-2.0543,-2.0475,-2.0423,-2.0405,-2.0356,-2.0321,-2.027,-2.022,-2.0133,-4.889,-4.889,-4.889,-4.889,-4.889,-4.889,-4.8742,-4.8463,-4.7961,-4.7553,-4.72,-4.6424,-4.5793,-4.5291,-4.4925,-4.4469,-4.3886,-4.3816,-4.3716,-4.3582,-4.3565,-4.3531,-4.348,-4.3463,-4.3429,-4.334,-4.3214,-4.3178,-4.3105,-4.2777,-4.2377,-4.1742,-4.1161,-4.0221,-3.9265,-3.887,-3.8492,-3.7882,-3.7828,-3.7702,-3.738,-3.6844,-3.6254,-3.5719,-3.4669,-3.3888,-3.3622,-3.2957,-3.259,-3.2573,-3.2489,-3.2334,-3.2072,-3.2019,-3.1897,-3.167,-3.1635,-3.1566,-3.148,-3.1411,-3.1359,-3.1377,-3.1342,-3.1046,-3.0594,-3.0456,-3.0179,-2.9764,-2.9541,-2.9472,-2.9403,-2.9197,-2.8648,-2.7811,-2.7198,-2.6843,-2.6775,-2.6674,-2.6606,-2.652,-2.6468,-2.6381,-2.6259,-2.617,-2.6097,-2.6008,-2.5954,-2.5881,-2.5844,-2.5828,-2.5791,-2.5626,-2.5575,-2.5484,-2.5118,-2.4804,-2.428,-2.3483,-2.3012,-2.2448,-2.1907,-2.1539,-2.1315,-2.1012,-2.0834,-2.0674,-2.0642,-2.0577,-2.0509,-2.0458,-2.0424,-2.039,-2.0371,-2.0304,-2.022,-4.889,-4.889,-4.889,-4.889,-4.889,-4.889,-4.889,-4.8834,-4.8389,-4.8166,-4.798,-4.7311,-4.668,-4.6122,-4.5602,-4.4976,-4.4408,-4.4112,-4.3846,-4.3734,-4.3684,-4.3669,-4.3618,-4.3548,-4.3479,-4.341,-4.3323,-4.3269,-4.3269,-4.3178,-4.2887,-4.2414,-4.1941,-4.1252,-4.0166,-3.9517,-3.8887,-3.8419,-3.8095,-3.7916,-3.7791,-3.7379,-3.695,-3.6538,-3.5608,-3.4788,-3.4183,-3.3495,-3.3039,-3.2726,-3.259,-3.2506,-3.2473,-3.2473,-3.2474,-3.244,-3.2422,-3.237,-3.2284,-3.2179,-3.2267,-3.2214,-3.2161,-3.1952,-3.1481,-3.1324,-3.1046,-3.0664,-3.0491,-3.0404,-3.0369,-3.0058,-2.9644,-2.9128,-2.8032,-2.7283,-2.7011,-2.6809,-2.6691,-2.6623,-2.6571,-2.6486,-2.6399,-2.6329,-2.624,-2.6152,-2.6064,-2.599,-2.5972,-2.5936,-2.5864,-2.5809,-2.5756,-2.5682,-2.5605,-2.5435,-2.5285,-2.4643,-2.4005,-2.3309,-2.2616,-2.2369,-2.2142,-2.1616,-2.1327,-2.1011,-2.0931,-2.0707,-2.0594,-2.0543,-2.0509,-2.0441,-2.039,-2.0388,-2.0304,-4.8946,-4.8909,-4.889,-4.889,-4.889,-4.889,-4.889,-4.889,-4.8853,-4.8834,-4.8649,-4.8073,-4.7683,-4.7311,-4.6215,-4.5528,-4.5157,-4.4528,-4.4069,-4.3934,-4.3851,-4.3786,-4.3753,-4.3634,-4.3548,-4.3515,-4.3429,-4.3412,-4.3394,-4.3287,-4.3196,-4.3051,-4.2414,-4.1923,-4.1433,-4.0273,-3.9424,-3.9065,-3.8397,-3.8003,-3.7934,-3.7862,-3.7539,-3.6856,-3.6605,-3.5889,-3.4781,-3.4246,-3.3664,-3.293,-3.2673,-3.2606,-3.2606,-3.2588,-3.2574,-3.2524,-3.2524,-3.2473,-3.244,-3.2405,-3.2388,-3.2371,-3.2284,-3.2214,-3.2092,-3.1987,-3.1916,-3.1829,-3.1758,-3.1774,-3.1617,-3.12,-3.0732,-3.0472,-2.8973,-2.7827,-2.7113,-2.6977,-2.6826,-2.6691,-2.6606,-2.6572,-2.652,-2.6485,-2.6416,-2.6347,-2.6295,-2.6224,-2.6117,-2.6028,-2.599,-2.5936,-2.5883,-2.5844,-2.5752,-2.5698,-2.5564,-2.5332,-2.4751,-2.4142,-2.3376,-2.308,-2.2768,-2.2255,-2.1902,-2.157,-2.1236,-2.1073,-2.082,-2.0693,-2.0626,-2.0509,-2.0458,-2.0457,-2.0405,-4.9429,-4.8909,-4.889,-4.889,-4.889,-4.889,-4.889,-4.889,-4.889,-4.889,-4.8834,-4.8686,-4.8221,-4.7664,-4.7256,-4.6457,-4.5528,-4.5045,-4.4544,-4.4048,-4.3961,-4.3881,-4.3804,-4.3667,-4.3599,-4.3565,-4.3515,-4.3481,-4.3463,-4.3375,-4.334,-4.334,-4.2996,-4.2541,-4.1885,-4.0939,-4.0087,-3.9401,-3.864,-3.8191,-3.8105,-3.8019,-3.7877,-3.7661,-3.7052,-3.6532,-3.5906,-3.4882,-3.3818,-3.291,-3.2773,-3.2706,-3.2639,-3.2605,-3.2606,-3.2589,-3.259,-3.2556,-3.254,-3.2507,-3.2473,-3.2474,-3.2388,-3.2354,-3.2336,-3.2249,-3.2196,-3.2161,-3.2108,-3.2037,-3.202,-3.1846,-3.1445,-3.0698,-2.9386,-2.8219,-2.7759,-2.7299,-2.6925,-2.6826,-2.6809,-2.6725,-2.6623,-2.6572,-2.6554,-2.6468,-2.6434,-2.6399,-2.6259,-2.6224,-2.617,-2.6028,-2.5956,-2.5936,-2.5915,-2.5879,-2.5844,-2.5793,-2.5422,-2.5001,-2.4227,-2.3619,-2.3225,-2.2754,-2.2736,-2.2498,-2.2016,-2.1678,-2.1346,-2.1061,-2.0835,-2.0782,-2.0624,-2.0575,-2.0458,-4.9633,-4.889,-4.889,-4.889,-4.889,-4.889,-4.889,-4.889,-4.889,-4.889,-4.889,-4.889,-4.8649,-4.8221,-4.7831,-4.7218,-4.6308,-4.5584,-4.5008,-4.4581,-4.4191,-4.3945,-4.3832,-4.3751,-4.3718,-4.3667,-4.3583,-4.3549,-4.3532,-4.3463,-4.3428,-4.341,-4.334,-4.3049,-4.2629,-4.1718,-4.0883,-4.0065,-3.9266,-3.8685,-3.829,-3.8203,-3.8154,-3.8066,-3.7565,-3.7152,-3.6274,-3.4984,-3.3864,-3.3144,-3.2902,-3.2836,-3.277,-3.2737,-3.2722,-3.2688,-3.269,-3.2673,-3.2606,-3.2556,-3.2522,-3.254,-3.2507,-3.2473,-3.244,-3.2371,-3.2336,-3.2301,-3.2196,-3.2161,-3.2126,-3.2108,-3.1864,-3.1359,-3.0145,-2.9059,-2.8339,-2.7826,-2.7382,-2.7112,-2.6942,-2.6876,-2.6742,-2.6742,-2.6657,-2.6572,-2.652,-2.6468,-2.6399,-2.6399,-2.6364,-2.6224,-2.6118,-2.6117,-2.6063,-2.6026,-2.5952,-2.5917,-2.5813,-2.5456,-2.4982,-2.4273,-2.3971,-2.3674,-2.3592,-2.3333,-2.2768,-2.2302,-2.2014,-2.1695,-2.1359,-2.1026,-2.0883,-2.0661,-2.056,-4.969,-4.889,-4.889,-4.889,-4.889,-4.889,-4.889,-4.889,-4.889,-4.889,-4.889,-4.889,-4.8853,-4.8853,-4.8203,-4.7757,-4.7534,-4.6308,-4.5565,-4.5082,-4.4581,-4.4143,-4.3913,-4.3883,-4.3851,-4.3767,-4.3684,-4.3634,-4.3617,-4.3566,-4.3513,-4.3479,-4.3446,-4.3411,-4.3082,-4.2409,-4.1663,-4.0916,-3.9967,-3.9221,-3.8694,-3.846,-3.8336,-3.8271,-3.8218,-3.7408,-3.626,-3.5153,-3.4299,-3.3296,-3.3111,-3.2995,-3.2979,-3.2948,-3.29,-3.2854,-3.282,-3.2771,-3.2672,-3.2655,-3.2622,-3.2622,-3.2606,-3.2573,-3.2506,-3.2489,-3.2473,-3.2405,-3.2301,-3.2267,-3.2232,-3.2161,-3.2073,-3.1864,-3.1272,-3.0231,-2.9024,-2.8492,-2.8098,-2.7313,-2.7161,-2.7094,-2.6959,-2.6893,-2.6826,-2.6708,-2.6657,-2.6606,-2.6537,-2.6486,-2.6468,-2.6416,-2.6347,-2.6313,-2.6242,-2.6154,-2.6081,-2.6008,-2.5954,-2.573,-2.5545,-2.5058,-2.4852,-2.4649,-2.442,-2.398,-2.3349,-2.2978,-2.2752,-2.2288,-2.1889,-2.1474,-2.109,-2.0822,-2.0661,-5.0246,-4.889,-4.889,-4.889,-4.889,-4.889,-4.889,-4.8909,-4.889,-4.889,-4.889,-4.889,-4.889,-4.889,-4.8649,-4.8333,-4.7794,-4.7181,-4.6587,-4.5305,-4.5157,-4.4581,-4.4125,-4.3966,-4.3915,-4.3849,-4.3802,-4.3753,-4.3736,-4.3719,-4.3686,-4.3582,-4.3566,-4.3532,-4.3352,-4.2749,-4.2165,-4.1693,-4.0542,-3.9725,-3.9272,-3.8743,-3.8471,-3.8385,-3.8366,-3.7845,-3.7055,-3.6608,-3.5781,-3.4527,-3.3592,-3.3191,-3.3088,-3.3073,-3.3042,-3.3011,-3.2979,-3.295,-3.29,-3.282,-3.2756,-3.2756,-3.2672,-3.2589,-3.2589,-3.2573,-3.2557,-3.2489,-3.2456,-3.2405,-3.2336,-3.2249,-3.2214,-3.2109,-3.1899,-3.1376,-3.0473,-2.9678,-2.8921,-2.8286,-2.7961,-2.7757,-2.711,-2.7009,-2.6942,-2.6859,-2.6809,-2.6759,-2.6674,-2.6589,-2.6555,-2.6555,-2.6486,-2.6417,-2.6399,-2.6312,-2.6206,-2.6117,-2.6046,-2.5954,-2.5772,-2.5645,-2.5343,-2.525,-2.5185,-2.4647,-2.4049,-2.39,-2.3722,-2.3096,-2.2485,-2.2148,-2.1763,-2.1301,-2.0919,-5.0518,-4.9083,-4.9046,-4.9046,-4.9029,-4.9013,-4.8979,-4.8979,-4.8926,-4.889,-4.889,-4.889,-4.889,-4.889,-4.889,-4.863,-4.824,-4.7831,-4.7033,-4.5974,-4.5528,-4.5045,-4.4618,-4.4162,-4.3961,-4.3945,-4.3865,-4.3851,-4.3835,-4.382,-4.3753,-4.3684,-4.3684,-4.3686,-4.3617,-4.3142,-4.2722,-4.2231,-4.1466,-4.0628,-3.9772,-3.9369,-3.8789,-3.8519,-3.8378,-3.7984,-3.7207,-3.7135,-3.6448,-3.5384,-3.4401,-3.3644,-3.3252,-3.3135,-3.3119,-3.3104,-3.307,-3.3039,-3.3008,-3.2979,-3.2916,-3.2902,-3.282,-3.2771,-3.2722,-3.269,-3.2657,-3.2574,-3.254,-3.2523,-3.2456,-3.2405,-3.2336,-3.2284,-3.2197,-3.1934,-3.1464,-3.0682,-2.9816,-2.9092,-2.8576,-2.8199,-2.7755,-2.7397,-2.7024,-2.6959,-2.6942,-2.6876,-2.6809,-2.6742,-2.6674,-2.664,-2.6572,-2.652,-2.652,-2.6434,-2.6329,-2.6242,-2.6189,-2.6064,-2.5936,-2.5846,-2.574,-2.5629,-2.5497,-2.5357,-2.4866,-2.4783,-2.4505,-2.3887,-2.3339,-2.2954,-2.2504,-2.1989,-2.1637,-5.0654,-4.9197,-4.9197,-4.9197,-4.9179,-4.9133,-4.9118,-4.9083,-4.8978,-4.8959,-4.896,-4.8943,-4.8959,-4.896,-4.8942,-4.8943,-4.8722,-4.8277,-4.7478,-4.6698,-4.6178,-4.5788,-4.5379,-4.4766,-4.4305,-4.4175,-4.4,-4.3931,-4.3915,-4.3851,-4.3835,-4.382,-4.382,-4.3804,-4.3753,-4.3666,-4.3284,-4.2732,-4.2314,-4.1658,-4.0503,-4.0081,-3.9373,-3.8672,-3.8494,-3.8175,-3.7648,-3.745,-3.7033,-3.6213,-3.5535,-3.4633,-3.3758,-3.3262,-3.3147,-3.3165,-3.315,-3.315,-3.3135,-3.3104,-3.3039,-3.2993,-3.3011,-3.2965,-3.287,-3.2821,-3.2773,-3.2673,-3.2606,-3.259,-3.2523,-3.2489,-3.249,-3.2422,-3.2319,-3.2249,-3.2109,-3.1481,-3.0751,-2.9971,-2.9469,-2.9056,-2.8369,-2.782,-2.7412,-2.7073,-2.7058,-2.6991,-2.6925,-2.6876,-2.6809,-2.6759,-2.6708,-2.6606,-2.6572,-2.6555,-2.6434,-2.6365,-2.6295,-2.6207,-2.6117,-2.6046,-2.5957,-2.5809,-2.5682,-2.554,-2.5468,-2.5285,-2.4954,-2.4507,-2.4118,-2.3667,-2.3183,-2.2682,-2.2391,-5.0654,-4.9197,-4.9197,-4.9197,-4.9214,-4.9197,-4.9181,-4.9181,-4.9146,-4.9146,-4.9129,-4.9129,-4.9129,-4.9129,-4.9146,-4.9115,-4.8991,-4.868,-4.8255,-4.7607,-4.7198,-4.6882,-4.6213,-4.5488,-4.5082,-4.4878,-4.4472,-4.4085,-4.3992,-4.3958,-4.3929,-4.3899,-4.3899,-4.3867,-4.382,-4.3771,-4.3697,-4.3347,-4.2924,-4.2302,-4.1682,-4.0562,-3.9556,-3.8781,-3.8658,-3.8483,-3.8327,-3.822,-3.7896,-3.7088,-3.6869,-3.5979,-3.4844,-3.3971,-3.3567,-3.3349,-3.3304,-3.3274,-3.3259,-3.3165,-3.3117,-3.3086,-3.3086,-3.3057,-3.2997,-3.2965,-3.2902,-3.2805,-3.2672,-3.2606,-3.2589,-3.2607,-3.2573,-3.2539,-3.2489,-3.2422,-3.237,-3.2091,-3.1585,-3.0854,-3.0437,-3.0004,-2.9244,-2.8503,-2.8023,-2.7648,-2.7444,-2.7208,-2.7007,-2.6975,-2.6942,-2.6892,-2.6859,-2.6725,-2.6623,-2.6606,-2.6555,-2.6486,-2.6434,-2.6382,-2.6294,-2.626,-2.6155,-2.6045,-2.5899,-2.5772,-2.5701,-2.5661,-2.5473,-2.5107,-2.4731,-2.4354,-2.3996,-2.3588,-2.3133,-5.0448,-4.938,-4.9345,-4.9361,-4.9327,-4.9276,-4.9244,-4.9244,-4.9211,-4.9197,-4.9197,-4.9197,-4.9197,-4.9197,-4.9197,-4.9181,-4.9131,-4.9098,-4.8839,-4.8431,-4.7988,-4.7601,-4.7099,-4.6322,-4.5711,-4.5305,-4.4841,-4.4376,-4.4042,-4.3989,-4.3974,-4.3976,-4.3961,-4.3945,-4.3915,-4.3883,-4.3869,-4.374,-4.3412,-4.2955,-4.2426,-4.0914,-3.9706,-3.9065,-3.878,-3.8716,-3.8667,-3.8606,-3.841,-3.7976,-3.7574,-3.6939,-3.6142,-3.5294,-3.4433,-3.376,-3.3502,-3.3455,-3.3426,-3.3331,-3.3268,-3.3214,-3.3214,-3.315,-3.3088,-3.3024,-3.2995,-3.2934,-3.2868,-3.2787,-3.2722,-3.2706,-3.2655,-3.2606,-3.2556,-3.2574,-3.254,-3.2473,-3.2106,-3.1618,-3.1079,-3.0575,-3.0125,-2.9432,-2.8757,-2.8293,-2.79,-2.7562,-2.7226,-2.7158,-2.7193,-2.6975,-2.6942,-2.6876,-2.6776,-2.6725,-2.6674,-2.6606,-2.6571,-2.6503,-2.6451,-2.6399,-2.6365,-2.6276,-2.6151,-2.5972,-2.5862,-2.5789,-2.5733,-2.5677,-2.5332,-2.5001,-2.4832,-2.4501,-2.401,-5.0222,-4.9509,-4.9509,-4.9509,-4.9493,-4.9409,-4.9358,-4.9343,-4.9295,-4.9262,-4.9262,-4.9262,-4.9262,-4.9262,-4.9228,-4.9211,-4.9211,-4.9195,-4.9141,-4.8994,-4.8497,-4.8093,-4.7853,-4.7225,-4.6557,-4.6182,-4.5353,-4.4875,-4.4153,-4.4005,-4.4005,-4.3989,-4.4005,-4.4005,-4.3992,-4.3945,-4.3929,-4.3897,-4.3865,-4.3444,-4.2448,-4.116,-3.9944,-3.9187,-3.8925,-3.8822,-3.8788,-3.8762,-3.875,-3.8514,-3.8132,-3.7658,-3.7359,-3.6761,-3.5692,-3.4428,-3.3998,-3.3832,-3.3771,-3.3524,-3.3448,-3.3378,-3.3352,-3.3274,-3.318,-3.3117,-3.3073,-3.3042,-3.3011,-3.2948,-3.2852,-3.2838,-3.2771,-3.2722,-3.2673,-3.2657,-3.2639,-3.2589,-3.2539,-3.2069,-3.1583,-3.1148,-3.0695,-3.0366,-2.9706,-2.9118,-2.8723,-2.8242,-2.7937,-2.7663,-2.7546,-2.7175,-2.7007,-2.6975,-2.6926,-2.6893,-2.6809,-2.6725,-2.6691,-2.6657,-2.6589,-2.652,-2.6485,-2.6416,-2.6329,-2.6169,-2.6043,-2.5934,-2.5862,-2.5807,-2.5738,-2.5603,-2.5371,-2.5132,-2.4784,-5.0241,-4.9509,-4.9509,-4.9509,-4.9509,-4.9474,-4.9474,-4.9474,-4.9459,-4.9478,-4.9443,-4.9459,-4.9443,-4.9427,-4.9324,-4.9292,-4.9276,-4.9244,-4.923,-4.9174,-4.8992,-4.8882,-4.8861,-4.8207,-4.769,-4.7173,-4.61,-4.4938,-4.4296,-4.4113,-4.4005,-4.4005,-4.4005,-4.4005,-4.4005,-4.3974,-4.3971,-4.3989,-4.3974,-4.3553,-4.2674,-4.1669,-4.0824,-3.9978,-3.9372,-3.8932,-3.8914,-3.8866,-3.8866,-3.8833,-3.873,-3.8276,-3.7695,-3.747,-3.689,-3.6007,-3.5239,-3.4626,-3.4572,-3.4207,-3.3868,-3.3866,-3.3731,-3.3491,-3.3439,-3.3244,-3.3132,-3.3068,-3.3086,-3.3057,-3.2979,-3.2981,-3.2932,-3.2868,-3.2821,-3.2805,-3.2773,-3.2705,-3.2655,-3.2606,-3.2136,-3.1685,-3.1268,-3.099,-3.066,-3.0087,-2.9532,-2.9067,-2.8671,-2.8414,-2.7968,-2.7614,-2.7362,-2.7313,-2.7007,-2.6991,-2.6959,-2.6859,-2.6826,-2.6792,-2.6708,-2.664,-2.6571,-2.6503,-2.6416,-2.6363,-2.624,-2.6115,-2.599,-2.5917,-2.5864,-2.5881,-2.5864,-2.5623,-2.5366,-4.9901,-4.9509,-4.9509,-4.9509,-4.9509,-4.9509,-4.9509,-4.9509,-4.9509,-4.9509,-4.9509,-4.9509,-4.9509,-4.9474,-4.9424,-4.9424,-4.9409,-4.9377,-4.9361,-4.9345,-4.9295,-4.926,-4.9169,-4.8837,-4.8541,-4.7906,-4.7183,-4.62,-4.5205,-4.4312,-4.4005,-4.4005,-4.4005,-4.4005,-4.4023,-4.4005,-4.4005,-4.4005,-4.3934,-4.3562,-4.2863,-4.2294,-4.1541,-4.0355,-3.9867,-3.9431,-3.9079,-3.8906,-3.891,-3.8877,-3.8848,-3.8737,-3.8409,-3.8302,-3.8085,-3.7812,-3.6916,-3.6172,-3.5605,-3.5192,-3.4962,-3.4933,-3.4852,-3.4753,-3.4228,-3.3647,-3.3289,-3.3196,-3.3214,-3.3168,-3.307,-3.3057,-3.3057,-3.3011,-3.295,-3.2934,-3.2902,-3.282,-3.277,-3.2739,-3.2672,-3.2238,-3.1892,-3.1771,-3.1441,-3.0851,-3.0415,-3.0052,-2.962,-2.9259,-2.8708,-2.8089,-2.7887,-2.772,-2.731,-2.7071,-2.7075,-2.7009,-2.6925,-2.6909,-2.6843,-2.6759,-2.6691,-2.664,-2.6555,-2.6486,-2.6416,-2.6293,-2.617,-2.6081,-2.599,-2.599,-2.5972,-2.5881,-2.564,-4.9638,-4.9551,-4.9551,-4.9551,-4.9551,-4.9551,-4.9551,-4.9551,-4.9551,-4.9551,-4.9539,-4.9524,-4.9509,-4.9509,-4.9509,-4.9474,-4.949,-4.9509,-4.9509,-4.9474,-4.9424,-4.9358,-4.9324,-4.9198,-4.8942,-4.8343,-4.7991,-4.7264,-4.6228,-4.5127,-4.438,-4.4085,-4.4116,-4.4085,-4.407,-4.4055,-4.4036,-4.4005,-4.4005,-4.3708,-4.3209,-4.289,-4.2095,-4.1241,-4.0525,-3.9981,-3.9429,-3.9048,-3.8983,-3.8964,-3.8921,-3.8884,-3.8814,-3.8762,-3.8748,-3.8549,-3.7993,-3.7548,-3.689,-3.6424,-3.6204,-3.6069,-3.6006,-3.5571,-3.5078,-3.4302,-3.3786,-3.3762,-3.3421,-3.3325,-3.3198,-3.315,-3.3119,-3.3088,-3.3042,-3.3026,-3.3011,-3.2948,-3.2882,-3.2868,-3.2838,-3.2789,-3.2549,-3.2519,-3.219,-3.1634,-3.1269,-3.0972,-3.0538,-3.0037,-2.9483,-2.8843,-2.8709,-2.854,-2.8231,-2.7803,-2.76,-2.7226,-2.7176,-2.6991,-2.6909,-2.6909,-2.6876,-2.6792,-2.6708,-2.6674,-2.664,-2.6486,-2.6329,-2.6276,-2.6205,-2.6099,-2.6045,-2.5972,-2.5881,-4.9692,-4.9678,-4.9697,-4.9697,-4.9682,-4.9697,-4.9678,-4.9682,-4.9682,-4.9634,-4.9574,-4.9517,-4.9524,-4.9505,-4.9521,-4.9521,-4.949,-4.949,-4.9505,-4.9524,-4.9493,-4.9474,-4.944,-4.9406,-4.9387,-4.9162,-4.8665,-4.8166,-4.7476,-4.6049,-4.5107,-4.4382,-4.4296,-4.4244,-4.4214,-4.4165,-4.4116,-4.407,-4.4036,-4.402,-4.3667,-4.3314,-4.2738,-4.2277,-4.1219,-4.0346,-4.0253,-3.9593,-3.9115,-3.9096,-3.9021,-3.8993,-3.8979,-3.895,-3.8954,-3.8847,-3.8777,-3.8456,-3.8118,-3.7275,-3.6486,-3.6311,-3.6249,-3.6211,-3.5918,-3.5173,-3.4746,-3.4527,-3.408,-3.3622,-3.346,-3.3277,-3.3244,-3.3196,-3.3147,-3.3119,-3.3104,-3.3073,-3.3026,-3.2995,-3.2965,-3.2884,-3.2854,-3.2755,-3.2623,-3.2085,-3.1966,-3.1686,-3.1182,-3.0695,-3.0191,-2.9741,-2.9657,-2.9538,-2.9417,-2.9021,-2.8402,-2.7888,-2.765,-2.7311,-2.7007,-2.6991,-2.6991,-2.6942,-2.6859,-2.6859,-2.6859,-2.6674,-2.6537,-2.6485,-2.6398,-2.6276,-2.6169,-2.6097,-2.6007,-4.9939,-4.9939,-4.9917,-4.9802,-4.9711,-4.9711,-4.9711,-4.9711,-4.9711,-4.9678,-4.9648,-4.9638,-4.9623,-4.9623,-4.9623,-4.9623,-4.9608,-4.9582,-4.9582,-4.9551,-4.9521,-4.949,-4.9509,-4.9505,-4.949,-4.9434,-4.9065,-4.858,-4.7961,-4.6866,-4.6042,-4.5296,-4.4624,-4.4322,-4.4255,-4.4259,-4.4226,-4.4211,-4.4177,-4.4162,-4.4079,-4.3877,-4.3397,-4.2701,-4.2445,-4.1274,-4.055,-4.0123,-3.964,-3.9268,-3.9129,-3.9059,-3.9045,-3.9036,-3.9003,-3.8989,-3.8979,-3.8968,-3.8935,-3.8253,-3.7923,-3.7698,-3.7364,-3.6941,-3.6811,-3.6083,-3.5655,-3.5283,-3.4779,-3.4284,-3.4215,-3.376,-3.339,-3.3331,-3.3286,-3.3241,-3.3229,-3.3196,-3.3135,-3.3088,-3.3057,-3.3026,-3.2963,-3.2916,-3.2753,-3.2536,-3.2505,-3.2332,-3.1826,-3.1426,-3.099,-3.0642,-3.054,-3.0246,-3.009,-2.9622,-2.9069,-2.8657,-2.8211,-2.775,-2.736,-2.7071,-2.7038,-2.7006,-2.7008,-2.6958,-2.6909,-2.6843,-2.6725,-2.6623,-2.652,-2.6415,-2.6311,-2.6222,-2.6133,-5.0108,-5.0095,-5.0057,-4.9939,-4.9807,-4.9778,-4.9745,-4.9764,-4.9764,-4.975,-4.9721,-4.9707,-4.9711,-4.9711,-4.9711,-4.9711,-4.9678,-4.9634,-4.9634,-4.9604,-4.9593,-4.9567,-4.9567,-4.9567,-4.9548,-4.9536,-4.9483,-4.9107,-4.8645,-4.7522,-4.6715,-4.5898,-4.4978,-4.4466,-4.431,-4.4314,-4.4318,-4.4318,-4.4318,-4.427,-4.4229,-4.4173,-4.4028,-4.3278,-4.2943,-4.2366,-4.1394,-4.0798,-4.0137,-3.9677,-3.9365,-3.9147,-3.9115,-3.9101,-3.9101,-3.9087,-3.9059,-3.9054,-3.9007,-3.8935,-3.8877,-3.8542,-3.8228,-3.7911,-3.7628,-3.7033,-3.653,-3.6364,-3.5692,-3.5089,-3.4947,-3.4277,-3.3738,-3.364,-3.3466,-3.3404,-3.3364,-3.3334,-3.3241,-3.3165,-3.315,-3.3135,-3.3039,-3.3011,-3.2884,-3.2721,-3.2571,-3.2521,-3.2348,-3.2052,-3.1897,-3.1601,-3.141,-3.1044,-3.0662,-3.0298,-2.9951,-2.9587,-2.9069,-2.8293,-2.785,-2.7524,-2.7202,-2.7137,-2.7122,-2.7056,-2.6991,-2.6942,-2.6826,-2.6742,-2.6623,-2.652,-2.6433,-2.6345,-2.6258,-5.0108,-5.0108,-5.0108,-5.0057,-4.9992,-4.9925,-4.9879,-4.9898,-4.9898,-4.9871,-4.9821,-4.9764,-4.9721,-4.9721,-4.9769,-4.9736,-4.9721,-4.9707,-4.9692,-4.9692,-4.9682,-4.9697,-4.9697,-4.9667,-4.9638,-4.9589,-4.9574,-4.9488,-4.9333,-4.777,-4.7022,-4.6421,-4.5341,-4.4473,-4.4397,-4.4344,-4.43,-4.4318,-4.4333,-4.4314,-4.43,-4.43,-4.4173,-4.3938,-4.3494,-4.2953,-4.2356,-4.133,-4.0668,-4.023,-3.9527,-3.9258,-3.9175,-3.9142,-3.9129,-3.9147,-3.9133,-3.9101,-3.9087,-3.896,-3.8921,-3.8892,-3.8579,-3.8552,-3.8501,-3.7996,-3.7441,-3.7326,-3.66,-3.5787,-3.5268,-3.4732,-3.4294,-3.3956,-3.3781,-3.352,-3.3481,-3.3466,-3.3375,-3.3301,-3.3292,-3.3262,-3.3183,-3.3088,-3.2979,-3.2852,-3.2688,-3.2622,-3.2607,-3.2487,-3.2332,-3.2211,-3.1967,-3.1828,-3.1444,-3.1149,-3.0802,-3.0471,-2.9915,-2.9152,-2.8427,-2.7946,-2.764,-2.7385,-2.7234,-2.7186,-2.7121,-2.7055,-2.6958,-2.6842,-2.6725,-2.6623,-2.6537,-2.6468,-2.6381,-5.0231,-5.0231,-5.0175,-5.0151,-5.0114,-5.007,-5.0044,-5.0025,-5.0031,-5.0018,-4.9992,-4.9944,-4.9898,-4.9885,-4.9862,-4.983,-4.983,-4.9778,-4.9764,-4.9764,-4.9736,-4.9726,-4.9726,-4.9707,-4.9692,-4.9682,-4.9663,-4.9648,-4.9562,-4.7928,-4.7264,-4.6718,-4.5452,-4.4659,-4.4482,-4.4444,-4.4426,-4.443,-4.443,-4.4416,-4.4387,-4.4354,-4.434,-4.4296,-4.3959,-4.3586,-4.31,-4.1959,-4.1259,-4.0653,-3.9874,-3.9413,-3.9307,-3.9275,-3.9275,-3.9261,-3.9248,-3.9142,-3.9115,-3.9045,-3.9021,-3.8964,-3.8906,-3.8862,-3.8792,-3.8649,-3.8405,-3.8158,-3.7522,-3.689,-3.6699,-3.5432,-3.4763,-3.4461,-3.4195,-3.3719,-3.3563,-3.3549,-3.3502,-3.3462,-3.3441,-3.3367,-3.3274,-3.318,-3.3088,-3.3044,-3.29,-3.2787,-3.2756,-3.2639,-3.2486,-3.2487,-3.2384,-3.2386,-3.2212,-3.1827,-3.1427,-3.106,-3.059,-2.9999,-2.9305,-2.856,-2.8007,-2.7684,-2.7481,-2.7313,-2.7249,-2.7185,-2.7055,-2.6941,-2.6842,-2.6725,-2.664,-2.6571,-2.652,-5.0359,-5.0359,-5.0325,-5.0294,-5.029,-5.0158,-5.0108,-5.0108,-5.0108,-5.0108,-5.0082,-5.0057,-5.0012,-5.0018,-5.0005,-4.9978,-4.9965,-4.9925,-4.989,-4.9871,-4.983,-4.9802,-4.9792,-4.9778,-4.9764,-4.9769,-4.9754,-4.9721,-4.9583,-4.7994,-4.69,-4.6038,-4.5278,-4.474,-4.4578,-4.4551,-4.4515,-4.4501,-4.4487,-4.4473,-4.4458,-4.4426,-4.443,-4.4368,-4.4242,-4.4092,-4.3474,-4.2731,-4.1926,-4.1108,-4.0365,-3.9711,-3.9548,-3.9405,-3.9405,-3.936,-3.9333,-3.9242,-3.9234,-3.9142,-3.9101,-3.9073,-3.8993,-3.8954,-3.8939,-3.8836,-3.8826,-3.863,-3.8265,-3.789,-3.7353,-3.5995,-3.5595,-3.531,-3.4609,-3.4164,-3.3702,-3.3702,-3.3601,-3.3563,-3.3524,-3.3452,-3.3378,-3.3304,-3.3229,-3.3168,-3.3091,-3.2997,-3.2904,-3.2787,-3.2672,-3.2657,-3.2623,-3.2557,-3.2506,-3.2384,-3.2,-3.1635,-3.1197,-3.0691,-3.0014,-2.925,-2.8624,-2.7999,-2.7693,-2.7475,-2.7393,-2.7297,-2.7185,-2.7087,-2.699,-2.6876,-2.6725,-2.6691,-2.6674,-5.0404,-5.0423,-5.0423,-5.0347,-5.0323,-4.9945,-4.998,-5.0101,-5.012,-5.0139,-5.0108,-5.012,-5.0108,-5.0108,-5.0095,-5.0082,-5.0082,-5.007,-5.0044,-5.0005,-4.9959,-4.992,-4.9906,-4.9893,-4.9903,-4.9848,-4.9802,-4.9783,-4.9532,-4.805,-4.6488,-4.5285,-4.4921,-4.4706,-4.4685,-4.4646,-4.4611,-4.4551,-4.4556,-4.4556,-4.4524,-4.4528,-4.4528,-4.4496,-4.4463,-4.4412,-4.4018,-4.3492,-4.2752,-4.1938,-4.1138,-4.0312,-3.978,-3.9436,-3.9418,-3.9405,-3.9405,-3.9391,-3.9365,-3.9256,-3.921,-3.9188,-3.9106,-3.9054,-3.9011,-3.8964,-3.8954,-3.8925,-3.8689,-3.8243,-3.7702,-3.7194,-3.672,-3.6015,-3.5183,-3.461,-3.4037,-3.3826,-3.3693,-3.3615,-3.3605,-3.3549,-3.3477,-3.3404,-3.3364,-3.3319,-3.3259,-3.3186,-3.306,-3.2948,-3.285,-3.2805,-3.2739,-3.2657,-3.2623,-3.259,-3.2452,-3.2068,-3.1769,-3.1312,-3.0634,-2.9974,-2.9309,-2.8664,-2.7942,-2.7602,-2.7471,-2.7392,-2.7329,-2.7233,-2.7136,-2.7023,-2.6876,-2.6859,-2.6826,-4.8726,-4.8707,-4.8707,-4.8726,-4.8715,-4.8652,-4.9209,-5.0237,-5.0321,-5.0278,-5.0224,-5.0175,-5.0004,-5.0151,-5.0101,-5.0089,-5.0089,-5.0095,-5.0082,-5.007,-5.007,-5.0057,-5.0044,-5.0031,-5.005,-5.0005,-4.9965,-4.9868,-4.9495,-4.8128,-4.6455,-4.5149,-4.4871,-4.4808,-4.4783,-4.4745,-4.4712,-4.4659,-4.4646,-4.4619,-4.4632,-4.4632,-4.4619,-4.4619,-4.4597,-4.4584,-4.4377,-4.3823,-4.3163,-4.2793,-4.1485,-4.059,-4.0502,-3.9902,-3.9527,-3.9482,-3.9469,-3.9444,-3.9405,-3.936,-3.9328,-3.9328,-3.9293,-3.9207,-3.912,-3.9045,-3.9021,-3.8993,-3.8983,-3.8588,-3.8305,-3.7907,-3.7487,-3.6818,-3.5998,-3.5271,-3.4679,-3.4211,-3.4041,-3.3698,-3.3671,-3.3619,-3.3563,-3.3534,-3.3477,-3.3466,-3.3408,-3.3352,-3.3247,-3.3104,-3.3011,-3.295,-3.2902,-3.282,-3.2722,-3.269,-3.264,-3.2484,-3.2201,-3.1884,-3.136,-3.073,-3.0029,-2.9176,-2.8237,-2.7746,-2.7515,-2.7452,-2.7421,-2.7392,-2.7313,-2.7169,-2.7056,-2.7024,-2.6959,-4.8039,-4.8039,-4.8048,-4.8039,-4.8048,-4.8039,-4.8652,-4.9386,-4.945,-4.9417,-4.9395,-4.9304,-4.932,-4.9339,-4.951,-4.9678,-4.9697,-5.0054,-5.0182,-5.0145,-5.0107,-5.012,-5.0108,-5.0089,-5.0114,-5.0063,-4.9974,-4.9822,-4.9214,-4.789,-4.6213,-4.5119,-4.4967,-4.4962,-4.495,-4.4919,-4.4902,-4.4827,-4.4745,-4.4725,-4.4712,-4.4712,-4.4712,-4.4712,-4.4678,-4.4646,-4.4595,-4.3971,-4.3764,-4.335,-4.1939,-4.1193,-4.0879,-4.0108,-3.9608,-3.9558,-3.9546,-3.952,-3.9476,-3.9457,-3.9444,-3.9431,-3.9418,-3.9333,-3.9248,-3.9175,-3.912,-3.9064,-3.905,-3.8966,-3.8742,-3.8496,-3.8093,-3.7691,-3.6833,-3.5993,-3.5358,-3.4755,-3.432,-3.3903,-3.3744,-3.3675,-3.3633,-3.3619,-3.3591,-3.3567,-3.3524,-3.3481,-3.3382,-3.3259,-3.3135,-3.3042,-3.3011,-3.2979,-3.2884,-3.2804,-3.2787,-3.2739,-3.2617,-3.2299,-3.1932,-3.1299,-3.0474,-2.9424,-2.834,-2.7952,-2.7617,-2.7557,-2.7511,-2.7483,-2.7438,-2.7327,-2.7217,-2.7087,-2.704,-4.7884,-4.7845,-4.7922,-4.7788,-4.7903,-4.7798,-4.7808,-4.7809,-4.7808,-4.7912,-4.8045,-4.8064,-4.8188,-4.8424,-4.8775,-4.8993,-4.9135,-4.9503,-4.9813,-5.0078,-4.9945,-4.9959,-5.0113,-5.0038,-4.9834,-4.9923,-4.9689,-4.9061,-4.8357,-4.7248,-4.6114,-4.516,-4.5091,-4.5068,-4.5057,-4.5057,-4.5022,-4.4974,-4.4858,-4.4802,-4.4751,-4.4725,-4.4725,-4.4738,-4.4725,-4.4693,-4.4712,-4.4561,-4.4372,-4.3561,-4.2787,-4.1964,-4.0978,-4.0181,-3.9763,-3.9626,-3.9614,-3.9602,-3.9577,-3.9558,-3.952,-3.9495,-3.9457,-3.9431,-3.936,-3.9269,-3.9202,-3.9193,-3.9166,-3.9106,-3.8934,-3.8818,-3.8549,-3.815,-3.7512,-3.6833,-3.6265,-3.548,-3.4616,-3.4181,-3.382,-3.3753,-3.3726,-3.3712,-3.3675,-3.3633,-3.3605,-3.3563,-3.3509,-3.3393,-3.3289,-3.3165,-3.3137,-3.3104,-3.3024,-3.2961,-3.2963,-3.2916,-3.2852,-3.2768,-3.2467,-3.1728,-3.0869,-2.9763,-2.8679,-2.8121,-2.778,-2.7707,-2.7632,-2.7557,-2.7511,-2.7483,-2.7357,-2.723,-2.712,-4.6274,-4.6265,-4.6274,-4.6285,-4.6285,-4.6271,-4.6292,-4.6256,-4.6192,-4.6868,-4.7816,-4.7959,-4.7921,-4.7893,-4.8083,-4.8264,-4.8369,-4.8703,-4.8922,-4.9234,-4.9384,-4.9618,-4.9958,-4.9541,-4.9377,-4.9079,-4.8643,-4.7998,-4.73,-4.6572,-4.597,-4.5209,-4.5114,-4.5125,-4.5125,-4.5125,-4.5103,-4.508,-4.5033,-4.4926,-4.4865,-4.4846,-4.4846,-4.4833,-4.4821,-4.4783,-4.477,-4.4732,-4.463,-4.4278,-4.3611,-4.2486,-4.1096,-4.0198,-3.9753,-3.9684,-3.9679,-3.9668,-3.9662,-3.9645,-3.962,-3.9596,-3.9571,-3.952,-3.9482,-3.9399,-3.9328,-3.9301,-3.9261,-3.9202,-3.9142,-3.9082,-3.898,-3.8581,-3.8206,-3.7674,-3.7136,-3.6046,-3.5008,-3.4494,-3.4042,-3.3873,-3.3847,-3.3807,-3.3739,-3.3698,-3.3684,-3.3643,-3.3587,-3.352,-3.3422,-3.3334,-3.3277,-3.3247,-3.3165,-3.3101,-3.3073,-3.3057,-3.2993,-3.2963,-3.2916,-3.1943,-3.0937,-3.0049,-2.9157,-2.8505,-2.8017,-2.7871,-2.7798,-2.7707,-2.7632,-2.7604,-2.7526,-2.7402,-2.7261,-4.5688,-4.5688,-4.5688,-4.5688,-4.568,-4.5676,-4.5687,-4.5687,-4.5662,-4.614,-4.6886,-4.6944,-4.6954,-4.7089,-4.728,-4.7482,-4.7548,-4.7902,-4.8275,-4.8571,-4.8686,-4.8856,-4.893,-4.89,-4.8717,-4.837,-4.769,-4.7008,-4.6468,-4.6018,-4.5579,-4.5252,-4.5203,-4.5181,-4.5181,-4.52,-4.517,-4.5129,-4.5148,-4.5103,-4.501,-4.4979,-4.4979,-4.4967,-4.4943,-4.4919,-4.4919,-4.4902,-4.4858,-4.4423,-4.361,-4.2427,-4.1149,-4.0219,-3.9799,-3.9701,-3.9708,-3.9708,-3.9703,-3.971,-3.9679,-3.9656,-3.9644,-3.9607,-3.9608,-3.9527,-3.9451,-3.9412,-3.9346,-3.9307,-3.9288,-3.9224,-3.9229,-3.8992,-3.8733,-3.8339,-3.7389,-3.6279,-3.5499,-3.4992,-3.4478,-3.3934,-3.3921,-3.3921,-3.3873,-3.382,-3.3793,-3.3739,-3.3684,-3.3643,-3.3563,-3.3481,-3.3441,-3.3396,-3.3331,-3.3256,-3.3198,-3.3165,-3.3147,-3.3088,-3.2919,-3.1956,-3.0999,-3.0267,-2.9517,-2.8742,-2.834,-2.8088,-2.7943,-2.7868,-2.778,-2.7724,-2.7647,-2.7554,-2.7432,-4.5704,-4.5723,-4.5704,-4.5723,-4.5723,-4.5715,-4.5715,-4.5715,-4.5708,-4.568,-4.5838,-4.5772,-4.5612,-4.5874,-4.627,-4.6512,-4.6781,-4.7069,-4.7501,-4.7836,-4.7864,-4.8142,-4.8161,-4.7959,-4.7719,-4.7364,-4.6789,-4.6578,-4.6338,-4.5848,-4.5503,-4.5398,-4.5359,-4.5317,-4.5328,-4.5317,-4.5288,-4.5267,-4.5246,-4.5194,-4.5151,-4.5095,-4.5091,-4.5091,-4.5103,-4.5103,-4.5103,-4.5091,-4.5068,-4.4406,-4.3521,-4.2424,-4.1397,-4.0503,-3.9985,-3.9792,-3.9781,-3.9758,-3.9724,-3.9731,-3.9701,-3.9689,-3.9701,-3.9696,-3.9686,-3.9638,-3.9564,-3.9514,-3.9451,-3.9418,-3.9399,-3.9386,-3.9386,-3.9354,-3.9139,-3.8843,-3.7692,-3.666,-3.6146,-3.5601,-3.492,-3.4295,-3.4048,-3.4048,-3.3972,-3.3934,-3.3881,-3.3834,-3.378,-3.3753,-3.3698,-3.3633,-3.3563,-3.352,-3.3491,-3.3419,-3.3334,-3.3319,-3.3286,-3.3211,-3.2919,-3.2119,-3.1371,-3.0679,-2.9923,-2.9076,-2.8489,-2.8134,-2.8039,-2.7996,-2.7911,-2.7842,-2.7795,-2.7704,-2.7632,-4.5766,-4.5786,-4.5778,-4.5786,-4.5778,-4.5788,-4.5773,-4.5765,-4.5704,-4.5688,-4.5688,-4.5692,-4.5687,-4.5684,-4.58,-4.5948,-4.6086,-4.6309,-4.6655,-4.7011,-4.705,-4.7444,-4.754,-4.7127,-4.6531,-4.6196,-4.5937,-4.5755,-4.5928,-4.564,-4.541,-4.541,-4.541,-4.539,-4.539,-4.538,-4.537,-4.5351,-4.5351,-4.5321,-4.5281,-4.5227,-4.5114,-4.5103,-4.5103,-4.5103,-4.5103,-4.5103,-4.5103,-4.4597,-4.3604,-4.2688,-4.1841,-4.0927,-4.0268,-3.9933,-3.9892,-3.9859,-3.9837,-3.9804,-3.9792,-3.9747,-3.9735,-3.9731,-3.9708,-3.9696,-3.9649,-3.9644,-3.957,-3.9502,-3.9476,-3.9438,-3.9444,-3.9418,-3.9285,-3.8861,-3.8107,-3.7534,-3.7067,-3.6266,-3.5416,-3.4822,-3.4266,-3.4185,-3.4023,-3.3998,-3.3985,-3.3921,-3.3868,-3.3842,-3.3829,-3.378,-3.3698,-3.3647,-3.3591,-3.3563,-3.3491,-3.3448,-3.3404,-3.3345,-3.3054,-3.2442,-3.1747,-3.1142,-3.0266,-2.9376,-2.8841,-2.8352,-2.8154,-2.8095,-2.8028,-2.7971,-2.7911,-2.7868,-2.778]},{"header":{"parameterUnit":"m.s-1","parameterCategory":1,"la1":31.0,"la2":29.5877,"lo1":-88.7671,"lo2":-86.6584,"dy":0.0162,"dx":0.0185,"nx":115,"ny":88,"refTime":"2023-07-18T12:00:00:Z","depth":0,"parameterNumber":3,"parameterNumberName":"V-component_of_WINDS"},"data":[0.0,0.0,0.0,0.0,0.0,0.0,0.0,0.0,0.0,0.0,0.0,0.0,0.0,0.0,0.0,0.0,0.0,0.0,0.0,0.0,0.0,0.0,0.0,0.0,0.0,0.0,0.0,0.0,0.0,0.0,0.0,0.0,0.0,0.0,0.0,0.0,0.0,0.0,0.0,0.0,0.0,0.0,0.0,0.0,0.0,0.0,0.0,0.0,0.0,0.0,0.0,0.0,0.0,0.0,0.0,0.0,0.0,0.0,0.0,0.0,0.0,0.0,0.0,0.0,0.0,0.0,0.0,0.0,0.0,0.0,0.0,0.0,0.0,0.0,0.0,0.0,0.0,0.0,0.0,0.0,0.0,0.0,0.0,0.0,0.0,0.0,0.0,0.0,0.0,0.0,0.0,0.0,0.0,0.0,0.0,0.0,0.0,0.0,0.0,0.0,0.0,0.0,0.0,0.0,0.0,0.0,0.0,0.0,0.0,0.0,0.0,0.0,0.0,0.0,0.0,0.0,0.0,0.0,0.0,0.0,0.0,0.0,0.0,0.0,0.0,0.0,0.0,0.0,0.0,0.0,0.0,0.0,0.0,0.0,0.0,0.0,0.0,0.0,0.0,0.0,0.0,0.0,0.0,0.0,0.0,0.0,0.0,0.0,0.0,0.0,0.0,0.0,0.0,0.0,0.0,0.0,0.0,0.0,0.0,0.0,0.0,0.0,0.0,0.0,0.0,0.0,0.0,0.0,0.0,0.0,0.0,0.0,0.0,0.0,0.0,0.0,0.0,0.0,0.0,0.0,0.0,0.0,0.0,0.0,0.0,0.0,0.0,0.0,0.0,0.0,0.0,0.0,0.0,0.0,0.0,0.0,0.0,0.0,0.0,0.0,0.0,0.0,0.0,0.0,0.0,0.0,0.0,0.0,0.0,0.0,0.0,0.0,0.0,0.0,0.0,0.0,0.0,0.0,0.0,0.0,0.0,0.0,0.0,0.0,0.0,0.0,0.0,0.0,0.0,0.0,0.0,0.0,0.0,0.0,0.0,0.0,0.0,0.0,0.0,0.0,0.0,0.0,0.0,0.0,0.0,0.0,0.0,0.0,0.0,0.0,0.0,0.0,0.0,0.0,0.0,0.0,0.0,0.0,0.0,0.0,0.0,0.0,0.0,0.0,0.0,0.0,0.0,0.0,0.0,0.0,0.0,0.0,0.0,0.0,0.0,0.0,0.0,0.0,0.0,0.0,0.0,0.0,0.0,0.0,0.0,0.0,0.0,0.0,0.0,0.0,0.0,0.0,0.0,0.0,0.0,0.0,0.0,0.0,0.0,0.0,0.0,0.0,0.0,0.0,0.0,0.0,0.0,0.0,0.0,0.0,0.0,0.0,0.0,0.0,0.0,0.0,0.0,0.0,0.0,0.0,0.0,0.0,0.0,0.0,0.0,0.0,0.0,0.0,0.0,0.0,0.0,0.0,0.0,0.0,0.0,0.0,0.0,0.0,0.0,0.0,0.0,0.0,0.0,0.0,0.0,0.0,0.0,0.0,0.0,0.0,0.0,0.0,0.0,0.0,0.0,0.0,0.0,0.0,0.0,0.0,0.0,0.0,0.0,0.0,0.0,0.0,0.0,0.0,0.0,0.0,0.0,0.0,0.0,0.0,0.0,0.0,0.0,0.0,0.0,0.0,0.0,0.0,0.0,0.0,0.0,0.0,0.0,0.0,0.0,0.0,0.0,0.0,0.0,0.0,0.0,0.0,0.0,0.0,0.0,0.0,0.0,0.0,0.0,0.0,0.0,0.0,0.0,0.0,0.0,0.0,0.0,0.0,0.0,0.0,0.0,0.0,0.0,0.0,0.0,0.0,0.0,0.0,0.0,0.0,0.0,0.0,0.0,0.0,0.0,0.0,0.0,0.0,0.0,0.0,0.0,0.0,0.0,0.0,0.0,0.0,0.0,0.0,0.0,0.0,0.0,0.0,0.0,0.0,0.0,0.0,0.0,0.0,0.0,0.0,0.0,0.0,0.0,0.0,0.0,0.0,0.0,0.0,0.0,0.0,0.0,0.0,0.0,0.0,0.0,0.0,0.0,0.0,0.0,0.0,0.0,0.0,0.0,0.0,0.0,0.0,0.0,0.0,0.0,0.0,0.0,0.0,0.0,0.0,0.0,0.0,0.0,0.0,0.0,0.0,0.0,0.0,0.0,0.0,0.0,0.0,0.0,0.0,0.0,0.0,0.0,0.0,0.0,0.0,0.0,0.0,0.0,0.0,0.0,0.0,0.0,0.0,0.0,0.0,0.0,0.0,0.0,0.0,0.0,0.0,0.0,0.0,0.0,0.0,0.0,0.0,0.0,0.0,0.0,0.0,0.0,0.0,0.0,0.0,0.0,0.0,0.0,0.0,0.0,0.0,0.0,0.0,0.0,0.0,0.0,0.0,0.0,0.0,0.0,0.0,0.0,0.0,0.0,0.0,0.0,0.0,0.0,0.0,0.0,0.0,0.0,0.0,0.0,0.0,0.0,0.0,0.0,0.0,0.0,0.0,0.0,0.0,0.0,0.0,0.0,0.0,0.0,0.0,0.0,0.0,0.0,0.0,0.0,0.0,0.0,0.0,0.0,0.0,0.0,0.0,0.0,0.0,0.0,0.0,0.0,0.0,0.0,0.0,0.0,0.0,0.0,0.0,0.0,0.0,0.0,0.0,0.0,0.0,0.0,0.0,0.0,0.0,0.0,0.0,0.0,0.0,0.0,0.0,0.0,0.0,0.0,0.0,0.0,0.0,0.0,0.0,0.0,0.0,0.0,0.0,0.0,0.0,0.0,0.0,0.0,0.0,0.0,0.0,0.0,0.0,0.0,0.0,0.0,0.0,0.0,0.0,0.0,0.0,0.0,0.0,0.0,0.0,0.0,0.0,0.0,0.0,0.0,0.0,0.0,0.0,0.0,0.0,0.0,0.0,0.0,0.0,0.0,0.0,0.0,0.0,0.0,0.0,0.0,0.0,0.0,0.0,0.0,0.0,0.0,0.0,0.0,0.0,0.0,0.0,0.0,0.0,0.0,0.0,0.0,0.0,0.0,0.0,0.0,0.0,0.0,0.0,0.0,0.0,0.0,0.0,0.0,0.0,0.0,0.0,0.0,0.0,0.0,0.0,0.0,0.0,0.0,0.0,0.0,0.0,0.0,0.0,0.0,0.0,0.0,0.0,0.0,0.0,0.0,0.0,0.0,0.0,0.0,0.0,0.0,0.0,0.0,0.0,0.0,0.0,0.0,0.0,0.0,0.0,0.0,0.0,0.0,0.0,0.0,0.0,0.0,0.0,0.0,0.0,0.0,0.0,0.0,0.0,0.0,0.0,0.0,0.0,0.0,0.0,0.0,0.0,0.0,0.0,0.0,0.0,0.0,0.0,0.0,0.0,0.0,0.0,0.0,0.0,0.0,0.0,0.0,0.0,0.0,0.0,0.0,0.0,0.0,0.0,0.0,0.0,0.0,0.0,0.0,0.0,0.0,0.0,0.0,0.0,0.0,0.0,0.0,0.0,0.0,0.0,0.0,0.0,0.0,0.0,0.0,0.0,0.0,0.0,0.0,0.0,0.0,0.0,0.0,0.0,0.0,0.0,0.0,0.0,0.0,0.0,0.0,0.0,0.0,0.0,0.0,0.0,0.0,0.0,0.0,0.0,0.0,0.0,0.0,0.0,0.0,0.0,0.0,0.0,0.0,0.0,0.0,0.0,0.0,0.0,0.0,0.0,0.0,0.0,0.0,0.0,0.0,0.0,0.0,0.0,0.0,0.0,0.0,0.0,0.0,0.0,0.0,0.0,0.0,0.0,0.0,0.0,0.0,0.0,0.0,0.0,0.0,0.0,0.0,0.0,0.0,0.0,0.0,0.0,0.0,0.0,0.0,0.0,0.0,0.0,0.0,0.0,0.0,0.0,0.0,0.0,0.0,0.0,0.0,0.0,0.0,0.0,0.0,0.0,0.0,0.0,0.0,0.0,0.0,0.0,0.0,0.0,0.0,0.0,0.0,0.0,0.0,0.0,0.0,0.0,0.0,0.0,0.0,0.0,0.0,0.0,0.0,0.0,0.0,0.0,0.0,0.0,0.0,0.0,0.0,0.0,0.0,0.0,0.0,0.0,0.0,0.0,0.0,0.0,0.0,0.0,0.0,0.0,0.0,0.0,0.0,0.0,0.0,0.0,0.0,0.0,0.0,0.0,0.0,0.0,0.0,0.0,0.0,0.0,0.0,0.0,0.0,0.0,0.0,0.0,-1.0871,0.0,0.0,0.0,0.0,0.0,0.0,0.0,0.0,0.0,0.0,0.0,0.0,0.0,0.0,0.0,0.0,0.0,0.0,0.0,0.0,0.0,0.0,0.0,0.0,0.0,0.0,0.0,0.0,0.0,0.0,0.0,0.0,0.0,0.0,0.0,0.0,0.0,0.0,0.0,0.0,0.0,0.0,0.0,0.0,0.0,0.0,0.0,0.0,0.0,0.0,0.0,0.0,0.0,0.0,0.0,0.0,0.0,0.0,0.0,0.0,0.0,0.0,0.0,0.0,0.0,0.0,0.0,0.0,0.0,0.0,0.0,0.0,0.0,0.0,0.0,0.0,0.0,0.0,0.0,0.0,0.0,0.0,0.0,0.0,0.0,0.0,0.0,0.0,0.0,0.0,0.0,0.0,0.0,0.0,0.0,0.0,0.0,0.0,0.0,0.0,0.0,0.0,0.0,0.0,0.0,0.0,0.0,0.0,0.0,0.0,-1.0964,-1.0888,-1.0888,-1.0947,-1.0998,0.0,0.0,0.0,0.0,0.0,0.0,0.0,0.0,0.0,0.0,0.0,0.0,0.0,0.0,0.0,0.0,0.0,0.0,0.0,0.0,0.0,0.0,0.0,0.0,0.0,0.0,0.0,0.0,0.0,0.0,0.0,0.0,0.0,0.0,0.0,0.0,0.0,0.0,0.0,0.0,0.0,0.0,0.0,0.0,0.0,0.0,0.0,0.0,0.0,0.0,0.0,0.0,0.0,0.0,0.0,0.0,0.0,0.0,0.0,0.0,0.0,0.0,0.0,0.0,0.0,0.0,0.0,0.0,0.0,0.0,0.0,0.0,0.0,0.0,0.0,0.0,0.0,0.0,0.0,0.0,0.0,0.0,0.0,0.0,0.0,0.0,0.0,0.0,0.0,0.0,0.0,0.0,0.0,0.0,0.0,0.0,0.0,0.0,0.0,0.0,0.0,0.0,0.0,0.0,0.0,0.0,0.0,0.0,0.0,0.0,0.0,0.0,-1.0989,-1.1049,-1.115,0.0,0.0,0.0,0.0,0.0,0.0,0.0,0.0,0.0,0.0,0.0,0.0,0.0,0.0,0.0,0.0,0.0,0.0,0.0,0.0,0.0,0.0,0.0,0.0,0.0,0.0,0.0,0.0,0.0,0.0,0.0,0.0,0.0,0.0,0.0,0.0,0.0,0.0,0.0,0.0,0.0,0.0,0.0,0.0,0.0,0.0,0.0,0.0,0.0,0.0,0.0,0.0,0.0,0.0,0.0,0.0,0.0,0.0,0.0,0.0,0.0,0.0,0.0,0.0,0.0,0.0,0.0,0.0,0.0,0.0,0.0,0.0,0.0,0.0,0.0,0.0,0.0,0.0,0.0,0.0,0.0,0.0,0.0,0.0,0.0,0.0,0.0,0.0,0.0,0.0,0.0,0.0,0.0,0.0,0.0,0.0,0.0,0.0,0.0,0.0,0.0,0.0,0.0,0.0,0.0,0.0,0.0,0.0,0.0,0.0,-1.1276,-1.1276,-1.1251,0.0,-1.1267,0.0,0.0,0.0,0.0,0.0,0.0,0.0,0.0,0.0,0.0,0.0,0.0,0.0,0.0,0.0,0.0,0.0,0.0,0.0,0.0,0.0,0.0,0.0,0.0,0.0,0.0,0.0,0.0,0.0,0.0,0.0,0.0,0.0,0.0,0.0,0.0,0.0,0.0,0.0,0.0,0.0,0.0,0.0,0.0,0.0,0.0,0.0,0.0,0.0,0.0,0.0,0.0,0.0,0.0,0.0,0.0,0.0,0.0,0.0,0.0,0.0,0.0,0.0,0.0,0.0,0.0,0.0,0.0,0.0,0.0,0.0,0.0,0.0,0.0,0.0,0.0,0.0,0.0,0.0,0.0,0.0,0.0,0.0,0.0,0.0,0.0,0.0,0.0,0.0,0.0,0.0,0.0,0.0,0.0,0.0,0.0,0.0,0.0,0.0,0.0,0.0,0.0,0.0,0.0,0.0,0.0,0.0,0.0,0.0,0.0,-1.1301,-1.1301,-1.1301,-1.1301,0.0,0.0,0.0,0.0,0.0,0.0,0.0,0.0,0.0,0.0,0.0,0.0,0.0,0.0,0.0,0.0,0.0,0.0,0.0,0.0,0.0,0.0,0.0,0.0,0.0,0.0,0.0,0.0,0.0,0.0,0.0,0.0,0.0,0.0,0.0,0.0,0.0,0.0,0.0,0.0,0.0,0.0,0.0,0.0,0.0,0.0,0.0,0.0,0.0,0.0,0.0,0.0,0.0,0.0,0.0,0.0,0.0,0.0,0.0,0.0,0.0,0.0,0.0,0.0,0.0,0.0,0.0,0.0,0.0,0.0,0.0,0.0,0.0,0.0,0.0,0.0,0.0,0.0,0.0,0.0,0.0,0.0,0.0,0.0,0.0,0.0,0.0,0.0,0.0,0.0,0.0,0.0,0.0,0.0,0.0,0.0,0.0,0.0,0.0,0.0,0.0,0.0,0.0,0.0,0.0,0.0,0.0,0.0,0.0,0.0,-1.1301,-1.1301,-1.1301,-1.1301,-1.1301,-1.1301,0.0,0.0,0.0,0.0,0.0,0.0,0.0,0.0,0.0,0.0,0.0,0.0,0.0,0.0,0.0,0.0,0.0,0.0,0.0,0.0,0.0,0.0,0.0,0.0,0.0,0.0,0.0,0.0,0.0,0.0,0.0,0.0,0.0,0.0,0.0,0.0,0.0,0.0,0.0,0.0,0.0,0.0,0.0,0.0,0.0,0.0,0.0,0.0,0.0,0.0,0.0,0.0,0.0,0.0,0.0,0.0,0.0,0.0,0.0,0.0,0.0,0.0,0.0,0.0,0.0,0.0,0.0,0.0,0.0,0.0,0.0,0.0,0.0,0.0,0.0,0.0,0.0,0.0,0.0,0.0,0.0,0.0,0.0,0.0,0.0,0.0,0.0,0.0,0.0,0.0,0.0,0.0,0.0,0.0,0.0,0.0,0.0,0.0,0.0,0.0,0.0,0.0,0.0,0.0,0.0,0.0,0.0,0.0,-1.1301,-1.1301,-1.1301,-1.1301,-1.1301,-1.1301,0.0,0.0,0.0,0.0,0.0,0.0,0.0,0.0,0.0,0.0,0.0,0.0,0.0,0.0,0.0,0.0,0.0,0.0,0.0,0.0,0.0,0.0,0.0,0.0,0.0,0.0,0.0,0.0,0.0,0.0,0.0,0.0,0.0,0.0,0.0,0.0,0.0,0.0,0.0,0.0,0.0,0.0,0.0,0.0,0.0,0.0,0.0,0.0,0.0,0.0,0.0,0.0,0.0,0.0,0.0,0.0,0.0,0.0,0.0,0.0,0.0,0.0,0.0,0.0,0.0,0.0,0.0,0.0,0.0,0.0,0.0,0.0,0.0,0.0,0.0,0.0,0.0,0.0,0.0,0.0,0.0,0.0,0.0,0.0,0.0,0.0,0.0,0.0,0.0,0.0,0.0,0.0,0.0,0.0,0.0,0.0,0.0,0.0,0.0,0.0,0.0,0.0,0.0,0.0,0.0,0.0,0.0,0.0,0.0,-1.1301,-1.1301,-1.1301,-1.1301,-1.1301,-1.1343,0.0,0.0,0.0,0.0,0.0,0.0,0.0,0.0,0.0,0.0,0.0,0.0,0.0,0.0,0.0,0.0,0.0,0.0,0.0,0.0,0.0,0.0,0.0,0.0,0.0,0.0,0.0,0.0,0.0,0.0,0.0,0.0,0.0,0.0,0.0,0.0,0.0,0.0,0.0,0.0,0.0,0.0,0.0,0.0,0.0,0.0,0.0,0.0,0.0,0.0,0.0,0.0,0.0,0.0,0.0,0.0,0.0,0.0,0.0,0.0,0.0,0.0,0.0,0.0,0.0,0.0,0.0,0.0,0.0,0.0,0.0,0.0,0.0,0.0,0.0,0.0,0.0,0.0,0.0,0.0,0.0,0.0,0.0,0.0,0.0,0.0,0.0,0.0,0.0,0.0,0.0,0.0,0.0,0.0,0.0,0.0,0.0,0.0,0.0,0.0,0.0,0.0,0.0,0.0,0.0,0.0,0.0,0.0,0.0,-1.1301,0.0,-1.1326,-1.1377,-1.1377,-1.1427,0.0,0.0,0.0,0.0,0.0,0.0,0.0,0.0,0.0,0.0,0.0,0.0,0.0,0.0,0.0,0.0,0.0,0.0,0.0,0.0,0.0,0.0,0.0,0.0,0.0,0.0,0.0,0.0,0.0,0.0,0.0,0.0,0.0,0.0,0.0,0.0,0.0,0.0,0.0,0.0,0.0,0.0,0.0,0.0,0.0,0.0,0.0,0.0,0.0,0.0,0.0,0.0,0.0,0.0,0.0,0.0,0.0,0.0,0.0,0.0,0.0,0.0,0.0,0.0,0.0,0.0,0.0,0.0,0.0,0.0,0.0,0.0,0.0,0.0,0.0,0.0,0.0,0.0,0.0,0.0,0.0,0.0,0.0,0.0,0.0,0.0,0.0,0.0,0.0,0.0,0.0,0.0,0.0,0.0,0.0,0.0,0.0,0.0,0.0,0.0,0.0,0.0,0.0,0.0,0.0,0.0,0.0,0.0,-1.131,-1.131,-1.131,-1.1403,-1.1511,-1.152,-1.1586,0.0,0.0,0.0,0.0,0.0,0.0,0.0,0.0,0.0,0.0,0.0,0.0,0.0,0.0,0.0,0.0,0.0,0.0,0.0,0.0,0.0,0.0,0.0,0.0,0.0,0.0,0.0,0.0,0.0,0.0,0.0,0.0,0.0,0.0,0.0,0.0,0.0,0.0,0.0,0.0,0.0,0.0,0.0,0.0,0.0,0.0,0.0,0.0,0.0,0.0,0.0,0.0,0.0,0.0,0.0,0.0,0.0,0.0,0.0,0.0,0.0,0.0,0.0,0.0,0.0,0.0,0.0,0.0,0.0,0.0,0.0,0.0,0.0,0.0,0.0,0.0,0.0,0.0,0.0,0.0,0.0,0.0,0.0,0.0,0.0,0.0,0.0,0.0,0.0,0.0,0.0,0.0,0.0,0.0,0.0,0.0,0.0,0.0,0.0,0.0,0.0,0.0,0.0,0.0,0.0,0.0,0.0,0.0,0.0,-1.1861,-1.1939,-1.2017,-1.2043,-1.2043,-1.1962,0.0,0.0,0.0,0.0,0.0,0.0,0.0,0.0,0.0,0.0,0.0,0.0,0.0,0.0,0.0,0.0,0.0,0.0,0.0,0.0,0.0,0.0,0.0,0.0,0.0,0.0,0.0,0.0,0.0,0.0,0.0,0.0,0.0,0.0,0.0,0.0,0.0,0.0,0.0,0.0,0.0,0.0,0.0,0.0,0.0,0.0,0.0,0.0,0.0,0.0,0.0,0.0,0.0,0.0,0.0,0.0,0.0,0.0,0.0,0.0,0.0,0.0,0.0,0.0,0.0,0.0,0.0,0.0,0.0,0.0,0.0,0.0,0.0,0.0,0.0,0.0,0.0,0.0,0.0,0.0,0.0,0.0,0.0,0.0,0.0,0.0,0.0,0.0,0.0,0.0,0.0,0.0,0.0,0.0,0.0,0.0,0.0,0.0,0.0,0.0,0.0,0.0,0.0,0.0,0.0,0.0,0.0,0.0,0.0,-1.2698,-1.26,-1.2556,-1.26,-1.26,-1.2491,-1.2213,0.0,0.0,0.0,0.0,0.0,0.0,0.0,0.0,0.0,0.0,0.0,0.0,0.0,0.0,0.0,0.0,0.0,0.0,0.0,0.0,0.0,0.0,0.0,0.0,0.0,0.0,0.0,0.0,0.0,0.0,0.0,0.0,0.0,0.0,0.0,0.0,0.0,0.0,0.0,0.0,0.0,0.0,0.0,0.0,0.0,0.0,0.0,0.0,0.0,0.0,0.0,0.0,0.0,0.0,0.0,0.0,0.0,0.0,0.0,0.0,0.0,0.0,0.0,0.0,0.0,0.0,0.0,0.0,0.0,0.0,0.0,0.0,0.0,0.0,0.0,0.0,0.0,0.0,0.0,0.0,0.0,0.0,0.0,0.0,0.0,0.0,0.0,0.0,0.0,0.0,0.0,0.0,0.0,0.0,0.0,0.0,0.0,0.0,0.0,0.0,0.0,0.0,0.0,0.0,0.0,0.0,0.0,0.0,-1.3738,-1.3245,-1.3057,-1.3131,-1.3131,-1.3023,0.0,0.0,0.0,0.0,0.0,0.0,0.0,0.0,0.0,0.0,0.0,0.0,0.0,0.0,0.0,0.0,0.0,0.0,0.0,0.0,0.0,0.0,0.0,0.0,0.0,0.0,0.0,0.0,0.0,0.0,0.0,0.0,0.0,0.0,0.0,0.0,0.0,0.0,0.0,0.0,0.0,0.0,0.0,0.0,0.0,0.0,0.0,0.0,0.0,0.0,0.0,0.0,0.0,0.0,0.0,0.0,0.0,0.0,0.0,0.0,0.0,0.0,0.0,0.0,0.0,0.0,0.0,0.0,0.0,0.0,0.0,0.0,0.0,0.0,0.0,0.0,0.0,0.0,0.0,0.0,0.0,0.0,0.0,0.0,0.0,0.0,0.0,0.0,0.0,0.0,0.0,0.0,0.0,0.0,0.0,0.0,0.0,0.0,0.0,0.0,0.0,0.0,0.0,0.0,0.0,0.0,0.0,0.0,0.0,-1.4264,-1.4152,-1.3961,-1.3688,-1.367,-1.3515,0.0,0.0,0.0,0.0,0.0,0.0,0.0,0.0,0.0,0.0,0.0,0.0,0.0,0.0,0.0,0.0,0.0,0.0,0.0,0.0,0.0,0.0,0.0,0.0,0.0,0.0,0.0,0.0,0.0,0.0,0.0,0.0,0.0,0.0,0.0,0.0,0.0,0.0,0.0,0.0,0.0,0.0,0.0,0.0,0.0,0.0,0.0,0.0,0.0,0.0,0.0,0.0,0.0,0.0,0.0,0.0,0.0,0.0,0.0,0.0,0.0,0.0,0.0,0.0,0.0,0.0,0.0,0.0,0.0,0.0,0.0,0.0,0.0,0.0,0.0,0.0,0.0,0.0,0.0,0.0,0.0,0.0,0.0,0.0,0.0,0.0,0.0,0.0,0.0,0.0,0.0,0.0,0.0,0.0,0.0,0.0,0.0,0.0,0.0,0.0,0.0,0.0,0.0,0.0,0.0,0.0,0.0,0.0,-1.4171,-1.4485,-1.4485,-1.4396,-1.4148,-1.4148,-1.3956,0.0,0.0,0.0,0.0,0.0,0.0,0.0,0.0,0.0,0.0,0.0,0.0,0.0,0.0,0.0,0.0,0.0,0.0,0.0,0.0,0.0,0.0,0.0,0.0,0.0,0.0,0.0,0.0,0.0,0.0,0.0,0.0,0.0,0.0,0.0,0.0,0.0,0.0,0.0,0.0,0.0,0.0,0.0,0.0,0.0,0.0,0.0,0.0,0.0,0.0,0.0,0.0,0.0,0.0,0.0,0.0,0.0,0.0,0.0,0.0,0.0,0.0,0.0,0.0,0.0,0.0,0.0,0.0,0.0,0.0,0.0,0.0,0.0,0.0,0.0,0.0,0.0,0.0,0.0,0.0,0.0,0.0,0.0,0.0,0.0,0.0,0.0,0.0,0.0,0.0,0.0,0.0,0.0,0.0,0.0,0.0,0.0,0.0,0.0,0.0,0.0,0.0,0.0,0.0,0.0,0.0,0.0,0.0,-1.4485,-1.4485,-1.4485,-1.4485,-1.4485,-1.4485,-1.4332,0.0,0.0,0.0,0.0,0.0,0.0,0.0,0.0,0.0,0.0,0.0,0.0,0.0,0.0,0.0,0.0,0.0,0.0,0.0,0.0,0.0,0.0,0.0,0.0,0.0,0.0,0.0,0.0,0.0,0.0,0.0,0.0,0.0,0.0,0.0,0.0,0.0,0.0,0.0,0.0,0.0,0.0,0.0,0.0,0.0,0.0,0.0,0.0,0.0,0.0,0.0,0.0,0.0,0.0,0.0,0.0,0.0,0.0,0.0,0.0,0.0,0.0,0.0,0.0,0.0,0.0,0.0,0.0,0.0,0.0,0.0,0.0,0.0,0.0,0.0,0.0,0.0,0.0,0.0,0.0,0.0,0.0,0.0,0.0,0.0,0.0,0.0,0.0,0.0,0.0,0.0,0.0,0.0,0.0,0.0,0.0,0.0,0.0,0.0,0.0,0.0,0.0,0.0,0.0,0.0,0.0,0.0,0.0,-1.4485,-1.4485,-1.4485,-1.4485,-1.4485,-1.4485,-1.4469,0.0,0.0,0.0,0.0,0.0,0.0,0.0,0.0,0.0,0.0,0.0,0.0,0.0,0.0,0.0,0.0,0.0,0.0,0.0,0.0,0.0,0.0,0.0,0.0,0.0,0.0,0.0,0.0,0.0,0.0,0.0,0.0,0.0,0.0,0.0,0.0,0.0,0.0,0.0,0.0,0.0,0.0,0.0,0.0,0.0,0.0,0.0,0.0,-1.5814,0.0,0.0,0.0,0.0,0.0,0.0,0.0,0.0,0.0,0.0,0.0,0.0,0.0,0.0,0.0,0.0,0.0,0.0,0.0,0.0,0.0,0.0,0.0,0.0,0.0,0.0,0.0,0.0,0.0,0.0,0.0,0.0,0.0,0.0,0.0,0.0,0.0,0.0,0.0,0.0,0.0,0.0,0.0,0.0,0.0,0.0,0.0,0.0,0.0,0.0,0.0,0.0,0.0,0.0,0.0,0.0,0.0,0.0,0.0,-1.4485,-1.4485,-1.4485,-1.4485,-1.4485,-1.4485,-1.4485,0.0,0.0,0.0,0.0,0.0,0.0,0.0,0.0,0.0,0.0,0.0,0.0,0.0,0.0,0.0,0.0,0.0,0.0,0.0,0.0,0.0,0.0,0.0,0.0,0.0,0.0,0.0,0.0,0.0,0.0,0.0,0.0,0.0,0.0,0.0,0.0,0.0,0.0,0.0,0.0,0.0,0.0,0.0,0.0,0.0,0.0,0.0,0.0,0.0,0.0,0.0,0.0,0.0,0.0,0.0,0.0,0.0,0.0,0.0,0.0,0.0,0.0,0.0,0.0,0.0,0.0,0.0,0.0,0.0,0.0,0.0,0.0,0.0,0.0,0.0,0.0,0.0,0.0,0.0,0.0,0.0,0.0,0.0,0.0,0.0,0.0,0.0,0.0,0.0,0.0,0.0,0.0,0.0,0.0,0.0,0.0,0.0,0.0,0.0,0.0,0.0,0.0,0.0,0.0,0.0,0.0,0.0,-1.4485,-1.4485,-1.4485,-1.4485,-1.4485,-1.4485,-1.4485,-1.4485,-1.4476,0.0,0.0,0.0,0.0,0.0,0.0,0.0,0.0,0.0,0.0,0.0,0.0,0.0,0.0,0.0,0.0,0.0,0.0,0.0,0.0,0.0,0.0,0.0,0.0,0.0,0.0,0.0,0.0,0.0,0.0,0.0,0.0,0.0,0.0,0.0,0.0,0.0,0.0,-1.467,-1.5286,0.0,0.0,0.0,0.0,0.0,0.0,0.0,0.0,-1.5947,0.0,0.0,0.0,0.0,0.0,0.0,0.0,0.0,0.0,0.0,0.0,0.0,0.0,0.0,0.0,0.0,0.0,0.0,0.0,0.0,0.0,0.0,0.0,0.0,0.0,0.0,0.0,0.0,0.0,0.0,0.0,0.0,0.0,0.0,0.0,0.0,0.0,0.0,0.0,0.0,0.0,0.0,0.0,0.0,0.0,0.0,0.0,0.0,0.0,0.0,0.0,0.0,0.0,0.0,0.0,0.0,-1.4485,-1.4485,-1.4485,-1.4485,-1.4485,-1.4485,-1.4485,-1.4485,-1.4485,-1.4449,0.0,0.0,0.0,0.0,0.0,0.0,0.0,0.0,0.0,0.0,0.0,0.0,0.0,0.0,0.0,0.0,0.0,0.0,0.0,0.0,0.0,0.0,0.0,0.0,0.0,0.0,0.0,0.0,0.0,0.0,0.0,0.0,0.0,0.0,0.0,0.0,0.0,0.0,0.0,-1.5678,-1.577,0.0,0.0,0.0,0.0,0.0,0.0,0.0,0.0,-1.6197,0.0,0.0,0.0,0.0,0.0,0.0,0.0,0.0,0.0,0.0,0.0,0.0,0.0,0.0,0.0,0.0,0.0,0.0,0.0,0.0,0.0,0.0,0.0,0.0,0.0,0.0,0.0,0.0,0.0,0.0,0.0,0.0,0.0,0.0,0.0,0.0,0.0,0.0,0.0,0.0,0.0,0.0,0.0,0.0,0.0,0.0,0.0,0.0,0.0,0.0,0.0,0.0,0.0,0.0,0.0,-1.4488,-1.4485,-1.4485,-1.4485,-1.4485,-1.4485,-1.4485,-1.4485,-1.4405,0.0,0.0,0.0,0.0,0.0,0.0,0.0,0.0,0.0,0.0,0.0,0.0,0.0,0.0,0.0,0.0,0.0,0.0,0.0,0.0,0.0,0.0,0.0,0.0,0.0,0.0,0.0,0.0,0.0,0.0,0.0,0.0,0.0,0.0,0.0,0.0,0.0,0.0,0.0,0.0,-1.576,-1.5814,-1.5814,0.0,0.0,0.0,0.0,0.0,0.0,-1.6154,-1.6318,0.0,0.0,0.0,0.0,0.0,0.0,0.0,0.0,0.0,0.0,0.0,0.0,0.0,0.0,0.0,0.0,0.0,0.0,0.0,0.0,0.0,0.0,0.0,0.0,0.0,0.0,0.0,0.0,0.0,0.0,0.0,0.0,0.0,0.0,0.0,0.0,0.0,0.0,0.0,0.0,0.0,0.0,0.0,0.0,0.0,0.0,0.0,0.0,0.0,0.0,0.0,0.0,0.0,0.0,0.0,-1.4476,-1.4485,-1.4485,-1.4485,-1.4485,-1.4485,-1.4485,-1.4485,-1.4313,0.0,0.0,0.0,0.0,0.0,0.0,0.0,0.0,0.0,0.0,0.0,0.0,0.0,0.0,0.0,0.0,0.0,0.0,0.0,0.0,0.0,0.0,0.0,0.0,0.0,0.0,0.0,0.0,0.0,0.0,0.0,0.0,0.0,0.0,0.0,0.0,0.0,0.0,0.0,0.0,0.0,-1.5814,-1.5814,-1.5814,0.0,0.0,0.0,0.0,-1.601,-1.6241,0.0,0.0,0.0,0.0,0.0,0.0,0.0,0.0,0.0,0.0,0.0,0.0,0.0,0.0,0.0,0.0,0.0,0.0,0.0,0.0,0.0,0.0,0.0,0.0,0.0,0.0,0.0,0.0,0.0,0.0,0.0,0.0,0.0,0.0,0.0,0.0,0.0,0.0,0.0,0.0,0.0,0.0,0.0,0.0,0.0,0.0,0.0,0.0,0.0,0.0,0.0,0.0,0.0,0.0,0.0,0.0,-1.4485,-1.4485,-1.4485,-1.4485,-1.4485,-1.4485,-1.4485,-1.4485,-1.4313,0.0,0.0,0.0,0.0,0.0,0.0,0.0,0.0,0.0,0.0,0.0,0.0,0.0,0.0,0.0,0.0,0.0,0.0,0.0,0.0,0.0,0.0,0.0,0.0,0.0,0.0,0.0,0.0,0.0,0.0,0.0,0.0,0.0,0.0,0.0,0.0,0.0,0.0,0.0,0.0,0.0,-1.5814,-1.5814,-1.5814,-1.5814,0.0,0.0,0.0,-1.6178,-1.6318,0.0,0.0,0.0,0.0,0.0,0.0,0.0,0.0,0.0,0.0,0.0,0.0,0.0,0.0,0.0,0.0,0.0,0.0,0.0,0.0,0.0,0.0,0.0,0.0,0.0,0.0,0.0,0.0,0.0,0.0,0.0,0.0,0.0,0.0,0.0,0.0,0.0,0.0,0.0,0.0,0.0,0.0,0.0,0.0,0.0,0.0,0.0,0.0,0.0,0.0,0.0,0.0,0.0,0.0,0.0,-1.4485,-1.4485,-1.4485,-1.4485,-1.4485,-1.4485,-1.4485,-1.4485,-1.4286,-1.3965,0.0,0.0,0.0,0.0,0.0,0.0,0.0,0.0,0.0,0.0,0.0,0.0,0.0,0.0,0.0,0.0,0.0,0.0,0.0,0.0,0.0,0.0,0.0,0.0,0.0,0.0,0.0,0.0,0.0,0.0,0.0,0.0,0.0,0.0,0.0,0.0,0.0,0.0,0.0,0.0,0.0,0.0,-1.5814,-1.5814,0.0,0.0,0.0,-1.6178,-1.6297,0.0,0.0,0.0,0.0,0.0,0.0,0.0,0.0,0.0,0.0,0.0,0.0,0.0,0.0,0.0,0.0,0.0,0.0,0.0,0.0,0.0,0.0,0.0,0.0,0.0,0.0,0.0,0.0,0.0,0.0,0.0,0.0,0.0,0.0,0.0,0.0,0.0,0.0,0.0,0.0,0.0,0.0,0.0,0.0,0.0,0.0,0.0,0.0,0.0,0.0,0.0,0.0,0.0,0.0,0.0,0.0,0.0,-1.4485,-1.4485,-1.4485,-1.4485,-1.4485,-1.443,-1.435,-1.4047,0.0,0.0,0.0,0.0,0.0,0.0,0.0,0.0,0.0,0.0,0.0,0.0,0.0,0.0,0.0,0.0,0.0,0.0,0.0,0.0,0.0,0.0,0.0,0.0,0.0,0.0,0.0,-1.3868,0.0,0.0,0.0,0.0,0.0,0.0,0.0,0.0,0.0,0.0,0.0,0.0,0.0,0.0,-1.5814,-1.5814,-1.5814,-1.5859,0.0,0.0,-1.6265,-1.6383,-1.6457,-1.6513,0.0,0.0,0.0,0.0,0.0,0.0,0.0,0.0,0.0,0.0,0.0,0.0,0.0,0.0,0.0,0.0,0.0,0.0,0.0,0.0,0.0,0.0,0.0,0.0,0.0,0.0,0.0,0.0,0.0,0.0,0.0,0.0,0.0,0.0,0.0,0.0,0.0,0.0,0.0,0.0,0.0,0.0,0.0,0.0,0.0,0.0,0.0,0.0,0.0,0.0,0.0,0.0,0.0,0.0,0.0,-1.4485,-1.4485,-1.4485,-1.4485,-1.4485,-1.4323,-1.3947,-1.392,-1.3543,0.0,0.0,0.0,0.0,0.0,0.0,0.0,0.0,0.0,0.0,0.0,0.0,0.0,0.0,0.0,0.0,0.0,0.0,0.0,0.0,0.0,0.0,0.0,0.0,0.0,0.0,0.0,0.0,0.0,0.0,0.0,0.0,0.0,0.0,0.0,0.0,0.0,0.0,0.0,0.0,0.0,-1.5814,-1.5814,-1.5814,-1.5836,0.0,0.0,-1.6244,-1.6383,-1.6457,-1.6513,-1.6513,0.0,0.0,0.0,0.0,0.0,0.0,0.0,0.0,0.0,0.0,0.0,0.0,0.0,0.0,0.0,0.0,0.0,0.0,0.0,0.0,0.0,0.0,0.0,0.0,0.0,0.0,0.0,0.0,0.0,0.0,0.0,0.0,0.0,0.0,0.0,0.0,0.0,0.0,0.0,0.0,0.0,0.0,0.0,0.0,0.0,0.0,0.0,0.0,0.0,0.0,0.0,0.0,0.0,-1.4485,-1.4485,-1.4485,-1.4485,-1.4506,-1.4258,-1.4047,-1.3882,-1.3424,-1.301,0.0,0.0,0.0,0.0,0.0,0.0,0.0,0.0,0.0,0.0,0.0,0.0,0.0,0.0,0.0,0.0,0.0,0.0,0.0,0.0,0.0,0.0,0.0,0.0,0.0,0.0,0.0,0.0,-1.4197,-1.4454,-1.4787,0.0,0.0,0.0,0.0,0.0,0.0,0.0,0.0,0.0,0.0,-1.5814,-1.5814,-1.5814,0.0,0.0,-1.6178,-1.6253,-1.6436,-1.6479,-1.6513,-1.6513,-1.6513,0.0,0.0,0.0,0.0,0.0,0.0,0.0,0.0,0.0,0.0,0.0,0.0,0.0,0.0,0.0,0.0,0.0,0.0,0.0,0.0,0.0,0.0,0.0,0.0,0.0,0.0,0.0,0.0,0.0,0.0,0.0,0.0,0.0,0.0,0.0,0.0,0.0,0.0,0.0,0.0,0.0,0.0,0.0,0.0,0.0,0.0,0.0,0.0,0.0,0.0,0.0,0.0,-1.4485,-1.4485,-1.4485,-1.4485,-1.4485,-1.4102,-1.3856,-1.3718,-1.3056,-1.2634,0.0,0.0,0.0,0.0,0.0,0.0,0.0,0.0,0.0,0.0,0.0,0.0,0.0,0.0,0.0,0.0,0.0,0.0,0.0,0.0,0.0,0.0,0.0,0.0,0.0,0.0,0.0,0.0,-1.4325,-1.4569,-1.4776,0.0,0.0,0.0,0.0,0.0,0.0,0.0,0.0,0.0,0.0,-1.5814,-1.5814,-1.5814,-1.5881,-1.6156,-1.62,-1.6275,-1.6479,-1.6513,-1.6513,-1.6513,0.0,0.0,0.0,0.0,0.0,0.0,0.0,0.0,0.0,0.0,0.0,0.0,0.0,0.0,0.0,0.0,0.0,0.0,0.0,0.0,0.0,0.0,0.0,0.0,0.0,0.0,0.0,0.0,0.0,0.0,0.0,0.0,0.0,0.0,0.0,0.0,0.0,0.0,0.0,0.0,0.0,0.0,0.0,0.0,0.0,0.0,0.0,0.0,0.0,0.0,0.0,0.0,0.0,0.0,-1.4485,-1.4485,-1.4485,-1.4476,-1.4102,-1.3708,-1.3323,-1.2909,-1.2514,-1.2138,0.0,0.0,0.0,0.0,0.0,0.0,0.0,0.0,0.0,0.0,0.0,0.0,0.0,0.0,0.0,0.0,0.0,0.0,0.0,0.0,0.0,0.0,0.0,0.0,0.0,0.0,-1.402,-1.4465,-1.4787,0.0,0.0,0.0,0.0,0.0,0.0,0.0,0.0,0.0,0.0,-1.5814,-1.5814,-1.5814,-1.5814,-1.5881,-1.6178,-1.62,-1.6287,-1.6479,-1.6513,-1.6513,0.0,0.0,0.0,0.0,0.0,0.0,0.0,0.0,0.0,0.0,0.0,0.0,0.0,0.0,0.0,0.0,0.0,0.0,0.0,0.0,0.0,0.0,0.0,0.0,0.0,0.0,0.0,-1.2357,-1.2458,0.0,0.0,0.0,0.0,0.0,0.0,0.0,0.0,0.0,0.0,0.0,-1.4298,-1.4322,0.0,0.0,0.0,0.0,0.0,0.0,0.0,0.0,0.0,0.0,0.0,0.0,-1.4485,-1.4485,-1.4485,-1.4485,-1.4506,-1.4093,-1.369,-1.3305,-1.2909,-1.2505,-1.2119,0.0,0.0,0.0,0.0,0.0,0.0,0.0,0.0,0.0,0.0,0.0,0.0,0.0,0.0,0.0,0.0,0.0,0.0,0.0,0.0,0.0,0.0,0.0,0.0,0.0,-1.4067,0.0,0.0,0.0,0.0,0.0,0.0,0.0,0.0,0.0,0.0,0.0,-1.5814,-1.5814,-1.5814,-1.5814,-1.5814,-1.5814,-1.5881,0.0,0.0,0.0,0.0,0.0,0.0,0.0,0.0,0.0,0.0,0.0,0.0,0.0,0.0,-1.7261,-1.7455,-1.7496,-1.7578,-1.7842,0.0,0.0,0.0,0.0,0.0,0.0,0.0,0.0,0.0,0.0,0.0,0.0,0.0,0.0,0.0,0.0,-1.3174,0.0,0.0,0.0,0.0,0.0,0.0,0.0,0.0,-1.4755,-1.4804,-1.4717,-1.4717,-1.4717,0.0,-1.4427,-1.436,0.0,0.0,0.0,0.0,0.0,0.0,0.0,0.0,-1.4485,-1.4485,-1.4485,-1.4485,-1.4467,-1.4102,-1.3727,-1.3296,-1.2781,-1.2367,-1.211,-1.2076,-1.2076,0.0,0.0,0.0,0.0,0.0,0.0,0.0,0.0,0.0,0.0,0.0,0.0,0.0,0.0,0.0,0.0,0.0,0.0,0.0,0.0,0.0,0.0,0.0,-1.4163,0.0,0.0,0.0,0.0,0.0,0.0,0.0,0.0,0.0,-1.5491,-1.5669,-1.5814,-1.5814,-1.5814,-1.5814,-1.5814,0.0,0.0,0.0,0.0,0.0,0.0,0.0,-1.6513,-1.6513,-1.6513,-1.6509,-1.6629,-1.6791,-1.696,-1.717,0.0,0.0,-1.7455,-1.7496,-1.7591,-1.7848,-1.8063,-1.8189,-1.8189,-1.8361,-1.8498,0.0,0.0,0.0,0.0,0.0,0.0,0.0,0.0,-1.3448,-1.3638,0.0,-1.4036,0.0,0.0,0.0,0.0,0.0,0.0,0.0,0.0,-1.5129,-1.5052,-1.4744,-1.4744,-1.4759,-1.4759,-1.4709,-1.488,-1.5154,-1.4427,0.0,0.0,0.0,0.0,0.0,0.0,-1.4485,-1.4485,-1.4485,-1.4485,-1.4476,-1.4121,-1.3708,-1.3296,-1.2525,-1.2128,-1.2101,-1.2076,-1.2076,-1.2076,-1.2076,0.0,0.0,0.0,0.0,0.0,0.0,0.0,0.0,0.0,0.0,0.0,0.0,0.0,0.0,0.0,0.0,0.0,0.0,0.0,0.0,-1.4035,0.0,0.0,0.0,0.0,0.0,0.0,0.0,0.0,0.0,0.0,-1.5491,-1.5681,-1.5814,-1.5814,0.0,0.0,0.0,0.0,-1.5903,-1.6156,-1.62,-1.6275,-1.6479,-1.65,-1.6513,-1.6513,0.0,0.0,-1.6833,-1.691,-1.696,-1.7157,-1.7199,-1.7261,-1.7455,-1.7496,-1.7578,-1.7862,-1.8043,-1.8169,-1.8208,-1.8347,-1.8478,-1.374,0.0,0.0,0.0,0.0,-1.347,-1.3673,-1.3911,-1.411,-1.4332,-1.4501,-1.4493,0.0,0.0,0.0,0.0,0.0,0.0,-1.5323,-1.5564,-1.5591,-1.5583,-1.5489,-1.548,-1.5489,-1.5471,-1.5197,-1.5161,-1.5379,-1.4897,-1.4724,-1.4906,0.0,0.0,0.0,0.0,-1.4485,-1.4485,-1.4485,-1.4485,-1.4485,-1.4396,-1.4002,-1.3314,-1.2808,-1.2395,-1.211,-1.2076,-1.2076,-1.2076,-1.2076,0.0,0.0,0.0,0.0,0.0,0.0,0.0,0.0,0.0,0.0,0.0,0.0,0.0,0.0,0.0,0.0,0.0,0.0,0.0,-1.3926,-1.4093,-1.4246,0.0,0.0,0.0,0.0,0.0,0.0,0.0,0.0,0.0,-1.5491,-1.5681,-1.5814,0.0,0.0,-1.5814,-1.5814,-1.5814,-1.5881,-1.601,0.0,0.0,0.0,-1.6479,-1.6513,-1.6513,-1.6513,-1.6577,-1.6727,-1.6812,-1.6939,-1.7031,-1.7115,-1.724,-1.7378,-1.7468,-1.7591,-1.7828,-1.7989,-1.8095,-1.8169,-1.8288,-1.8392,-1.4382,-1.3923,-1.3642,-1.3607,-1.3833,-1.3912,-1.4105,-1.4308,-1.4472,-1.4652,-1.4894,-1.482,-1.4956,-1.5213,-1.5075,0.0,0.0,0.0,-1.5833,-1.6242,-1.6242,-1.6165,-1.6028,-1.6019,-1.5907,-1.5797,-1.5557,-1.5549,-1.5721,-1.5486,-1.5371,-1.5336,0.0,0.0,-1.4744,-1.4598,-1.4485,-1.4485,-1.4485,-1.4485,-1.4485,-1.435,-1.402,-1.3543,-1.3131,-1.2753,-1.2358,-1.233,-1.2266,-1.211,-1.2076,-1.2076,0.0,0.0,0.0,0.0,0.0,0.0,0.0,0.0,0.0,0.0,0.0,-1.2978,0.0,0.0,0.0,0.0,-1.3644,-1.3821,-1.3973,-1.4163,0.0,0.0,0.0,0.0,0.0,0.0,0.0,-1.5119,-1.53,-1.5446,-1.5491,-1.5659,-1.577,-1.5814,-1.5814,-1.5814,-1.5814,0.0,-1.5859,-1.5979,-1.6066,-1.6188,-1.6362,-1.6436,-1.6479,-1.65,-1.6513,-1.6556,-1.6675,-1.6761,-1.6867,-1.6981,-1.7052,-1.717,-1.735,-1.7432,-1.7543,-1.7781,-1.7915,-1.8022,-1.8115,-1.8234,-1.8338,-1.5028,-1.4941,-1.437,-1.4213,-1.4368,-1.4273,-1.4381,-1.4585,-1.4553,-1.4773,-1.5187,-1.5164,-1.5366,-1.5674,-1.5674,0.0,0.0,-1.628,-1.6493,-1.688,-1.688,-1.6739,-1.6441,-1.6379,-1.6208,-1.5891,-1.5865,-1.5946,-1.6105,-1.607,-1.5939,-1.5707,-1.5135,-1.4948,-1.5098,-1.4723,-1.4522,-1.4561,-1.4533,-1.4485,-1.4506,-1.413,-1.391,-1.3902,-1.3534,-1.314,-1.2762,-1.2735,-1.2551,-1.2174,-1.2147,-1.2128,-1.2101,0.0,0.0,0.0,0.0,0.0,0.0,0.0,0.0,0.0,0.0,0.0,0.0,0.0,0.0,0.0,-1.3844,0.0,-1.3997,-1.4244,0.0,0.0,0.0,-1.4799,-1.4799,-1.4983,-1.5119,-1.5119,0.0,0.0,0.0,0.0,-1.5726,-1.5792,-1.5814,-1.5814,-1.5814,-1.5814,-1.5836,-1.5957,-1.6001,-1.611,-1.6318,-1.6383,-1.6436,-1.6479,-1.6513,-1.6556,-1.6654,-1.6697,-1.6769,-1.6939,-1.6968,-1.7065,-1.7308,-1.7384,-1.7466,-1.7638,-1.7814,-1.7982,-1.8022,-1.8161,-1.8279,-1.5164,-1.4995,-1.4994,-1.4986,-1.4951,-1.4698,-1.4819,-1.5163,-1.5196,-1.5442,-1.5835,-1.5576,-1.5552,-1.5674,-1.5674,-1.5835,-1.6081,-1.6242,-1.6425,-1.6674,-1.6843,-1.6876,-1.679,-1.6781,-1.6693,-1.6644,-1.6317,-1.6208,-1.6263,-1.5996,-1.5921,-1.5965,-1.5553,-1.534,-1.5304,-1.493,-1.4802,-1.4955,-1.4632,-1.4485,-1.4506,-1.4414,-1.4203,-1.3882,-1.38,-1.358,-1.3194,-1.3176,-1.2974,-1.2579,-1.2551,-1.2439,-1.211,-1.2076,0.0,0.0,0.0,0.0,0.0,0.0,0.0,0.0,0.0,-1.2992,-1.3184,0.0,-1.3314,0.0,-1.3844,-1.3997,-1.3997,-1.4244,0.0,0.0,-1.4627,-1.4799,-1.4799,-1.4994,-1.5119,-1.5119,-1.5222,-1.5345,-1.5491,-1.5603,-1.5726,-1.5792,-1.5814,-1.5814,-1.5814,-1.5814,-1.5814,-1.5846,-1.5935,-1.601,-1.6098,-1.6262,-1.6414,-1.6479,-1.6513,-1.6522,-1.6543,-1.662,-1.6731,-1.6761,-1.6897,-1.701,-1.7086,-1.7267,-1.7404,-1.7466,-1.7638,-1.7828,-1.7962,-1.8042,-1.8108,-1.5491,-1.5337,-1.5347,-1.5372,-1.5403,-1.5176,-1.529,-1.5593,-1.5447,-1.559,-1.594,-1.5963,-1.6052,-1.615,-1.6142,-1.6269,-1.6506,-1.6593,-1.682,-1.7086,-1.722,-1.7204,-1.7167,-1.7167,-1.7081,-1.6918,-1.6658,-1.6507,-1.6328,-1.6139,-1.6039,-1.5964,-1.5757,-1.5686,-1.5686,-1.5192,-1.4921,-1.4885,-1.4557,-1.4446,-1.4485,-1.4485,-1.4396,-1.4205,-1.4167,-1.3974,-1.3571,-1.3552,-1.3369,-1.3001,-1.2974,-1.2873,-1.2635,-1.2652,-1.2643,0.0,0.0,0.0,0.0,0.0,0.0,0.0,0.0,0.0,0.0,0.0,-1.3314,0.0,-1.3844,0.0,-1.3997,-1.4428,-1.4701,-1.4701,-1.5089,-1.5343,-1.5437,-1.5571,-1.5703,-1.5762,-1.5833,-1.5939,-1.6045,-1.5974,-1.5958,-1.6037,-1.5936,-1.5814,-1.5814,-1.5814,-1.5814,-1.5814,-1.5881,-1.5935,-1.5966,-1.6188,-1.634,-1.6436,-1.6436,-1.6479,-1.65,-1.6556,-1.6633,-1.6697,-1.6803,-1.6897,-1.6968,-1.7107,-1.7246,-1.7384,-1.7487,-1.7638,-1.7835,-1.7942,-1.8048,-1.5818,-1.5764,-1.5558,-1.5597,-1.5741,-1.5574,-1.5655,-1.5871,-1.563,-1.5624,-1.586,-1.6265,-1.6547,-1.6711,-1.6713,-1.6812,-1.7057,-1.7098,-1.7302,-1.7619,-1.7651,-1.7612,-1.7543,-1.7496,-1.7372,-1.7034,-1.7013,-1.6816,-1.6536,-1.6484,-1.627,-1.5882,-1.5874,-1.5954,-1.6044,-1.5491,-1.4986,-1.459,-1.4428,-1.4381,-1.4426,-1.4485,-1.4485,-1.4485,-1.4485,-1.4341,-1.4021,-1.3965,-1.3772,-1.3396,-1.3396,-1.3351,-1.3305,-1.3296,-1.3296,0.0,-1.3296,0.0,0.0,0.0,0.0,0.0,0.0,0.0,0.0,-1.3389,-1.351,-1.3748,-1.3999,-1.4153,-1.4177,-1.4782,-1.5178,-1.5203,-1.5653,-1.6033,-1.6182,-1.6311,-1.6462,-1.6598,-1.6598,-1.6648,-1.6738,-1.6487,-1.6326,-1.6456,-1.6167,-1.5948,-1.59,-1.5874,-1.5814,-1.5814,-1.5814,-1.5859,-1.5966,-1.61,-1.6222,-1.634,-1.6349,-1.6392,-1.6479,-1.65,-1.6534,-1.6633,-1.6709,-1.6761,-1.6939,-1.696,-1.7078,-1.7287,-1.7363,-1.7432,-1.7625,-1.7814,-1.7962,-1.5866,-1.5832,-1.5718,-1.5839,-1.6054,-1.5798,-1.5774,-1.5978,-1.6177,-1.6323,-1.6518,-1.6726,-1.6814,-1.6875,-1.6733,-1.6738,-1.6771,-1.7017,-1.7131,-1.7221,-1.7383,-1.7545,-1.7679,-1.7679,-1.7726,-1.7769,-1.7501,-1.7368,-1.7291,-1.6953,-1.6619,-1.6295,-1.6287,-1.6124,-1.5876,0.0,0.0,0.0,-1.4551,-1.4377,-1.4118,-1.4267,-1.4327,-1.4327,-1.4446,0.0,-1.4396,-1.4396,-1.4203,-1.38,-1.3801,0.0,0.0,0.0,0.0,0.0,0.0,0.0,0.0,0.0,0.0,0.0,-1.3879,-1.3949,-1.407,-1.4356,-1.4548,-1.4702,-1.4892,-1.502,-1.5148,-1.535,-1.5557,-1.5644,-1.5873,-1.6033,-1.6182,-1.6322,-1.645,-1.6598,-1.6598,-1.6671,-1.6806,-1.6716,-1.6768,-1.6953,-1.661,-1.6347,-1.6416,-1.6078,-1.5826,-1.5814,-1.5814,-1.5859,-1.5979,-1.601,-1.6078,-1.621,-1.6231,-1.6297,-1.6371,-1.6426,-1.6436,-1.6522,-1.6641,-1.6697,-1.6774,-1.6846,-1.6952,-1.7044,-1.717,-1.7295,-1.7509,-1.7666,-1.7801,-1.5859,0.0,-1.5797,-1.5886,0.0,-1.5967,-1.5996,-1.6106,-1.6156,-1.6374,-1.6668,-1.6766,-1.6871,-1.6949,-1.7036,-1.7035,-1.7043,-1.7331,-1.7403,-1.7366,-1.7449,-1.7524,-1.7546,-1.7546,-1.7627,-1.7708,-1.7643,-1.7528,-1.7358,-1.7239,-1.6995,-1.6636,-1.6484,-1.6287,-1.6026,-1.5882,-1.5532,-1.5035,-1.4825,-1.4607,-1.4329,-1.4381,-1.4344,-1.4178,0.0,0.0,0.0,0.0,0.0,0.0,0.0,0.0,0.0,0.0,0.0,-1.3892,-1.3901,-1.392,-1.3986,-1.41,-1.4261,-1.4411,-1.4636,-1.4635,-1.4463,-1.4661,-1.4856,-1.4997,-1.5112,-1.5243,-1.5321,-1.5694,-1.5976,-1.6066,-1.6393,-1.6696,-1.6828,-1.6923,-1.7017,-1.7213,-1.7265,-1.7291,-1.7433,-1.728,-1.7254,-1.7346,-1.6986,-1.6634,-1.6478,-1.6093,-1.5814,-1.5814,-1.5814,-1.5802,-1.5891,-1.5891,-1.5957,-1.6078,-1.61,-1.6166,-1.6275,-1.6362,-1.6426,-1.6436,-1.6534,-1.662,-1.6675,-1.6761,-1.6812,-1.6918,-1.7002,-1.7094,-1.724,-1.7447,-1.7611,-1.5894,-1.5882,-1.5827,-1.5831,-1.5825,-1.6028,-1.617,-1.619,0.0,0.0,0.0,-1.6795,-1.6869,-1.7046,-1.7242,-1.7342,-1.7342,-1.7597,-1.7663,-1.7562,-1.7596,-1.7537,-1.7458,-1.745,-1.7417,-1.74,-1.7546,-1.7517,-1.724,-1.7412,-1.7342,-1.6953,-1.6704,-1.6519,-1.6283,-1.5977,-1.5713,-1.554,-1.5149,-1.4833,-1.4642,-1.4594,-1.4391,-1.4065,-1.4183,-1.4237,-1.4237,-1.4387,-1.4485,-1.4485,-1.4485,-1.4485,-1.4485,-1.4485,-1.4485,-1.4485,-1.4485,-1.4485,-1.4485,-1.4636,-1.4813,-1.5029,-1.5254,-1.5231,-1.4821,-1.4905,-1.5049,-1.5182,-1.5325,-1.5442,-1.5458,-1.5972,-1.6369,-1.6407,-1.6917,-1.7273,-1.7457,-1.7496,-1.7562,-1.7826,-1.7825,-1.7925,-1.8,-1.7825,-1.7702,-1.7682,-1.7375,-1.689,-1.6444,-1.6048,-1.5814,-1.5814,-1.5814,-1.5814,-1.5814,-1.5814,-1.5859,-1.5957,-1.5957,-1.6001,-1.6122,-1.6253,-1.6328,-1.6362,-1.6414,-1.65,-1.6599,-1.6654,-1.6718,-1.6833,-1.6854,-1.6876,-1.6994,-1.722,-1.7413,-1.5891,-1.5895,-1.5898,-1.5879,-1.5825,-1.5832,-1.5981,-1.6218,-1.6645,-1.7022,-1.7226,-1.7144,-1.7153,-1.7191,-1.7084,-1.7051,-1.7087,-1.7342,-1.7442,0.0,-1.7664,-1.7688,-1.7569,-1.7561,-1.7523,-1.7408,-1.7432,-1.7408,-1.7407,-1.7584,-1.7479,-1.7206,-1.726,-1.6978,-1.6325,-1.5985,-1.578,-1.5746,-1.5334,-1.4991,-1.4713,-1.4464,-1.4336,-1.4257,-1.4135,-1.404,-1.404,-1.4237,-1.4327,-1.4336,-1.4426,-1.4485,-1.4485,-1.4485,-1.4485,-1.4485,-1.4485,-1.4485,-1.4485,-1.4636,-1.4843,-1.5156,-1.5313,-1.5448,-1.5532,-1.5666,-1.5808,-1.593,-1.6069,-1.629,-1.6392,-1.6479,-1.6641,-1.6837,-1.6968,-1.7151,-1.744,-1.7468,-1.7551,-1.77,-1.7826,-1.7897,-1.7925,-1.7977,-1.8043,-1.8143,-1.774,-1.7223,-1.6515,-1.5992,-1.5828,-1.5814,-1.5814,-1.5814,-1.5814,-1.5814,-1.5802,-1.5814,-1.5836,-1.5881,-1.6001,-1.6054,-1.6132,-1.6188,-1.6318,-1.6414,-1.6448,-1.65,-1.6599,-1.6697,-1.6718,-1.6761,-1.6888,-1.7023,-1.7149,-1.5881,-1.5878,-1.5877,-1.5865,-1.5879,-1.5803,-1.5927,-1.6224,-1.6461,-1.6784,-1.7138,-1.7101,-1.7167,-1.7244,-1.7333,-1.7364,-1.7409,-1.7674,-1.7709,-1.7532,-1.7747,-1.7699,-1.7521,-1.7618,-1.757,-1.7381,-1.7432,-1.7417,-1.7278,-1.7424,-1.7454,-1.7304,-1.731,-1.6975,-1.6334,-1.6137,-1.5994,-1.5805,-1.5625,-1.5352,-1.4975,-1.4861,-1.461,-1.4205,-1.417,-1.407,-1.3899,-1.4049,-1.4169,-1.4306,-1.4357,-1.4417,-1.4485,-1.4485,-1.4485,-1.4485,-1.4485,-1.4485,-1.4485,-1.4636,-1.4804,-1.5068,-1.5205,-1.5371,-1.5536,-1.5701,-1.5875,-1.6085,-1.621,-1.6296,-1.6477,-1.6552,-1.6655,-1.6758,-1.6853,-1.6994,-1.719,-1.7245,-1.7329,-1.7534,-1.7645,-1.7689,-1.7783,-1.7909,-1.8018,-1.8093,-1.7794,-1.7429,-1.6977,-1.6397,-1.5957,-1.5809,-1.577,-1.5814,-1.5814,-1.5814,-1.5814,-1.5814,-1.5814,-1.5814,-1.5891,-1.5935,-1.6022,-1.61,-1.621,-1.6275,-1.6297,-1.6371,-1.647,-1.65,-1.6577,-1.6641,-1.6748,-1.6867,-1.7023,-1.5925,-1.5878,-1.5922,-1.592,-1.5875,-1.5767,-1.5879,-1.6076,-1.6123,-1.6366,-1.6791,-1.6878,-1.7019,-1.7138,-1.7394,-1.7535,-1.7589,-1.7854,-1.7849,-1.7667,-1.7834,-1.7784,-1.7474,-1.7671,-1.7585,-1.7371,-1.7387,-1.7321,-1.7154,-1.727,-1.7359,-1.735,-1.7196,-1.6876,-1.6444,-1.6388,-1.6203,-1.5879,-1.5934,-1.5737,-1.5369,-1.5257,-1.4932,-1.4401,-1.436,-1.4207,-1.3926,-1.3991,-1.4107,-1.4186,-1.4228,-1.4297,-1.4446,-1.4446,-1.4455,-1.4485,-1.4485,-1.4485,-1.4515,-1.4636,-1.4784,-1.4941,-1.5068,-1.5205,-1.5362,-1.5498,-1.5701,-1.5951,-1.6038,-1.6124,-1.6306,-1.641,-1.6513,-1.657,-1.6705,-1.6807,-1.6937,-1.6983,-1.7095,-1.7357,-1.744,-1.7551,-1.7634,-1.7772,-1.7881,-1.7879,-1.7783,-1.7685,-1.7491,-1.6894,-1.6397,-1.5947,-1.5787,-1.5782,-1.577,-1.578,-1.5814,-1.5814,-1.5814,-1.5814,-1.5814,-1.5891,-1.5935,-1.5957,-1.6078,-1.6144,-1.6166,-1.6253,-1.634,-1.6362,-1.6426,-1.6534,-1.6675,-1.6782,-1.6952,-1.5875,-1.5888,-1.5904,-1.5916,-1.5882,-1.563,-1.5642,-1.5832,-1.5832,-1.5981,-1.6319,-1.6541,-1.6629,-1.6723,-1.6979,-1.7073,-1.712,-1.7542,-1.7699,-1.7716,-1.7948,-1.7903,-1.7597,-1.7619,-1.7532,-1.7383,-1.7138,-1.7109,-1.7267,-1.7162,-1.7221,-1.731,-1.702,-1.6806,-1.6721,-1.6623,-1.6371,-1.6018,-1.6229,-1.6158,-1.5754,-1.5394,-1.5146,-1.5112,-1.4819,-1.4476,-1.4099,-1.4198,-1.4135,-1.3904,-1.3967,-1.4109,-1.4297,-1.4297,-1.4366,-1.4485,-1.4485,-1.4485,-1.4515,-1.4627,-1.4706,-1.4745,-1.4911,-1.5059,-1.5205,-1.5235,-1.5391,-1.5672,-1.5846,-1.599,-1.6114,-1.6142,-1.6257,-1.6513,-1.6581,-1.6655,-1.6807,-1.6937,-1.7,-1.7039,-1.729,-1.7523,-1.7507,-1.7606,-1.7744,-1.7854,-1.7938,-1.7863,-1.7571,-1.7396,-1.7045,-1.6314,-1.5902,-1.5741,-1.5727,-1.577,-1.577,-1.5792,-1.5814,-1.5792,-1.5792,-1.5814,-1.5814,-1.5881,-1.5935,-1.6022,-1.6044,-1.611,-1.62,-1.6231,-1.6318,-1.647,-1.6633,-1.6697,-1.6825,-1.5884,-1.5875,-1.5885,-1.5808,-1.5663,-1.5557,-1.5553,-1.5642,-1.5635,-1.5737,-1.5981,-1.6069,-1.6305,-1.6581,-1.673,-1.6784,-1.6784,-1.712,-1.7261,-1.7347,-1.7675,-1.7786,-1.7666,-1.7835,-1.7796,-1.7518,-1.7365,-1.7226,-1.7043,-1.6938,-1.7017,-1.7172,-1.7065,-1.6925,-1.6799,-1.676,-1.6558,-1.6171,-1.6169,-1.6094,-1.5925,-1.5683,-1.5411,-1.5198,-1.5069,-1.4821,-1.4495,-1.4509,-1.4392,-1.4122,-1.414,-1.4158,-1.4118,-1.4237,-1.4336,-1.4387,-1.4455,-1.4485,-1.4485,-1.4556,-1.4616,-1.4715,-1.4775,-1.4902,-1.5059,-1.5156,-1.5274,-1.541,-1.5653,-1.5827,-1.5961,-1.598,-1.6066,-1.6257,-1.6304,-1.64,-1.6666,-1.6751,-1.6786,-1.6892,-1.7078,-1.7207,-1.7245,-1.744,-1.7617,-1.7783,-1.7893,-1.7877,-1.7721,-1.7576,-1.7309,-1.6921,-1.6348,-1.5868,-1.5676,-1.558,-1.5625,-1.5637,-1.5703,-1.5738,-1.5738,-1.577,-1.5814,-1.5814,-1.5859,-1.5891,-1.5903,-1.6001,-1.6088,-1.611,-1.6188,-1.634,-1.6491,-1.6534,-1.662,-1.5885,-1.5902,-1.5817,-1.5749,-1.5625,-1.5537,-1.5494,-1.5492,-1.5521,-1.5578,-1.5601,-1.5689,-1.5927,-1.6251,-1.6447,-1.6494,-1.6548,-1.6791,-1.6885,-1.6925,-1.7254,-1.7441,-1.7542,-1.7721,-1.7733,-1.7599,-1.7523,-1.727,-1.6935,-1.6797,-1.6832,-1.703,-1.7024,-1.692,-1.6813,-1.682,-1.6735,-1.6398,-1.6262,-1.615,-1.5941,-1.5836,-1.5657,-1.5386,-1.5343,-1.5206,-1.4846,-1.4829,-1.4682,-1.4409,-1.4415,-1.4348,-1.4255,-1.4301,-1.4294,-1.4315,-1.4396,-1.4446,-1.4485,-1.4485,-1.4536,-1.4636,-1.4636,-1.4725,-1.4882,-1.5,-1.5088,-1.5156,-1.5391,-1.5624,-1.5827,-1.5856,-1.5904,-1.6038,-1.6028,-1.6171,-1.6428,-1.6485,-1.6591,-1.6722,-1.6881,-1.6955,-1.705,-1.7245,-1.7507,-1.7645,-1.7744,-1.7854,-1.7831,-1.7629,-1.7448,-1.734,-1.6777,-1.6252,-1.5764,-1.5562,-1.5526,-1.5513,-1.5592,-1.5637,-1.5671,-1.5726,-1.577,-1.576,-1.5792,-1.5814,-1.5836,-1.5913,-1.5988,-1.601,-1.6088,-1.621,-1.634,-1.6371,-1.647,-1.5885,-1.5849,-1.566,-1.5643,-1.5865,-1.5593,-1.5526,-1.5526,-1.552,-1.5379,-1.521,-1.541,-1.5547,-1.5588,-1.5981,-1.6218,-1.6272,-1.6494,-1.6636,-1.6636,-1.6683,-1.6777,-1.7026,-1.7026,-1.7293,-1.7593,-1.7347,-1.7169,-1.702,-1.6935,-1.6892,-1.6903,-1.6788,-1.673,-1.6723,-1.6911,-1.6855,-1.6531,-1.6622,-1.6451,-1.5828,-1.5757,-1.5724,-1.5735,-1.5762,-1.5574,-1.5249,-1.5189,-1.5026,-1.4708,-1.4691,-1.473,-1.4806,-1.451,-1.4334,-1.4336,-1.4333,-1.4384,-1.4501,-1.4558,-1.4579,-1.4552,-1.4628,-1.4614,-1.4751,-1.481,-1.4881,-1.5009,-1.5156,-1.5391,-1.5624,-1.5701,-1.5769,-1.5885,-1.5914,-1.599,-1.6114,-1.6306,-1.6449,-1.6581,-1.6722,-1.6853,-1.6983,-1.7172,-1.734,-1.7468,-1.7617,-1.7711,-1.77,-1.7683,-1.7535,-1.7338,-1.7122,-1.6903,-1.6229,-1.5776,-1.5575,-1.5468,-1.5446,-1.5513,-1.5558,-1.5614,-1.5659,-1.5715,-1.5726,-1.577,-1.5792,-1.5836,-1.5891,-1.5923,-1.5979,-1.6066,-1.621,-1.6318,-1.6405,-1.5885,-1.5879,-1.5789,-1.5709,-1.5649,-1.5545,-1.5503,-1.5488,-1.5319,-1.5292,-1.5325,-1.5303,-1.522,-1.5267,-1.5417,-1.5655,-1.5981,-1.6218,-1.6359,-1.6353,-1.6541,-1.6636,-1.6737,-1.6737,-1.6925,-1.7192,-1.7145,-1.7103,-1.7086,-1.7028,-1.6875,-1.6726,-1.6799,-1.6711,-1.6564,-1.673,-1.674,-1.6661,-1.6613,-1.6472,-1.6187,-1.5884,-1.572,-1.5741,-1.5659,-1.5587,-1.5591,-1.5591,-1.542,-1.5043,-1.5026,-1.4948,-1.4782,-1.4724,-1.4722,-1.4781,-1.4827,-1.4881,-1.5056,-1.5088,-1.5142,-1.5267,-1.5267,-1.5151,-1.5029,-1.5016,-1.5014,-1.4898,-1.497,-1.5147,-1.5235,-1.541,-1.5575,-1.573,-1.5769,-1.5817,-1.5933,-1.6048,-1.6134,-1.6285,-1.6495,-1.6722,-1.6864,-1.7032,-1.7134,-1.7207,-1.7412,-1.7534,-1.759,-1.7629,-1.7622,-1.7497,-1.7243,-1.6968,-1.6888,-1.6166,-1.5707,-1.5405,-1.53,-1.5357,-1.5425,-1.5503,-1.5547,-1.557,-1.5603,-1.5659,-1.5681,-1.577,-1.5824,-1.5824,-1.5891,-1.5957,-1.6044,-1.6154,-1.6241,-1.5885,-1.5885,-1.5885,-1.5789,-1.5632,-1.5626,-1.5573,-1.5471,-1.528,-1.5307,-1.5344,-1.5191,-1.5114,-1.5101,-1.5127,-1.5274,-1.5594,-1.5879,-1.5981,-1.6076,-1.6258,-1.64,-1.6447,-1.6494,-1.6636,-1.6878,-1.6979,-1.7044,-1.7149,-1.7101,-1.6956,-1.6804,-1.6842,-1.668,-1.6505,-1.6505,-1.6525,-1.656,-1.6532,-1.6461,-1.6372,-1.6061,-1.5793,-1.5647,-1.5546,-1.5507,-1.562,-1.5655,-1.558,-1.5377,-1.5368,-1.524,-1.494,-1.4937,-1.5,-1.5026,-1.5033,-1.5106,-1.5278,-1.531,-1.5366,-1.5495,-1.5551,-1.5465,-1.5228,-1.5326,-1.5263,-1.512,-1.5177,-1.5277,-1.53,-1.5395,-1.5488,-1.5537,-1.5585,-1.5672,-1.5798,-1.5856,-1.5923,-1.6114,-1.6285,-1.6513,-1.6694,-1.6797,-1.6881,-1.6899,-1.7145,-1.7273,-1.7357,-1.7412,-1.7534,-1.7579,-1.7339,-1.7151,-1.6999,-1.6514,-1.6012,-1.5705,-1.551,-1.5476,-1.5359,-1.5415,-1.5435,-1.5424,-1.5468,-1.5547,-1.5614,-1.5715,-1.576,-1.5748,-1.5814,-1.5881,-1.5935,-1.5979,-1.6088,-1.5885,-1.5885,-1.5885,-1.5879,-1.5849,-1.5849,-1.5728,-1.5517,-1.5463,-1.5351,-1.5184,-1.5121,-1.5078,-1.5078,-1.5036,-1.5102,-1.5178,-1.5404,-1.5588,-1.5778,-1.5832,-1.5974,-1.6177,-1.6224,-1.6359,-1.6588,-1.6878,-1.6972,-1.6969,-1.711,-1.7153,-1.7086,-1.6819,-1.6659,-1.6576,-1.632,-1.6226,-1.6353,-1.6396,-1.6345,-1.6222,-1.615,-1.5957,-1.5608,-1.5499,-1.5385,-1.5246,-1.5399,-1.5488,-1.5471,-1.5648,-1.56,-1.5283,-1.5223,-1.517,-1.5002,-1.4972,-1.5011,-1.5127,-1.5227,-1.5272,-1.5304,-1.5382,-1.5483,-1.5467,-1.5569,-1.5652,-1.5592,-1.5697,-1.5807,-1.5787,-1.5701,-1.5525,-1.5263,-1.5381,-1.5488,-1.5643,-1.5711,-1.5827,-1.6009,-1.6114,-1.6267,-1.6485,-1.6599,-1.6666,-1.6779,-1.6835,-1.692,-1.705,-1.7067,-1.7151,-1.7385,-1.7368,-1.7191,-1.7055,-1.6845,-1.6474,-1.6111,-1.5967,-1.5831,-1.5498,-1.5418,-1.5382,-1.5382,-1.5413,-1.5458,-1.548,-1.557,-1.5671,-1.5693,-1.5726,-1.577,-1.5836,-1.5869,-1.5979,-1.5885,-1.5885,-1.5885,-1.5885,-1.5885,-1.5885,-1.5837,-1.5747,-1.5584,-1.5451,-1.5336,-1.5196,-1.4989,-1.4825,-1.4814,-1.4825,-1.4844,-1.4927,-1.5159,-1.554,-1.5588,-1.5683,-1.5879,-1.5927,-1.6076,-1.6312,-1.6588,-1.6737,-1.6763,-1.6958,-1.696,-1.6759,-1.6892,-1.6763,-1.6365,-1.6399,-1.6389,-1.6226,-1.6203,-1.615,-1.6108,-1.602,-1.5905,-1.5763,-1.5481,-1.5266,-1.519,-1.5237,-1.5284,-1.5275,-1.5497,-1.5596,-1.5599,-1.5617,-1.56,-1.5532,-1.5515,-1.561,-1.5738,-1.5789,-1.5806,-1.5901,-1.5969,-1.5861,-1.5673,-1.5812,-1.5794,-1.5618,-1.5666,-1.5753,-1.5758,-1.5811,-1.5717,-1.5495,-1.5349,-1.5303,-1.5381,-1.5556,-1.5711,-1.5817,-1.5904,-1.6048,-1.621,-1.6353,-1.6506,-1.6609,-1.6694,-1.6807,-1.6864,-1.6853,-1.6909,-1.7123,-1.7129,-1.723,-1.7142,-1.7047,-1.6844,-1.6519,-1.6339,-1.6086,-1.5735,-1.5578,-1.5521,-1.5406,-1.5417,-1.5403,-1.5414,-1.5435,-1.5525,-1.5592,-1.5637,-1.5681,-1.5738,-1.5792,-1.5869,-1.5885,-1.5885,-1.5885,-1.5885,-1.5885,-1.5885,-1.5885,-1.5867,-1.5722,-1.565,-1.559,-1.5372,-1.5167,-1.4986,-1.4817,-1.4722,-1.4697,-1.4599,-1.4777,-1.5166,-1.5309,-1.541,-1.5553,-1.5635,-1.5825,-1.6069,-1.6359,-1.6447,-1.6447,-1.6683,-1.6732,-1.66,-1.6786,-1.6719,-1.633,-1.6318,-1.6257,-1.611,-1.6024,-1.5997,-1.6041,-1.6011,-1.5923,-1.5792,-1.5483,-1.5262,-1.5085,-1.5045,-1.5057,-1.513,-1.5284,-1.5461,-1.5576,-1.5576,-1.562,-1.5691,-1.5682,-1.5744,-1.5964,-1.5956,-1.6,-1.6105,-1.6167,-1.6105,-1.5911,-1.6004,-1.5947,-1.5835,-1.5957,-1.6039,-1.6063,-1.6024,-1.597,-1.5856,-1.5579,-1.5318,-1.5243,-1.5362,-1.5566,-1.5682,-1.5769,-1.5875,-1.6019,-1.6134,-1.6278,-1.6381,-1.6485,-1.6637,-1.6666,-1.6722,-1.6797,-1.6881,-1.6927,-1.7039,-1.719,-1.7197,-1.7175,-1.6937,-1.6692,-1.6359,-1.602,-1.6029,-1.5977,-1.5705,-1.5637,-1.5441,-1.5417,-1.5392,-1.5413,-1.548,-1.5525,-1.5614,-1.5681,-1.5715,-1.5792,-1.5903,-1.5891,-1.5885,-1.5885,-1.5885,-1.5885,-1.5885,-1.5885,-1.5873,-1.5867,-1.5807,-1.562,-1.5493,-1.5372,-1.5016,-1.4793,-1.4672,-1.4522,-1.4479,-1.47,-1.4885,-1.5077,-1.5172,-1.5452,-1.5635,-1.5784,-1.6076,-1.6177,-1.617,-1.6454,-1.6581,-1.6579,-1.6547,-1.6514,-1.6373,-1.6067,-1.5978,-1.6032,-1.5807,-1.579,-1.6004,-1.6023,-1.5934,-1.5644,-1.5585,-1.5373,-1.5033,-1.4891,-1.4857,-1.492,-1.5106,-1.5204,-1.5204,-1.5196,-1.5319,-1.547,-1.547,-1.5576,-1.5691,-1.5761,-1.5797,-1.5832,-1.5964,-1.6061,-1.6044,-1.6123,-1.6218,-1.6174,-1.6356,-1.6496,-1.6459,-1.6372,-1.6254,-1.6202,-1.5772,-1.5425,-1.5262,-1.5224,-1.5332,-1.5566,-1.5672,-1.573,-1.5856,-1.5914,-1.599,-1.6066,-1.6114,-1.6267,-1.6438,-1.6542,-1.6637,-1.6722,-1.6768,-1.6864,-1.7004,-1.705,-1.7041,-1.6966,-1.6813,-1.6631,-1.633,-1.6311,-1.6278,-1.6021,-1.5876,-1.5635,-1.5464,-1.5487,-1.5371,-1.5312,-1.5402,-1.5525,-1.5592,-1.5626,-1.5693,-1.606,-1.5891,-1.5885,-1.5885,-1.5885,-1.5885,-1.5885,-1.5885,-1.5885,-1.5885,-1.5867,-1.5819,-1.5668,-1.5487,-1.5354,-1.5095,-1.4793,-1.4636,-1.4473,-1.4418,-1.4496,-1.4736,-1.5083,-1.5356,-1.5493,-1.5588,-1.5784,-1.5933,-1.5927,-1.6163,-1.6312,-1.6312,-1.6504,-1.6436,-1.6183,-1.592,-1.574,-1.5669,-1.5416,-1.5382,-1.5541,-1.5699,-1.5786,-1.5696,-1.5632,-1.5507,-1.5334,-1.4896,-1.4749,-1.4868,-1.4935,-1.5034,-1.5133,-1.5161,-1.5204,-1.524,-1.5284,-1.5311,-1.539,-1.5505,-1.5576,-1.562,-1.5753,-1.5867,-1.5903,-1.6035,-1.614,-1.6167,-1.6272,-1.6368,-1.6359,-1.6314,-1.6239,-1.6066,-1.5707,-1.5442,-1.5427,-1.5249,-1.5117,-1.5293,-1.5323,-1.5469,-1.5643,-1.573,-1.5798,-1.5904,-1.5961,-1.6019,-1.621,-1.6267,-1.6353,-1.6542,-1.6655,-1.6722,-1.679,-1.6846,-1.6864,-1.687,-1.6866,-1.6863,-1.6612,-1.6461,-1.6376,-1.623,-1.6255,-1.6085,-1.5885,-1.5786,-1.5544,-1.5372,-1.5382,-1.5519,-1.5471,-1.547,-1.5592,-1.6127,-1.5885,-1.5885,-1.5885,-1.5885,-1.5885,-1.5885,-1.5885,-1.5885,-1.5885,-1.5885,-1.5885,-1.5807,-1.5668,-1.5541,-1.5342,-1.5046,-1.4811,-1.4624,-1.4485,-1.4358,-1.4544,-1.4879,-1.5118,-1.5213,-1.5356,-1.5594,-1.5689,-1.5737,-1.5927,-1.6021,-1.6069,-1.6312,-1.631,-1.6151,-1.5962,-1.5796,-1.5581,-1.5319,-1.5141,-1.5131,-1.5193,-1.5367,-1.5428,-1.5416,-1.5342,-1.5164,-1.4805,-1.4593,-1.4584,-1.4649,-1.4748,-1.4848,-1.4919,-1.4999,-1.5026,-1.507,-1.5106,-1.5204,-1.5311,-1.5382,-1.539,-1.5505,-1.5576,-1.5691,-1.5788,-1.5859,-1.5973,-1.614,-1.6211,-1.6237,-1.6272,-1.6235,-1.6108,-1.5818,-1.5573,-1.5507,-1.5266,-1.5139,-1.5144,-1.5127,-1.5205,-1.5478,-1.5478,-1.5585,-1.573,-1.5817,-1.5904,-1.6019,-1.6019,-1.6077,-1.6267,-1.64,-1.6438,-1.6524,-1.6581,-1.6733,-1.6751,-1.6803,-1.6849,-1.689,-1.6682,-1.6707,-1.6654,-1.6635,-1.6528,-1.6278,-1.6055,-1.5921,-1.5762,-1.5626,-1.5452,-1.5417,-1.5323,-1.5458,-1.6205,-1.5885,-1.5885,-1.5885,-1.5885,-1.5885,-1.5885,-1.5885,-1.5885,-1.5885,-1.5885,-1.5885,-1.5873,-1.5873,-1.5662,-1.5517,-1.5445,-1.5046,-1.4805,-1.4648,-1.4485,-1.4503,-1.464,-1.479,-1.4885,-1.507,-1.5309,-1.5452,-1.5499,-1.5642,-1.573,-1.5825,-1.6028,-1.6123,-1.6054,-1.6014,-1.5889,-1.5655,-1.5292,-1.5056,-1.4902,-1.486,-1.4908,-1.5075,-1.5103,-1.4972,-1.4788,-1.4606,-1.4471,-1.4133,-1.4268,-1.4389,-1.4425,-1.4497,-1.4605,-1.4756,-1.4784,-1.4892,-1.5062,-1.5098,-1.5169,-1.5169,-1.5204,-1.5275,-1.5461,-1.5497,-1.5576,-1.5761,-1.5929,-1.6,-1.607,-1.6167,-1.6254,-1.6192,-1.6063,-1.5821,-1.5473,-1.5349,-1.5256,-1.5062,-1.5056,-1.5096,-1.5137,-1.5215,-1.5293,-1.5498,-1.5585,-1.5672,-1.5788,-1.5875,-1.5904,-1.599,-1.6066,-1.6085,-1.62,-1.6343,-1.6495,-1.6609,-1.6694,-1.6789,-1.7069,-1.7022,-1.7081,-1.71,-1.702,-1.683,-1.6539,-1.6353,-1.6266,-1.6008,-1.5794,-1.5602,-1.5464,-1.5302,-1.5323,-1.6326,-1.5885,-1.5885,-1.5885,-1.5885,-1.5885,-1.5885,-1.5891,-1.5885,-1.5885,-1.5885,-1.5885,-1.5885,-1.5885,-1.5807,-1.5704,-1.5529,-1.533,-1.5137,-1.4721,-1.4672,-1.4485,-1.4497,-1.4604,-1.4694,-1.4831,-1.5029,-1.5172,-1.522,-1.5267,-1.5363,-1.554,-1.5642,-1.5737,-1.5832,-1.5718,-1.5608,-1.5588,-1.5208,-1.505,-1.4977,-1.4775,-1.472,-1.4783,-1.4776,-1.4717,-1.4643,-1.4605,-1.4411,-1.4125,-1.4086,-1.4132,-1.4173,-1.4209,-1.4281,-1.4353,-1.4425,-1.4541,-1.4605,-1.4784,-1.4971,-1.4971,-1.5062,-1.524,-1.524,-1.5275,-1.5355,-1.5497,-1.5611,-1.5718,-1.5859,-1.6035,-1.6105,-1.6097,-1.6166,-1.6073,-1.5737,-1.5614,-1.5499,-1.5318,-1.5221,-1.5188,-1.5066,-1.5048,-1.5127,-1.5274,-1.5362,-1.5449,-1.5556,-1.5701,-1.5759,-1.5759,-1.5875,-1.5951,-1.598,-1.6124,-1.6296,-1.6438,-1.6513,-1.6694,-1.6937,-1.7095,-1.7054,-1.7192,-1.739,-1.7138,-1.68,-1.6774,-1.6688,-1.6322,-1.6001,-1.5835,-1.5667,-1.5441,-1.5268,-1.5989,-1.5476,-1.5464,-1.5464,-1.5517,-1.563,-1.5737,-1.5737,-1.5838,-1.5885,-1.5885,-1.5885,-1.5885,-1.5885,-1.5885,-1.5801,-1.5674,-1.5541,-1.5282,-1.4938,-1.4793,-1.4636,-1.4497,-1.4509,-1.4496,-1.4544,-1.4783,-1.4885,-1.4933,-1.5035,-1.5172,-1.5309,-1.5309,-1.5363,-1.5499,-1.5436,-1.5391,-1.5371,-1.5246,-1.5089,-1.487,-1.472,-1.4599,-1.4594,-1.4636,-1.4628,-1.4469,-1.4441,-1.4266,-1.3983,-1.3812,-1.3807,-1.3987,-1.4065,-1.4101,-1.4137,-1.4165,-1.4238,-1.431,-1.4425,-1.4569,-1.4649,-1.4784,-1.4892,-1.4999,-1.507,-1.5141,-1.5319,-1.539,-1.5426,-1.5611,-1.5718,-1.5815,-1.5964,-1.6096,-1.6096,-1.5945,-1.5844,-1.5687,-1.5428,-1.5234,-1.5192,-1.5109,-1.4992,-1.498,-1.5098,-1.5127,-1.5205,-1.5323,-1.5439,-1.5517,-1.5575,-1.573,-1.5817,-1.5817,-1.5923,-1.6095,-1.62,-1.6285,-1.6485,-1.6722,-1.6825,-1.6916,-1.7084,-1.7279,-1.7346,-1.713,-1.7113,-1.7,-1.6726,-1.6418,-1.6185,-1.5941,-1.5721,-1.5576,-1.5487,-1.5041,-1.5041,-1.5041,-1.5035,-1.5315,-1.5428,-1.5476,-1.5678,-1.5672,-1.5731,-1.5785,-1.5672,-1.5731,-1.5725,-1.5785,-1.5772,-1.5686,-1.5427,-1.5173,-1.5004,-1.4877,-1.4745,-1.4545,-1.4449,-1.4407,-1.4562,-1.4646,-1.4694,-1.4885,-1.4933,-1.5035,-1.5035,-1.5083,-1.5172,-1.5302,-1.5328,-1.5132,-1.514,-1.506,-1.4692,-1.4539,-1.4428,-1.4411,-1.444,-1.4511,-1.4358,-1.4329,-1.4216,-1.3901,-1.3596,-1.3599,-1.3682,-1.3863,-1.3985,-1.3992,-1.4029,-1.4029,-1.4065,-1.4137,-1.4238,-1.4346,-1.4353,-1.4505,-1.4721,-1.4828,-1.4935,-1.5106,-1.5204,-1.5284,-1.5426,-1.5497,-1.5541,-1.5682,-1.5894,-1.5991,-1.6009,-1.5997,-1.5838,-1.556,-1.5382,-1.5328,-1.5124,-1.4948,-1.4922,-1.4891,-1.496,-1.5,-1.5117,-1.5205,-1.5284,-1.5371,-1.5498,-1.5672,-1.573,-1.5759,-1.5923,-1.6038,-1.6114,-1.6257,-1.6438,-1.6513,-1.6616,-1.6881,-1.7039,-1.7146,-1.7219,-1.7175,-1.707,-1.6962,-1.677,-1.6495,-1.6233,-1.5993,-1.5898,-1.5487,-1.5041,-1.5041,-1.5041,-1.4987,-1.5041,-1.5095,-1.5095,-1.5143,-1.5143,-1.5196,-1.5196,-1.5196,-1.5196,-1.5143,-1.5309,-1.5506,-1.5583,-1.5563,-1.5411,-1.5279,-1.5176,-1.496,-1.4725,-1.4648,-1.4582,-1.4503,-1.443,-1.44,-1.4442,-1.4592,-1.4742,-1.4742,-1.4838,-1.5035,-1.5178,-1.5153,-1.5031,-1.4937,-1.4824,-1.476,-1.4414,-1.4153,-1.4115,-1.4166,-1.4245,-1.433,-1.4337,-1.431,-1.4237,-1.4153,-1.3856,-1.3594,-1.3467,-1.3477,-1.3601,-1.371,-1.3783,-1.3819,-1.3992,-1.4057,-1.4129,-1.4129,-1.4245,-1.4433,-1.4505,-1.4649,-1.4864,-1.5062,-1.5204,-1.524,-1.5248,-1.5275,-1.5346,-1.5497,-1.5638,-1.57,-1.5782,-1.5877,-1.5636,-1.555,-1.5453,-1.5223,-1.4996,-1.49,-1.4856,-1.4823,-1.4888,-1.497,-1.5029,-1.5088,-1.5176,-1.5235,-1.5469,-1.5643,-1.5672,-1.5759,-1.5875,-1.5961,-1.6009,-1.6153,-1.6171,-1.6304,-1.6552,-1.6779,-1.6937,-1.7011,-1.7106,-1.7141,-1.7055,-1.6878,-1.6738,-1.6569,-1.6402,-1.6235,-1.4883,-1.4568,-1.4617,-1.4563,-1.4611,-1.4713,-1.4821,-1.4821,-1.4928,-1.5041,-1.5041,-1.5041,-1.5041,-1.5041,-1.5041,-1.5095,-1.5256,-1.5363,-1.534,-1.527,-1.5246,-1.5237,-1.5076,-1.4939,-1.4797,-1.4721,-1.457,-1.4419,-1.431,-1.4346,-1.4394,-1.4448,-1.4496,-1.4544,-1.4694,-1.479,-1.4892,-1.4848,-1.4842,-1.479,-1.4764,-1.4238,-1.3963,-1.3786,-1.3828,-1.3948,-1.4026,-1.4195,-1.4218,-1.4152,-1.4001,-1.3857,-1.3648,-1.346,-1.3304,-1.3256,-1.3324,-1.339,-1.3463,-1.3593,-1.3695,-1.3928,-1.3928,-1.4029,-1.4173,-1.4274,-1.4389,-1.4577,-1.4677,-1.4856,-1.4999,-1.5034,-1.5098,-1.5204,-1.5311,-1.5319,-1.539,-1.5532,-1.5573,-1.5592,-1.558,-1.5495,-1.5432,-1.5199,-1.493,-1.4807,-1.4757,-1.481,-1.4898,-1.4899,-1.4957,-1.5029,-1.5088,-1.5244,-1.542,-1.5469,-1.5556,-1.5672,-1.5769,-1.5846,-1.5933,-1.598,-1.6038,-1.622,-1.642,-1.6666,-1.6835,-1.6948,-1.7032,-1.7117,-1.6966,-1.6863,-1.6868,-1.6799,-1.6617,-1.4401,-1.4196,-1.4196,-1.4196,-1.425,-1.4401,-1.4504,-1.4557,-1.4719,-1.4826,-1.4826,-1.4826,-1.4826,-1.4826,-1.4874,-1.4928,-1.4928,-1.4982,-1.5024,-1.5037,-1.5059,-1.5106,-1.5088,-1.5003,-1.4847,-1.4672,-1.4572,-1.4527,-1.4346,-1.4298,-1.4298,-1.4346,-1.4298,-1.4298,-1.44,-1.4544,-1.4592,-1.4688,-1.4783,-1.4747,-1.4461,-1.4122,-1.3754,-1.3493,-1.3593,-1.3652,-1.3688,-1.3822,-1.3913,-1.3875,-1.3785,-1.366,-1.3736,-1.3608,-1.3345,-1.3044,-1.2966,-1.3072,-1.3175,-1.3163,-1.3302,-1.3528,-1.3645,-1.3783,-1.3956,-1.4057,-1.4209,-1.4281,-1.4353,-1.4497,-1.4713,-1.4792,-1.4892,-1.4999,-1.5106,-1.5141,-1.5133,-1.524,-1.5346,-1.5425,-1.5532,-1.553,-1.543,-1.5389,-1.5136,-1.4956,-1.4912,-1.482,-1.4854,-1.4786,-1.484,-1.4909,-1.497,-1.5068,-1.5156,-1.5215,-1.5323,-1.5469,-1.5566,-1.5624,-1.574,-1.5856,-1.5914,-1.599,-1.6134,-1.6392,-1.6591,-1.6761,-1.6835,-1.692,-1.6955,-1.6946,-1.6872,-1.6912,-1.6835,-1.4406,-1.4196,-1.4196,-1.4196,-1.4196,-1.4245,-1.4245,-1.4245,-1.4299,-1.4304,-1.4353,-1.4299,-1.4353,-1.4407,-1.4552,-1.4659,-1.4713,-1.4821,-1.4934,-1.4917,-1.4978,-1.5003,-1.4938,-1.4738,-1.4694,-1.4647,-1.448,-1.4331,-1.4286,-1.428,-1.4298,-1.4298,-1.4298,-1.4298,-1.4298,-1.4394,-1.434,-1.4346,-1.4394,-1.4361,-1.4279,-1.4145,-1.3957,-1.3717,-1.3557,-1.3453,-1.3447,-1.3525,-1.3525,-1.3561,-1.362,-1.3554,-1.3441,-1.3546,-1.3427,-1.3284,-1.3219,-1.3292,-1.3271,-1.3131,-1.3086,-1.3255,-1.333,-1.3404,-1.3638,-1.3855,-1.4021,-1.4122,-1.4129,-1.4245,-1.4425,-1.4469,-1.4533,-1.4677,-1.4828,-1.4864,-1.4935,-1.4991,-1.5098,-1.5204,-1.5285,-1.5411,-1.542,-1.5409,-1.537,-1.5206,-1.5047,-1.497,-1.4885,-1.487,-1.4754,-1.4837,-1.4934,-1.5023,-1.497,-1.5,-1.5137,-1.5274,-1.5332,-1.5391,-1.5537,-1.5653,-1.5769,-1.5846,-1.599,-1.6116,-1.6278,-1.6477,-1.6637,-1.6751,-1.6797,-1.6807,-1.6797,-1.688,-1.6949,-1.3956,-1.4196,-1.4196,-1.4196,-1.4196,-1.4196,-1.4196,-1.4196,-1.4196,-1.4196,-1.4196,-1.4196,-1.4196,-1.4245,-1.4347,-1.4347,-1.4401,-1.4509,-1.4563,-1.4617,-1.4719,-1.4767,-1.4798,-1.4815,-1.4783,-1.4589,-1.4482,-1.429,-1.4199,-1.4238,-1.4298,-1.4298,-1.4298,-1.4298,-1.4304,-1.4298,-1.4298,-1.4298,-1.4328,-1.4207,-1.4082,-1.3998,-1.3849,-1.3454,-1.3436,-1.3385,-1.3266,-1.3349,-1.3398,-1.3434,-1.3519,-1.348,-1.3413,-1.3423,-1.3393,-1.3344,-1.33,-1.3344,-1.3356,-1.3289,-1.3289,-1.3366,-1.3466,-1.3559,-1.3612,-1.3594,-1.3746,-1.392,-1.3928,-1.4036,-1.4165,-1.4245,-1.4245,-1.4353,-1.4541,-1.4577,-1.4649,-1.4784,-1.4848,-1.4963,-1.5062,-1.5161,-1.5297,-1.5367,-1.5377,-1.5382,-1.5248,-1.5188,-1.5133,-1.515,-1.4984,-1.4818,-1.4906,-1.5011,-1.4906,-1.4813,-1.4969,-1.5087,-1.5117,-1.5186,-1.5303,-1.5449,-1.5527,-1.5614,-1.5759,-1.5875,-1.599,-1.6192,-1.6353,-1.6495,-1.6637,-1.6637,-1.6666,-1.6807,-1.689,-1.3591,-1.3975,-1.3975,-1.3975,-1.3975,-1.3975,-1.3975,-1.3975,-1.3975,-1.3975,-1.4088,-1.4142,-1.4196,-1.4196,-1.4196,-1.4245,-1.4191,-1.4196,-1.4196,-1.4245,-1.4347,-1.4504,-1.4552,-1.4632,-1.4672,-1.4492,-1.4444,-1.4281,-1.4133,-1.412,-1.4153,-1.4112,-1.4016,-1.4112,-1.416,-1.4208,-1.4202,-1.4298,-1.4298,-1.4201,-1.4092,-1.3936,-1.3728,-1.345,-1.3314,-1.328,-1.3145,-1.3113,-1.3185,-1.3179,-1.3307,-1.3294,-1.3317,-1.3347,-1.3389,-1.3368,-1.3361,-1.3389,-1.3427,-1.3393,-1.3536,-1.362,-1.3731,-1.361,-1.3641,-1.3426,-1.3351,-1.3726,-1.363,-1.3761,-1.3964,-1.4029,-1.4101,-1.4173,-1.4281,-1.4317,-1.4353,-1.4497,-1.4597,-1.4677,-1.4792,-1.49,-1.5048,-1.5251,-1.5354,-1.5472,-1.5462,-1.54,-1.5351,-1.5346,-1.5144,-1.4935,-1.5065,-1.5135,-1.505,-1.4939,-1.4986,-1.4937,-1.4948,-1.5,-1.5147,-1.5186,-1.5244,-1.5352,-1.5498,-1.5556,-1.5614,-1.5875,-1.6095,-1.622,-1.6335,-1.6467,-1.6552,-1.6666,-1.6807,-1.3315,-1.3369,-1.3374,-1.3374,-1.3428,-1.3374,-1.3369,-1.3428,-1.3428,-1.3532,-1.3748,-1.4024,-1.4142,-1.4137,-1.4083,-1.4083,-1.4191,-1.4191,-1.4137,-1.4142,-1.425,-1.4245,-1.4293,-1.4342,-1.4337,-1.4271,-1.43,-1.4267,-1.4119,-1.3914,-1.3791,-1.3622,-1.3701,-1.3738,-1.3835,-1.3925,-1.4016,-1.416,-1.4202,-1.425,-1.4136,-1.4021,-1.3835,-1.3737,-1.3393,-1.3109,-1.3079,-1.296,-1.2851,-1.2845,-1.3009,-1.3094,-1.3137,-1.3222,-1.327,-1.3281,-1.3305,-1.3336,-1.3358,-1.3337,-1.328,-1.3306,-1.3418,-1.3629,-1.3743,-1.3502,-1.3469,-1.3601,-1.351,-1.3499,-1.3689,-1.3826,-1.3855,-1.392,-1.3985,-1.4101,-1.4137,-1.4209,-1.4317,-1.4389,-1.4505,-1.4641,-1.4756,-1.4927,-1.5213,-1.5347,-1.5504,-1.5454,-1.5462,-1.543,-1.5259,-1.5154,-1.5274,-1.5335,-1.5313,-1.5228,-1.5062,-1.4946,-1.4935,-1.4945,-1.497,-1.5,-1.5,-1.5127,-1.5235,-1.5235,-1.5274,-1.5556,-1.5788,-1.5914,-1.6058,-1.622,-1.6392,-1.6506,-1.6648,-1.2278,-1.2278,-1.2446,-1.2822,-1.332,-1.332,-1.332,-1.332,-1.332,-1.3369,-1.3478,-1.3591,-1.3645,-1.3645,-1.3645,-1.3645,-1.3699,-1.3867,-1.3867,-1.3975,-1.4083,-1.4191,-1.4196,-1.4137,-1.4191,-1.4175,-1.4185,-1.4102,-1.3923,-1.3771,-1.3529,-1.3364,-1.343,-1.3551,-1.3636,-1.369,-1.3732,-1.3781,-1.3823,-1.3871,-1.4004,-1.3993,-1.3892,-1.3823,-1.3791,-1.3411,-1.3175,-1.3037,-1.288,-1.2759,-1.2808,-1.2833,-1.2875,-1.2966,-1.3003,-1.3045,-1.3137,-1.3228,-1.3264,-1.3265,-1.3383,-1.3489,-1.3553,-1.3628,-1.3809,-1.3581,-1.3553,-1.3544,-1.3438,-1.3418,-1.3434,-1.3469,-1.3448,-1.3593,-1.3702,-1.3811,-1.3891,-1.392,-1.4065,-1.4173,-1.4245,-1.4317,-1.4461,-1.4569,-1.4883,-1.5215,-1.5374,-1.5508,-1.5479,-1.554,-1.5409,-1.5361,-1.5477,-1.5453,-1.5414,-1.5256,-1.5092,-1.4997,-1.4921,-1.4872,-1.4855,-1.4813,-1.4834,-1.4931,-1.5009,-1.5059,-1.5147,-1.5303,-1.5508,-1.5682,-1.5856,-1.6029,-1.6163,-1.6306,-1.6449,-1.1568,-1.1623,-1.1787,-1.2278,-1.2881,-1.2989,-1.3039,-1.3044,-1.3044,-1.3098,-1.3207,-1.3261,-1.332,-1.332,-1.332,-1.332,-1.3369,-1.3532,-1.3532,-1.364,-1.3753,-1.3921,-1.3921,-1.3921,-1.3916,-1.4029,-1.4072,-1.3965,-1.3949,-1.3683,-1.3451,-1.3324,-1.327,-1.3277,-1.3389,-1.3443,-1.3497,-1.3497,-1.3497,-1.3588,-1.3786,-1.3769,-1.3776,-1.375,-1.3643,-1.346,-1.3101,-1.2913,-1.28,-1.2701,-1.2648,-1.2625,-1.2662,-1.2705,-1.2705,-1.2747,-1.2833,-1.2973,-1.3052,-1.3264,-1.3434,-1.3507,-1.3631,-1.3705,-1.3742,-1.3662,-1.3613,-1.3777,-1.3567,-1.3338,-1.3328,-1.3329,-1.3205,-1.3294,-1.3309,-1.3411,-1.3564,-1.3637,-1.3811,-1.3992,-1.4029,-1.4065,-1.4238,-1.4353,-1.4641,-1.4955,-1.5232,-1.5338,-1.5386,-1.546,-1.56,-1.5584,-1.566,-1.5605,-1.5497,-1.5437,-1.5343,-1.5197,-1.5092,-1.4807,-1.4769,-1.4673,-1.4654,-1.4734,-1.4803,-1.4882,-1.5,-1.5088,-1.5293,-1.5478,-1.5682,-1.5856,-1.6,-1.6144,-1.6249,-1.1568,-1.1568,-1.1568,-1.1787,-1.206,-1.2332,-1.2436,-1.2441,-1.2441,-1.255,-1.2827,-1.3044,-1.3207,-1.3207,-1.3103,-1.3152,-1.3207,-1.3261,-1.3315,-1.3315,-1.3428,-1.3374,-1.3374,-1.3483,-1.3591,-1.3694,-1.3748,-1.384,-1.403,-1.3529,-1.3372,-1.3201,-1.3001,-1.291,-1.3098,-1.3346,-1.3491,-1.3497,-1.3448,-1.3443,-1.3491,-1.3491,-1.3505,-1.3538,-1.3453,-1.3286,-1.3101,-1.2784,-1.2676,-1.2636,-1.2463,-1.2472,-1.254,-1.2577,-1.2619,-1.2625,-1.2668,-1.2705,-1.2747,-1.313,-1.3307,-1.3392,-1.3519,-1.3652,-1.3681,-1.3642,-1.3627,-1.377,-1.3593,-1.3425,-1.3362,-1.3289,-1.3121,-1.3077,-1.3094,-1.3119,-1.3273,-1.3309,-1.3484,-1.3666,-1.379,-1.3863,-1.4,-1.4173,-1.4425,-1.4713,-1.5026,-1.5169,-1.5248,-1.5365,-1.5508,-1.558,-1.5635,-1.5653,-1.5592,-1.5658,-1.561,-1.5442,-1.5242,-1.4974,-1.4719,-1.4586,-1.4581,-1.4561,-1.4595,-1.4684,-1.4764,-1.4843,-1.5059,-1.5264,-1.5508,-1.5682,-1.5827,-1.5943,-1.6048,-1.1021,-1.1021,-1.1181,-1.1291,-1.1455,-1.1732,-1.1841,-1.1837,-1.1896,-1.1951,-1.206,-1.2337,-1.2441,-1.2495,-1.2663,-1.2713,-1.2713,-1.2989,-1.3044,-1.3044,-1.3152,-1.3266,-1.3266,-1.3261,-1.3315,-1.3428,-1.3423,-1.3478,-1.357,-1.3179,-1.2941,-1.2792,-1.2605,-1.2542,-1.2807,-1.3007,-1.3001,-1.3055,-1.3055,-1.3104,-1.3201,-1.3244,-1.3292,-1.3437,-1.3335,-1.3222,-1.3074,-1.2728,-1.2614,-1.2526,-1.2334,-1.2238,-1.2252,-1.2289,-1.2289,-1.2332,-1.2375,-1.2577,-1.2662,-1.2875,-1.3009,-1.3179,-1.3349,-1.3476,-1.3499,-1.3497,-1.36,-1.3653,-1.3518,-1.3427,-1.3494,-1.3204,-1.3041,-1.3013,-1.2998,-1.2986,-1.301,-1.3046,-1.3112,-1.3266,-1.3426,-1.3608,-1.3783,-1.3956,-1.4173,-1.4325,-1.4605,-1.4856,-1.4971,-1.5133,-1.5321,-1.5365,-1.5446,-1.5578,-1.5667,-1.5609,-1.5626,-1.5486,-1.5335,-1.5162,-1.4891,-1.4631,-1.4425,-1.4412,-1.442,-1.4446,-1.4526,-1.4645,-1.4843,-1.5049,-1.5264,-1.5508,-1.5653,-1.5769,-1.5856,-1.0417,-1.0417,-1.0582,-1.0633,-1.0747,-1.135,-1.1568,-1.1568,-1.1568,-1.1568,-1.1678,-1.1787,-1.1891,-1.1951,-1.2005,-1.2114,-1.2169,-1.2332,-1.2555,-1.255,-1.2713,-1.2822,-1.2935,-1.2989,-1.3044,-1.3103,-1.3157,-1.3207,-1.3344,-1.286,-1.2567,-1.239,-1.2132,-1.225,-1.2467,-1.2565,-1.2764,-1.2813,-1.2861,-1.291,-1.2958,-1.3001,-1.3055,-1.3195,-1.321,-1.3165,-1.2981,-1.281,-1.2568,-1.2372,-1.2197,-1.1999,-1.1997,-1.2,-1.2,-1.208,-1.2166,-1.2326,-1.2418,-1.2577,-1.2705,-1.279,-1.3094,-1.327,-1.3313,-1.3372,-1.3464,-1.349,-1.341,-1.3417,-1.3411,-1.3146,-1.3044,-1.3027,-1.2897,-1.2858,-1.2811,-1.2811,-1.2856,-1.301,-1.3163,-1.3346,-1.3528,-1.371,-1.3891,-1.4036,-1.4217,-1.4433,-1.4693,-1.4856,-1.5062,-1.5141,-1.5213,-1.5355,-1.5461,-1.5446,-1.5478,-1.5515,-1.5342,-1.5177,-1.5046,-1.4783,-1.4506,-1.4228,-1.4225,-1.4264,-1.4336,-1.4476,-1.4645,-1.4784,-1.4961,-1.5205,-1.5469,-1.5566,-1.5634,-0.9798,-0.9801,-0.9801,-0.9786,-1.001,-1.0958,-1.1424,-1.1509,-1.1514,-1.1518,-1.1568,-1.1514,-1.1568,-1.1568,-1.1623,-1.1678,-1.1678,-1.1732,-1.1841,-1.2005,-1.211,-1.2273,-1.2327,-1.2382,-1.25,-1.2718,-1.2822,-1.2817,-1.3156,-1.2651,-1.2293,-1.2028,-1.1879,-1.1927,-1.2078,-1.2224,-1.2424,-1.2565,-1.2619,-1.2619,-1.2662,-1.2716,-1.2716,-1.2759,-1.2802,-1.284,-1.2726,-1.2574,-1.2461,-1.2323,-1.2137,-1.2037,-1.1973,-1.1963,-1.1957,-1.2,-1.2,-1.2043,-1.2129,-1.2283,-1.2363,-1.2497,-1.2753,-1.2973,-1.31,-1.3179,-1.327,-1.3355,-1.3322,-1.3355,-1.3305,-1.3217,-1.3093,-1.2975,-1.2806,-1.2725,-1.2641,-1.2647,-1.2723,-1.282,-1.29,-1.3046,-1.3229,-1.3411,-1.3564,-1.3674,-1.3819,-1.4044,-1.4289,-1.4497,-1.4669,-1.4864,-1.4963,-1.5141,-1.5213,-1.5284,-1.5349,-1.5382,-1.5238,-1.5061,-1.4983,-1.4863,-1.4533,-1.4252,-1.4122,-1.4102,-1.4186,-1.4297,-1.4417,-1.4556,-1.4695,-1.4902,-1.5205,-1.5274,-1.5332,-0.9527,-0.9523,-0.9523,-0.9527,-0.958,-0.9898,-1.0291,-1.0621,-1.0696,-1.0802,-1.0962,-1.1181,-1.1143,-1.1291,-1.1509,-1.1564,-1.1564,-1.1623,-1.1678,-1.1732,-1.1732,-1.1787,-1.1841,-1.1896,-1.19,-1.2005,-1.2169,-1.2318,-1.2283,-1.2111,-1.1798,-1.1466,-1.1448,-1.1536,-1.1634,-1.178,-1.198,-1.2175,-1.2224,-1.2322,-1.2273,-1.2273,-1.2322,-1.2322,-1.2473,-1.2521,-1.2463,-1.2411,-1.2377,-1.2321,-1.1994,-1.1783,-1.1805,-1.163,-1.1521,-1.1742,-1.1785,-1.1871,-1.2,-1.208,-1.2118,-1.2118,-1.2295,-1.2503,-1.2711,-1.2875,-1.3009,-1.3094,-1.3185,-1.3193,-1.3236,-1.3191,-1.3091,-1.2993,-1.2792,-1.262,-1.2536,-1.2452,-1.2516,-1.2599,-1.2673,-1.2863,-1.301,-1.3083,-1.3229,-1.3309,-1.3455,-1.3645,-1.3899,-1.4137,-1.4353,-1.4541,-1.4649,-1.4784,-1.4999,-1.507,-1.5177,-1.5234,-1.5101,-1.4995,-1.4916,-1.474,-1.4484,-1.423,-1.3925,-1.3947,-1.4058,-1.4139,-1.4198,-1.4297,-1.4446,-1.4675,-1.4882,-1.498,-1.5098,-0.9066,-0.9066,-0.9014,-0.9066,-0.9014,-0.9066,-0.9292,-0.9712,-0.9892,-1.0054,-1.0162,-1.0311,-1.0427,-1.0431,-1.075,-1.09,-1.0904,-1.1097,-1.124,-1.1404,-1.1396,-1.1514,-1.1568,-1.1564,-1.1627,-1.1673,-1.171,-1.1846,-1.1702,-1.1442,-1.1148,-1.0936,-1.09,-1.1002,-1.1051,-1.1096,-1.1247,-1.1541,-1.178,-1.1932,-1.198,-1.198,-1.198,-1.198,-1.2181,-1.2224,-1.2262,-1.2246,-1.2188,-1.2073,-1.168,-1.1521,-1.1481,-1.1264,-1.1311,-1.1483,-1.1527,-1.1613,-1.1693,-1.1828,-1.1871,-1.1914,-1.1957,-1.2166,-1.2375,-1.254,-1.2711,-1.2881,-1.2924,-1.2991,-1.3104,-1.3161,-1.307,-1.2978,-1.2772,-1.2569,-1.2434,-1.2265,-1.2322,-1.2382,-1.2532,-1.2716,-1.2826,-1.2863,-1.2936,-1.3053,-1.3163,-1.3273,-1.3572,-1.3819,-1.4065,-1.4281,-1.4353,-1.4425,-1.4641,-1.482,-1.4856,-1.4963,-1.4994,-1.489,-1.4848,-1.4678,-1.4413,-1.4074,-1.367,-1.3709,-1.3769,-1.389,-1.398,-1.4079,-1.4207,-1.4378,-1.4586,-1.4784,-1.4911,-0.8389,-0.8383,-0.8396,-0.8373,-0.8393,-0.8428,-0.8591,-0.8807,-0.9131,-0.9313,-0.9448,-0.9452,-0.953,-0.9742,-0.9979,-1.0079,-1.0164,-1.0409,-1.0645,-1.0988,-1.0958,-1.1076,-1.1282,-1.1437,-1.1276,-1.1411,-1.1472,-1.1327,-1.1164,-1.1017,-1.0805,-1.0426,-1.0462,-1.056,-1.0609,-1.0609,-1.0757,-1.0953,-1.134,-1.1639,-1.1834,-1.1932,-1.1932,-1.1883,-1.1932,-1.1975,-1.198,-1.194,-1.1889,-1.1672,-1.1465,-1.1293,-1.1124,-1.1002,-1.1121,-1.1176,-1.1219,-1.1262,-1.1348,-1.1483,-1.1613,-1.1699,-1.1828,-1.1914,-1.208,-1.224,-1.2454,-1.2546,-1.2631,-1.2753,-1.2838,-1.2941,-1.2945,-1.2904,-1.2779,-1.2593,-1.2443,-1.226,-1.2131,-1.2188,-1.2268,-1.2452,-1.2526,-1.2562,-1.2716,-1.2826,-1.29,-1.301,-1.32,-1.3492,-1.3746,-1.3992,-1.4109,-1.4137,-1.4274,-1.4418,-1.4461,-1.4569,-1.4713,-1.4804,-1.4711,-1.4543,-1.4353,-1.3998,-1.3641,-1.345,-1.3437,-1.3588,-1.3739,-1.389,-1.398,-1.4079,-1.4279,-1.4478,-1.4725,-0.7484,-0.7535,-0.7484,-0.7538,-0.7538,-0.7743,-0.785,-0.7948,-0.8197,-0.8739,-0.9294,-0.9377,-0.9369,-0.9309,-0.9455,-0.9546,-0.9621,-0.9743,-0.9842,-1.0073,-1.0216,-1.0434,-1.0619,-1.07,-1.0721,-1.0712,-1.0784,-1.0806,-1.0703,-1.0645,-1.056,-1.0385,-1.0364,-1.0314,-1.0314,-1.0314,-1.0413,-1.0511,-1.0708,-1.1149,-1.1394,-1.1389,-1.1389,-1.1438,-1.1487,-1.1634,-1.1683,-1.1829,-1.1907,-1.1864,-1.1635,-1.1384,-1.106,-1.0865,-1.0791,-1.0819,-1.0911,-1.0954,-1.1046,-1.1181,-1.1267,-1.1354,-1.144,-1.1613,-1.1742,-1.1952,-1.2118,-1.2203,-1.2332,-1.2454,-1.2577,-1.2699,-1.276,-1.2722,-1.2737,-1.2605,-1.2426,-1.2236,-1.2012,-1.2004,-1.2055,-1.212,-1.2194,-1.2305,-1.2489,-1.2599,-1.2636,-1.2746,-1.2893,-1.3119,-1.3419,-1.3637,-1.3826,-1.3899,-1.3992,-1.4093,-1.4209,-1.4245,-1.4346,-1.4461,-1.4569,-1.4305,-1.4017,-1.3893,-1.3635,-1.3368,-1.3214,-1.3294,-1.3445,-1.3588,-1.3739,-1.3838,-1.395,-1.4151,-1.4419,-0.7185,-0.7185,-0.7185,-0.7185,-0.7235,-0.7388,-0.7441,-0.7441,-0.759,-0.7928,-0.8425,-0.8648,-0.8808,-0.8834,-0.8976,-0.9068,-0.9135,-0.9365,-0.9493,-0.9606,-0.9629,-0.9773,-0.9899,-0.9949,-0.9967,-1.0006,-0.992,-0.9938,-1.0036,-0.9991,-0.9896,-0.9929,-0.9969,-1.0068,-1.0068,-1.0072,-1.0117,-1.0212,-1.0216,-1.0413,-1.0806,-1.085,-1.085,-1.09,-1.0998,-1.1096,-1.1096,-1.1247,-1.134,-1.1385,-1.1177,-1.1071,-1.0786,-1.0636,-1.0618,-1.0684,-1.0733,-1.0733,-1.0824,-1.0873,-1.0911,-1.0997,-1.1041,-1.117,-1.1311,-1.1521,-1.178,-1.1909,-1.2123,-1.2252,-1.2246,-1.232,-1.2369,-1.2341,-1.2445,-1.2457,-1.2284,-1.2095,-1.1964,-1.1878,-1.1872,-1.1892,-1.1929,-1.1929,-1.212,-1.2268,-1.2342,-1.2489,-1.2636,-1.2746,-1.301,-1.3273,-1.3426,-1.3535,-1.3593,-1.3775,-1.3964,-1.3992,-1.3985,-1.4173,-1.4271,-1.3937,-1.364,-1.3555,-1.3413,-1.3136,-1.3028,-1.3061,-1.3141,-1.3255,-1.3437,-1.3597,-1.3709,-1.3851,-1.4091,-0.7086,-0.7089,-0.7086,-0.7089,-0.7089,-0.7138,-0.7138,-0.7138,-0.7188,-0.7235,-0.7363,-0.7762,-0.7889,-0.8089,-0.8315,-0.8516,-0.867,-0.883,-0.9072,-0.919,-0.925,-0.9358,-0.9362,-0.9377,-0.9384,-0.9368,-0.9254,-0.9212,-0.9217,-0.9276,-0.9309,-0.9236,-0.9331,-0.9529,-0.948,-0.9529,-0.9575,-0.9673,-0.9772,-0.9916,-1.0113,-1.0359,-1.0462,-1.0462,-1.0413,-1.0413,-1.0413,-1.0462,-1.056,-1.0559,-1.0649,-1.0528,-1.0369,-1.0239,-1.0294,-1.0337,-1.0381,-1.0467,-1.0598,-1.0646,-1.0684,-1.0727,-1.0684,-1.0776,-1.0959,-1.1132,-1.1392,-1.1564,-1.178,-1.1957,-1.1952,-1.1995,-1.1995,-1.2032,-1.22,-1.2294,-1.2111,-1.2,-1.1875,-1.1782,-1.1726,-1.1683,-1.1682,-1.1682,-1.1781,-1.1892,-1.204,-1.2231,-1.2378,-1.2452,-1.2599,-1.2826,-1.301,-1.3119,-1.3193,-1.3375,-1.3637,-1.3674,-1.3702,-1.3884,-1.3973,-1.3758,-1.3519,-1.33,-1.3127,-1.287,-1.2796,-1.2821,-1.2889,-1.2981,-1.3164,-1.3354,-1.3407,-1.3549,-1.3739,-0.6534,-0.6537,-0.6587,-0.6537,-0.6587,-0.6792,-0.6892,-0.6942,-0.7086,-0.7185,-0.7185,-0.7288,-0.7441,-0.7696,-0.7716,-0.7895,-0.8126,-0.8322,-0.8384,-0.8501,-0.872,-0.8847,-0.8972,-0.8947,-0.9045,-0.8927,-0.8825,-0.8842,-0.8772,-0.882,-0.8878,-0.8878,-0.8878,-0.8977,-0.8977,-0.9027,-0.9076,-0.9175,-0.9175,-0.9221,-0.9418,-0.9768,-1.0364,-1.0413,-1.0413,-1.0413,-1.0413,-1.0413,-1.0413,-1.0347,-1.0217,-1.0101,-0.9949,-0.9826,-0.9807,-0.9864,-0.9946,-1.0077,-1.0164,-1.0294,-1.0337,-1.0511,-1.0554,-1.0646,-1.0733,-1.0776,-1.0949,-1.1041,-1.13,-1.1607,-1.1693,-1.1823,-1.1871,-1.1957,-1.2057,-1.1974,-1.1833,-1.1834,-1.1821,-1.1696,-1.1593,-1.1525,-1.1465,-1.1521,-1.1632,-1.1706,-1.1744,-1.1929,-1.2077,-1.215,-1.2187,-1.2378,-1.2599,-1.279,-1.2936,-1.301,-1.3193,-1.3302,-1.3411,-1.3557,-1.3649,-1.3646,-1.3435,-1.3259,-1.2925,-1.2621,-1.2578,-1.2623,-1.2683,-1.2767,-1.2958,-1.308,-1.3164,-1.3255,-1.3437]}]]